[[{"header":{"parameterUnit":"m.s-1","parameterCategory":1,"la1":31.0,"la2":29.5877,"lo1":-88.7671,"lo2":-86.6584,"dx":0.0162,"dy":0.0185,"nx":115,"ny":88,"refTime":"2022-11-18T06:00:00:Z","depth":0,"parameterNumber":2,"parameterNumberName":"U-component_of_WINDS"},"data":[0.0,0.0,0.0,0.0,0.0,0.0,0.0,0.0,0.0,0.0,0.0,0.0,0.0,0.0,0.0,0.0,0.0,0.0,0.0,0.0,0.0,0.0,0.0,0.0,0.0,0.0,0.0,0.0,0.0,0.0,0.0,0.0,0.0,0.0,0.0,0.0,0.0,0.0,0.0,0.0,0.0,0.0,0.0,0.0,0.0,0.0,0.0,0.0,0.0,0.0,0.0,0.0,0.0,0.0,0.0,0.0,0.0,0.0,0.0,0.0,0.0,0.0,0.0,0.0,0.0,0.0,0.0,0.0,0.0,0.0,0.0,0.0,0.0,0.0,0.0,0.0,0.0,0.0,0.0,0.0,0.0,0.0,0.0,0.0,0.0,0.0,0.0,0.0,0.0,0.0,0.0,0.0,0.0,0.0,0.0,0.0,0.0,0.0,0.0,0.0,0.0,0.0,0.0,0.0,0.0,0.0,0.0,0.0,0.0,0.0,0.0,0.0,0.0,0.0,0.0,0.0,0.0,0.0,0.0,0.0,0.0,0.0,0.0,0.0,0.0,0.0,0.0,0.0,0.0,0.0,0.0,0.0,0.0,0.0,0.0,0.0,0.0,0.0,0.0,0.0,0.0,0.0,0.0,0.0,0.0,0.0,0.0,0.0,0.0,0.0,0.0,0.0,0.0,0.0,0.0,0.0,0.0,0.0,0.0,0.0,0.0,0.0,0.0,0.0,0.0,0.0,0.0,0.0,0.0,0.0,0.0,0.0,0.0,0.0,0.0,0.0,0.0,0.0,0.0,0.0,0.0,0.0,0.0,0.0,0.0,0.0,0.0,0.0,0.0,0.0,0.0,0.0,0.0,0.0,0.0,0.0,0.0,0.0,0.0,0.0,0.0,0.0,0.0,0.0,0.0,0.0,0.0,0.0,0.0,0.0,0.0,0.0,0.0,0.0,0.0,0.0,0.0,0.0,0.0,0.0,0.0,0.0,0.0,0.0,0.0,0.0,0.0,0.0,0.0,0.0,0.0,0.0,0.0,0.0,0.0,0.0,0.0,0.0,0.0,0.0,0.0,0.0,0.0,0.0,0.0,0.0,0.0,0.0,0.0,0.0,0.0,0.0,0.0,0.0,0.0,0.0,0.0,0.0,0.0,0.0,0.0,0.0,0.0,0.0,0.0,0.0,0.0,0.0,0.0,0.0,0.0,0.0,0.0,0.0,0.0,0.0,0.0,0.0,0.0,0.0,0.0,0.0,0.0,0.0,0.0,0.0,0.0,0.0,0.0,0.0,0.0,0.0,0.0,0.0,0.0,0.0,0.0,0.0,0.0,0.0,0.0,0.0,0.0,0.0,0.0,0.0,0.0,0.0,0.0,0.0,0.0,0.0,0.0,0.0,0.0,0.0,0.0,0.0,0.0,0.0,0.0,0.0,0.0,0.0,0.0,0.0,0.0,0.0,0.0,0.0,0.0,0.0,0.0,0.0,0.0,0.0,0.0,0.0,0.0,0.0,0.0,0.0,0.0,0.0,0.0,0.0,0.0,0.0,0.0,0.0,0.0,0.0,0.0,0.0,0.0,0.0,0.0,0.0,0.0,0.0,0.0,0.0,0.0,0.0,0.0,0.0,0.0,0.0,0.0,0.0,0.0,0.0,0.0,0.0,0.0,0.0,0.0,0.0,0.0,0.0,0.0,0.0,0.0,0.0,0.0,0.0,0.0,0.0,0.0,0.0,0.0,0.0,0.0,0.0,0.0,0.0,0.0,0.0,0.0,0.0,0.0,0.0,0.0,0.0,0.0,0.0,0.0,0.0,0.0,0.0,0.0,0.0,0.0,0.0,0.0,0.0,0.0,0.0,0.0,0.0,0.0,0.0,0.0,0.0,0.0,0.0,0.0,0.0,0.0,0.0,0.0,0.0,0.0,0.0,0.0,0.0,0.0,0.0,0.0,0.0,0.0,0.0,0.0,0.0,0.0,0.0,0.0,0.0,0.0,0.0,0.0,0.0,0.0,0.0,0.0,0.0,0.0,0.0,0.0,0.0,0.0,0.0,0.0,0.0,0.0,0.0,0.0,0.0,0.0,0.0,0.0,0.0,0.0,0.0,0.0,0.0,0.0,0.0,0.0,0.0,0.0,0.0,0.0,0.0,0.0,0.0,0.0,0.0,0.0,0.0,0.0,0.0,0.0,0.0,0.0,0.0,0.0,0.0,0.0,0.0,0.0,0.0,0.0,0.0,0.0,0.0,0.0,0.0,0.0,0.0,0.0,0.0,0.0,0.0,0.0,0.0,0.0,0.0,0.0,0.0,0.0,0.0,0.0,0.0,0.0,0.0,0.0,0.0,0.0,0.0,0.0,0.0,0.0,0.0,0.0,0.0,0.0,0.0,0.0,0.0,0.0,0.0,0.0,0.0,0.0,0.0,0.0,0.0,0.0,0.0,0.0,0.0,0.0,0.0,0.0,0.0,0.0,0.0,0.0,0.0,0.0,0.0,0.0,0.0,0.0,0.0,0.0,0.0,0.0,0.0,0.0,0.0,0.0,0.0,0.0,0.0,0.0,0.0,0.0,0.0,0.0,0.0,0.0,0.0,0.0,0.0,0.0,0.0,0.0,0.0,0.0,0.0,0.0,0.0,0.0,0.0,0.0,0.0,0.0,0.0,0.0,0.0,0.0,0.0,0.0,0.0,0.0,0.0,0.0,0.0,0.0,0.0,0.0,0.0,0.0,0.0,0.0,0.0,0.0,0.0,0.0,0.0,0.0,0.0,0.0,0.0,0.0,0.0,0.0,0.0,0.0,0.0,0.0,0.0,0.0,0.0,0.0,0.0,0.0,0.0,0.0,0.0,0.0,0.0,0.0,0.0,0.0,0.0,0.0,0.0,0.0,0.0,0.0,0.0,0.0,0.0,0.0,0.0,0.0,0.0,0.0,0.0,0.0,0.0,0.0,0.0,0.0,0.0,0.0,0.0,0.0,0.0,0.0,0.0,0.0,0.0,0.0,0.0,0.0,0.0,0.0,0.0,0.0,0.0,0.0,0.0,0.0,0.0,0.0,0.0,0.0,0.0,0.0,0.0,0.0,0.0,0.0,0.0,0.0,0.0,0.0,0.0,0.0,0.0,0.0,0.0,0.0,0.0,0.0,0.0,0.0,0.0,0.0,0.0,0.0,0.0,0.0,0.0,0.0,0.0,0.0,0.0,0.0,0.0,0.0,0.0,0.0,0.0,0.0,0.0,0.0,0.0,0.0,0.0,0.0,0.0,0.0,0.0,0.0,0.0,0.0,0.0,0.0,0.0,0.0,0.0,0.0,0.0,0.0,0.0,0.0,0.0,0.0,0.0,0.0,0.0,0.0,0.0,0.0,0.0,0.0,0.0,0.0,0.0,0.0,0.0,0.0,0.0,0.0,0.0,0.0,0.0,0.0,0.0,0.0,0.0,0.0,0.0,0.0,0.0,0.0,0.0,0.0,0.0,0.0,0.0,0.0,0.0,0.0,0.0,0.0,0.0,0.0,0.0,0.0,0.0,0.0,0.0,0.0,0.0,0.0,0.0,0.0,0.0,0.0,0.0,0.0,0.0,0.0,0.0,0.0,0.0,0.0,0.0,0.0,0.0,0.0,0.0,0.0,0.0,0.0,0.0,0.0,0.0,0.0,0.0,0.0,0.0,0.0,0.0,0.0,0.0,0.0,0.0,0.0,0.0,0.0,0.0,0.0,0.0,0.0,0.0,0.0,0.0,0.0,0.0,0.0,0.0,0.0,0.0,0.0,0.0,0.0,0.0,0.0,0.0,0.0,0.0,0.0,0.0,0.0,0.0,0.0,0.0,0.0,0.0,0.0,0.0,0.0,0.0,0.0,0.0,0.0,0.0,0.0,0.0,0.0,0.0,0.0,0.0,0.0,0.0,0.0,0.0,0.0,0.0,0.0,0.0,0.0,0.0,0.0,0.0,0.0,0.0,0.0,0.0,0.0,0.0,0.0,0.0,0.0,0.0,0.0,0.0,0.0,0.0,0.0,0.0,0.0,0.0,0.0,0.0,0.0,0.0,0.0,0.0,0.0,0.0,0.0,0.0,0.0,0.0,0.0,0.0,0.0,0.0,0.0,0.0,0.0,0.0,0.0,0.0,0.0,0.0,0.0,0.0,0.0,0.0,0.0,0.0,0.0,0.0,0.0,0.0,0.0,0.0,0.0,0.0,0.0,0.0,0.0,0.0,0.0,0.0,0.0,0.0,0.0,0.0,0.0,0.0,0.0,0.0,1.9708,0.0,0.0,0.0,1.9419,0.0,0.0,0.0,0.0,0.0,0.0,0.0,0.0,0.0,0.0,0.0,0.0,0.0,0.0,0.0,0.0,0.0,0.0,0.0,0.0,0.0,0.0,0.0,0.0,0.0,0.0,0.0,0.0,0.0,0.0,0.0,0.0,0.0,0.0,0.0,0.0,0.0,0.0,0.0,0.0,0.0,0.0,0.0,0.0,0.0,0.0,0.0,0.0,0.0,0.0,0.0,0.0,0.0,0.0,0.0,0.0,0.0,0.0,0.0,0.0,0.0,0.0,0.0,0.0,0.0,0.0,0.0,0.0,0.0,0.0,0.0,0.0,0.0,0.0,0.0,0.0,0.0,0.0,0.0,0.0,0.0,0.0,0.0,0.0,0.0,0.0,0.0,0.0,0.0,0.0,0.0,0.0,0.0,0.0,0.0,0.0,0.0,0.0,0.0,0.0,0.0,0.0,0.0,0.0,0.0,0.0,0.0,0.0,0.0,0.0,1.9708,1.9708,1.9654,1.9563,1.9389,0.0,0.0,0.0,0.0,0.0,0.0,0.0,0.0,0.0,0.0,0.0,0.0,0.0,0.0,0.0,0.0,0.0,0.0,0.0,0.0,0.0,0.0,0.0,0.0,0.0,0.0,0.0,0.0,0.0,0.0,0.0,0.0,0.0,0.0,0.0,0.0,0.0,0.0,0.0,0.0,0.0,0.0,0.0,0.0,0.0,0.0,0.0,0.0,0.0,0.0,0.0,0.0,0.0,0.0,0.0,0.0,0.0,0.0,0.0,0.0,0.0,0.0,0.0,0.0,0.0,0.0,0.0,0.0,0.0,0.0,0.0,0.0,0.0,0.0,0.0,0.0,0.0,0.0,0.0,0.0,0.0,0.0,0.0,0.0,0.0,0.0,0.0,0.0,0.0,0.0,0.0,0.0,0.0,0.0,0.0,0.0,0.0,0.0,0.0,0.0,0.0,0.0,0.0,0.0,0.0,0.0,0.0,0.0,0.0,0.0,0.0,0.0,1.9947,1.9739,1.9419,0.0,0.0,0.0,0.0,0.0,0.0,0.0,0.0,0.0,0.0,0.0,0.0,0.0,0.0,0.0,0.0,0.0,0.0,0.0,0.0,0.0,0.0,0.0,0.0,0.0,0.0,0.0,0.0,0.0,0.0,0.0,0.0,0.0,0.0,0.0,0.0,0.0,0.0,0.0,0.0,0.0,0.0,0.0,0.0,0.0,0.0,0.0,0.0,0.0,0.0,0.0,0.0,0.0,0.0,0.0,0.0,0.0,0.0,0.0,0.0,0.0,0.0,0.0,0.0,0.0,0.0,0.0,0.0,0.0,0.0,0.0,0.0,0.0,0.0,0.0,0.0,0.0,0.0,0.0,0.0,0.0,0.0,0.0,0.0,0.0,0.0,0.0,0.0,0.0,0.0,0.0,0.0,0.0,0.0,0.0,0.0,0.0,0.0,0.0,0.0,0.0,0.0,0.0,0.0,0.0,0.0,0.0,0.0,0.0,0.0,2.0608,2.0608,2.0608,0.0,1.9448,0.0,0.0,0.0,0.0,0.0,0.0,0.0,0.0,0.0,0.0,0.0,0.0,0.0,0.0,0.0,0.0,0.0,0.0,0.0,0.0,0.0,0.0,0.0,0.0,0.0,0.0,0.0,0.0,0.0,0.0,0.0,0.0,0.0,0.0,0.0,0.0,0.0,0.0,0.0,0.0,0.0,0.0,0.0,0.0,0.0,0.0,0.0,0.0,0.0,0.0,0.0,0.0,0.0,0.0,0.0,0.0,0.0,0.0,0.0,0.0,0.0,0.0,0.0,0.0,0.0,0.0,0.0,0.0,0.0,0.0,0.0,0.0,0.0,0.0,0.0,0.0,0.0,0.0,0.0,0.0,0.0,0.0,0.0,0.0,0.0,0.0,0.0,0.0,0.0,0.0,0.0,0.0,0.0,0.0,0.0,0.0,0.0,0.0,0.0,0.0,0.0,0.0,0.0,0.0,0.0,0.0,0.0,0.0,0.0,0.0,2.0907,2.1266,2.0801,2.0369,0.0,0.0,0.0,0.0,0.0,0.0,0.0,0.0,0.0,0.0,0.0,0.0,0.0,0.0,0.0,0.0,0.0,0.0,0.0,0.0,0.0,0.0,0.0,0.0,0.0,0.0,0.0,0.0,0.0,0.0,0.0,0.0,0.0,0.0,0.0,0.0,0.0,0.0,0.0,0.0,0.0,0.0,0.0,0.0,0.0,0.0,0.0,0.0,0.0,0.0,0.0,0.0,0.0,0.0,0.0,0.0,0.0,0.0,0.0,0.0,0.0,0.0,0.0,0.0,0.0,0.0,0.0,0.0,0.0,0.0,0.0,0.0,0.0,0.0,0.0,0.0,0.0,0.0,0.0,0.0,0.0,0.0,0.0,0.0,0.0,0.0,0.0,0.0,0.0,0.0,0.0,0.0,0.0,0.0,0.0,0.0,0.0,0.0,0.0,0.0,0.0,0.0,0.0,0.0,0.0,0.0,0.0,0.0,0.0,0.0,2.0877,2.1296,2.1904,2.1287,2.0774,2.041,0.0,0.0,0.0,0.0,0.0,0.0,0.0,0.0,0.0,0.0,0.0,0.0,0.0,0.0,0.0,0.0,0.0,0.0,0.0,0.0,0.0,0.0,0.0,0.0,0.0,0.0,0.0,0.0,0.0,0.0,0.0,0.0,0.0,0.0,0.0,0.0,0.0,0.0,0.0,0.0,0.0,0.0,0.0,0.0,0.0,0.0,0.0,0.0,0.0,0.0,0.0,0.0,0.0,0.0,0.0,0.0,0.0,0.0,0.0,0.0,0.0,0.0,0.0,0.0,0.0,0.0,0.0,0.0,0.0,0.0,0.0,0.0,0.0,0.0,0.0,0.0,0.0,0.0,0.0,0.0,0.0,0.0,0.0,0.0,0.0,0.0,0.0,0.0,0.0,0.0,0.0,0.0,0.0,0.0,0.0,0.0,0.0,0.0,0.0,0.0,0.0,0.0,0.0,0.0,0.0,0.0,0.0,0.0,2.0698,2.1365,2.2014,2.2692,2.2384,2.1639,0.0,0.0,0.0,0.0,0.0,0.0,0.0,0.0,0.0,0.0,0.0,0.0,0.0,0.0,0.0,0.0,0.0,0.0,0.0,0.0,0.0,0.0,0.0,0.0,0.0,0.0,0.0,0.0,0.0,0.0,0.0,0.0,0.0,0.0,0.0,0.0,0.0,0.0,0.0,0.0,0.0,0.0,0.0,0.0,0.0,0.0,0.0,0.0,0.0,0.0,0.0,0.0,0.0,0.0,0.0,0.0,0.0,0.0,0.0,0.0,0.0,0.0,0.0,0.0,0.0,0.0,0.0,0.0,0.0,0.0,0.0,0.0,0.0,0.0,0.0,0.0,0.0,0.0,0.0,0.0,0.0,0.0,0.0,0.0,0.0,0.0,0.0,0.0,0.0,0.0,0.0,0.0,0.0,0.0,0.0,0.0,0.0,0.0,0.0,0.0,0.0,0.0,0.0,0.0,0.0,0.0,0.0,0.0,0.0,2.1994,2.386,2.4968,2.5177,2.4156,2.2998,0.0,0.0,0.0,0.0,0.0,0.0,0.0,0.0,0.0,0.0,0.0,0.0,0.0,0.0,0.0,0.0,0.0,0.0,0.0,0.0,0.0,0.0,0.0,0.0,0.0,0.0,0.0,0.0,0.0,0.0,0.0,0.0,0.0,0.0,0.0,0.0,0.0,0.0,0.0,0.0,0.0,0.0,0.0,0.0,0.0,0.0,0.0,0.0,0.0,0.0,0.0,0.0,0.0,0.0,0.0,0.0,0.0,0.0,0.0,0.0,0.0,0.0,0.0,0.0,0.0,0.0,0.0,0.0,0.0,0.0,0.0,0.0,0.0,0.0,0.0,0.0,0.0,0.0,0.0,0.0,0.0,0.0,0.0,0.0,0.0,0.0,0.0,0.0,0.0,0.0,0.0,0.0,0.0,0.0,0.0,0.0,0.0,0.0,0.0,0.0,0.0,0.0,0.0,0.0,0.0,0.0,0.0,0.0,0.0,2.3851,2.6366,2.7722,2.765,2.6465,2.4905,0.0,0.0,0.0,0.0,0.0,0.0,0.0,0.0,0.0,0.0,0.0,0.0,0.0,0.0,0.0,0.0,0.0,0.0,0.0,0.0,0.0,0.0,0.0,0.0,0.0,0.0,0.0,0.0,0.0,0.0,0.0,0.0,0.0,0.0,0.0,0.0,0.0,0.0,0.0,0.0,0.0,0.0,0.0,0.0,0.0,0.0,0.0,0.0,0.0,0.0,0.0,0.0,0.0,0.0,0.0,0.0,0.0,0.0,0.0,0.0,0.0,0.0,0.0,0.0,0.0,0.0,0.0,0.0,0.0,0.0,0.0,0.0,0.0,0.0,0.0,0.0,0.0,0.0,0.0,0.0,0.0,0.0,0.0,0.0,0.0,0.0,0.0,0.0,0.0,0.0,0.0,0.0,0.0,0.0,0.0,0.0,0.0,0.0,0.0,0.0,0.0,0.0,0.0,0.0,0.0,0.0,0.0,0.0,2.2562,2.6283,2.8834,3.022,3.0074,2.9386,2.7442,0.0,0.0,0.0,0.0,0.0,0.0,0.0,0.0,0.0,0.0,0.0,0.0,0.0,0.0,0.0,0.0,0.0,0.0,0.0,0.0,0.0,0.0,0.0,0.0,0.0,0.0,0.0,0.0,0.0,0.0,0.0,0.0,0.0,0.0,0.0,0.0,0.0,0.0,0.0,0.0,0.0,0.0,0.0,0.0,0.0,0.0,0.0,0.0,0.0,0.0,0.0,0.0,0.0,0.0,0.0,0.0,0.0,0.0,0.0,0.0,0.0,0.0,0.0,0.0,0.0,0.0,0.0,0.0,0.0,0.0,0.0,0.0,0.0,0.0,0.0,0.0,0.0,0.0,0.0,0.0,0.0,0.0,0.0,0.0,0.0,0.0,0.0,0.0,0.0,0.0,0.0,0.0,0.0,0.0,0.0,0.0,0.0,0.0,0.0,0.0,0.0,0.0,0.0,0.0,0.0,0.0,0.0,0.0,0.0,3.0822,3.3381,3.4877,3.5226,3.3312,3.0485,0.0,0.0,0.0,0.0,0.0,0.0,0.0,0.0,0.0,0.0,0.0,0.0,0.0,0.0,0.0,0.0,0.0,0.0,0.0,0.0,0.0,0.0,0.0,0.0,0.0,0.0,0.0,0.0,0.0,0.0,0.0,0.0,0.0,0.0,0.0,0.0,0.0,0.0,0.0,0.0,0.0,0.0,0.0,0.0,0.0,0.0,0.0,0.0,0.0,0.0,0.0,0.0,0.0,0.0,0.0,0.0,0.0,0.0,0.0,0.0,0.0,0.0,0.0,0.0,0.0,0.0,0.0,0.0,0.0,0.0,0.0,0.0,0.0,0.0,0.0,0.0,0.0,0.0,0.0,0.0,0.0,0.0,0.0,0.0,0.0,0.0,0.0,0.0,0.0,0.0,0.0,0.0,0.0,0.0,0.0,0.0,0.0,0.0,0.0,0.0,0.0,0.0,0.0,0.0,0.0,0.0,0.0,0.0,0.0,3.6242,3.7927,3.895,3.9322,3.7007,3.3605,2.9084,0.0,0.0,0.0,0.0,0.0,0.0,0.0,0.0,0.0,0.0,0.0,0.0,0.0,0.0,0.0,0.0,0.0,0.0,0.0,0.0,0.0,0.0,0.0,0.0,0.0,0.0,0.0,0.0,0.0,0.0,0.0,0.0,0.0,0.0,0.0,0.0,0.0,0.0,0.0,0.0,0.0,0.0,0.0,0.0,0.0,0.0,0.0,0.0,0.0,0.0,0.0,0.0,0.0,0.0,0.0,0.0,0.0,0.0,0.0,0.0,0.0,0.0,0.0,0.0,0.0,0.0,0.0,0.0,0.0,0.0,0.0,0.0,0.0,0.0,0.0,0.0,0.0,0.0,0.0,0.0,0.0,0.0,0.0,0.0,0.0,0.0,0.0,0.0,0.0,0.0,0.0,0.0,0.0,0.0,0.0,0.0,0.0,0.0,0.0,0.0,0.0,0.0,0.0,0.0,0.0,0.0,0.0,0.0,4.2179,4.244,4.2519,4.2411,4.0408,3.6664,0.0,0.0,0.0,0.0,0.0,0.0,0.0,0.0,0.0,0.0,0.0,0.0,0.0,0.0,0.0,0.0,0.0,0.0,0.0,0.0,0.0,0.0,0.0,0.0,0.0,0.0,0.0,0.0,0.0,0.0,0.0,0.0,0.0,0.0,0.0,0.0,0.0,0.0,0.0,0.0,0.0,0.0,0.0,0.0,0.0,0.0,0.0,0.0,0.0,0.0,0.0,0.0,0.0,0.0,0.0,0.0,0.0,0.0,0.0,0.0,0.0,0.0,0.0,0.0,0.0,0.0,0.0,0.0,0.0,0.0,0.0,0.0,0.0,0.0,0.0,0.0,0.0,0.0,0.0,0.0,0.0,0.0,0.0,0.0,0.0,0.0,0.0,0.0,0.0,0.0,0.0,0.0,0.0,0.0,0.0,0.0,0.0,0.0,0.0,0.0,0.0,0.0,0.0,0.0,0.0,0.0,0.0,0.0,0.0,4.403,4.6498,4.7282,4.6295,4.3079,3.8841,0.0,0.0,0.0,0.0,0.0,0.0,0.0,0.0,0.0,0.0,0.0,0.0,0.0,0.0,0.0,0.0,0.0,0.0,0.0,0.0,0.0,0.0,0.0,0.0,0.0,0.0,0.0,0.0,0.0,0.0,0.0,0.0,0.0,0.0,0.0,0.0,0.0,0.0,0.0,0.0,0.0,0.0,0.0,0.0,0.0,0.0,0.0,0.0,0.0,0.0,0.0,0.0,0.0,0.0,0.0,0.0,0.0,0.0,0.0,0.0,0.0,0.0,0.0,0.0,0.0,0.0,0.0,0.0,0.0,0.0,0.0,0.0,0.0,0.0,0.0,0.0,0.0,0.0,0.0,0.0,0.0,0.0,0.0,0.0,0.0,0.0,0.0,0.0,0.0,0.0,0.0,0.0,0.0,0.0,0.0,0.0,0.0,0.0,0.0,0.0,0.0,0.0,0.0,0.0,0.0,0.0,0.0,0.0,4.1893,4.5722,4.8893,4.9816,4.8288,4.5007,4.0612,0.0,0.0,0.0,0.0,0.0,0.0,0.0,0.0,0.0,0.0,0.0,0.0,0.0,0.0,0.0,0.0,0.0,0.0,0.0,0.0,0.0,0.0,0.0,0.0,0.0,0.0,0.0,0.0,0.0,0.0,0.0,0.0,0.0,0.0,0.0,0.0,0.0,0.0,0.0,0.0,0.0,0.0,0.0,0.0,0.0,0.0,0.0,0.0,0.0,0.0,0.0,0.0,0.0,0.0,0.0,0.0,0.0,0.0,0.0,0.0,0.0,0.0,0.0,0.0,0.0,0.0,0.0,0.0,0.0,0.0,0.0,0.0,0.0,0.0,0.0,0.0,0.0,0.0,0.0,0.0,0.0,0.0,0.0,0.0,0.0,0.0,0.0,0.0,0.0,0.0,0.0,0.0,0.0,0.0,0.0,0.0,0.0,0.0,0.0,0.0,0.0,0.0,0.0,0.0,0.0,0.0,0.0,0.0,4.4056,4.7009,5.0035,5.0694,4.8834,4.6224,4.1943,0.0,0.0,0.0,0.0,0.0,0.0,0.0,0.0,0.0,0.0,0.0,0.0,0.0,0.0,0.0,0.0,0.0,0.0,0.0,0.0,0.0,0.0,0.0,0.0,0.0,0.0,0.0,0.0,0.0,0.0,0.0,0.0,0.0,0.0,0.0,0.0,0.0,0.0,0.0,0.0,0.0,0.0,0.0,0.0,0.0,0.0,0.0,0.0,0.0,0.0,0.0,0.0,0.0,0.0,0.0,0.0,0.0,0.0,0.0,0.0,0.0,0.0,0.0,0.0,0.0,0.0,0.0,0.0,0.0,0.0,0.0,0.0,0.0,0.0,0.0,0.0,0.0,0.0,0.0,0.0,0.0,0.0,0.0,0.0,0.0,0.0,0.0,0.0,0.0,0.0,0.0,0.0,0.0,0.0,0.0,0.0,0.0,0.0,0.0,0.0,0.0,0.0,0.0,0.0,0.0,0.0,0.0,0.0,4.4248,4.7344,4.9745,5.0118,4.8283,4.5707,4.19,0.0,0.0,0.0,0.0,0.0,0.0,0.0,0.0,0.0,0.0,0.0,0.0,0.0,0.0,0.0,0.0,0.0,0.0,0.0,0.0,0.0,0.0,0.0,0.0,0.0,0.0,0.0,0.0,0.0,0.0,0.0,0.0,0.0,0.0,0.0,0.0,0.0,0.0,0.0,0.0,0.0,0.0,0.0,0.0,0.0,0.0,0.0,0.0,2.4078,0.0,0.0,0.0,0.0,0.0,0.0,0.0,0.0,0.0,0.0,0.0,0.0,0.0,0.0,0.0,0.0,0.0,0.0,0.0,0.0,0.0,0.0,0.0,0.0,0.0,0.0,0.0,0.0,0.0,0.0,0.0,0.0,0.0,0.0,0.0,0.0,0.0,0.0,0.0,0.0,0.0,0.0,0.0,0.0,0.0,0.0,0.0,0.0,0.0,0.0,0.0,0.0,0.0,0.0,0.0,0.0,0.0,0.0,0.0,4.4969,4.7534,4.9437,4.9579,4.778,4.5386,4.1771,0.0,0.0,0.0,0.0,0.0,0.0,0.0,0.0,0.0,0.0,0.0,0.0,0.0,0.0,0.0,0.0,0.0,0.0,0.0,0.0,0.0,0.0,0.0,0.0,0.0,0.0,0.0,0.0,0.0,0.0,0.0,0.0,0.0,0.0,0.0,0.0,0.0,0.0,0.0,0.0,0.0,0.0,0.0,0.0,0.0,0.0,0.0,0.0,0.0,0.0,0.0,0.0,0.0,0.0,0.0,0.0,0.0,0.0,0.0,0.0,0.0,0.0,0.0,0.0,0.0,0.0,0.0,0.0,0.0,0.0,0.0,0.0,0.0,0.0,0.0,0.0,0.0,0.0,0.0,0.0,0.0,0.0,0.0,0.0,0.0,0.0,0.0,0.0,0.0,0.0,0.0,0.0,0.0,0.0,0.0,0.0,0.0,0.0,0.0,0.0,0.0,0.0,0.0,0.0,0.0,0.0,0.0,4.2213,4.5623,4.7591,4.9058,4.8919,4.7136,4.5068,4.1585,3.6566,0.0,0.0,0.0,0.0,0.0,0.0,0.0,0.0,0.0,0.0,0.0,0.0,0.0,0.0,0.0,0.0,0.0,0.0,0.0,0.0,0.0,0.0,0.0,0.0,0.0,0.0,0.0,0.0,0.0,0.0,0.0,0.0,0.0,0.0,0.0,0.0,0.0,0.0,2.3328,2.4764,0.0,0.0,0.0,0.0,0.0,0.0,0.0,0.0,2.5854,0.0,0.0,0.0,0.0,0.0,0.0,0.0,0.0,0.0,0.0,0.0,0.0,0.0,0.0,0.0,0.0,0.0,0.0,0.0,0.0,0.0,0.0,0.0,0.0,0.0,0.0,0.0,0.0,0.0,0.0,0.0,0.0,0.0,0.0,0.0,0.0,0.0,0.0,0.0,0.0,0.0,0.0,0.0,0.0,0.0,0.0,0.0,0.0,0.0,0.0,0.0,0.0,0.0,0.0,0.0,0.0,3.8755,4.2586,4.5434,4.7238,4.8292,4.7991,4.6242,4.4351,4.1248,3.6832,0.0,0.0,0.0,0.0,0.0,0.0,0.0,0.0,0.0,0.0,0.0,0.0,0.0,0.0,0.0,0.0,0.0,0.0,0.0,0.0,0.0,0.0,0.0,0.0,0.0,0.0,0.0,0.0,0.0,0.0,0.0,0.0,0.0,0.0,0.0,0.0,0.0,0.0,0.0,2.6076,2.6569,0.0,0.0,0.0,0.0,0.0,0.0,0.0,0.0,2.6842,0.0,0.0,0.0,0.0,0.0,0.0,0.0,0.0,0.0,0.0,0.0,0.0,0.0,0.0,0.0,0.0,0.0,0.0,0.0,0.0,0.0,0.0,0.0,0.0,0.0,0.0,0.0,0.0,0.0,0.0,0.0,0.0,0.0,0.0,0.0,0.0,0.0,0.0,0.0,0.0,0.0,0.0,0.0,0.0,0.0,0.0,0.0,0.0,0.0,0.0,0.0,0.0,0.0,0.0,0.0,3.9788,4.2949,4.5395,4.718,4.7644,4.7291,4.5999,4.4204,4.1285,0.0,0.0,0.0,0.0,0.0,0.0,0.0,0.0,0.0,0.0,0.0,0.0,0.0,0.0,0.0,0.0,0.0,0.0,0.0,0.0,0.0,0.0,0.0,0.0,0.0,0.0,0.0,0.0,0.0,0.0,0.0,0.0,0.0,0.0,0.0,0.0,0.0,0.0,0.0,0.0,2.7698,2.826,2.9131,0.0,0.0,0.0,0.0,0.0,0.0,2.8389,2.7975,0.0,0.0,0.0,0.0,0.0,0.0,0.0,0.0,0.0,0.0,0.0,0.0,0.0,0.0,0.0,0.0,0.0,0.0,0.0,0.0,0.0,0.0,0.0,0.0,0.0,0.0,0.0,0.0,0.0,0.0,0.0,0.0,0.0,0.0,0.0,0.0,0.0,0.0,0.0,0.0,0.0,0.0,0.0,0.0,0.0,0.0,0.0,0.0,0.0,0.0,0.0,0.0,0.0,0.0,0.0,4.0572,4.3207,4.5412,4.7071,4.7148,4.6722,4.5822,4.4064,4.1197,0.0,0.0,0.0,0.0,0.0,0.0,0.0,0.0,0.0,0.0,0.0,0.0,0.0,0.0,0.0,0.0,0.0,0.0,0.0,0.0,0.0,0.0,0.0,0.0,0.0,0.0,0.0,0.0,0.0,0.0,0.0,0.0,0.0,0.0,0.0,0.0,0.0,0.0,0.0,0.0,0.0,2.98,3.0344,3.0427,0.0,0.0,0.0,0.0,2.98,2.9499,0.0,0.0,0.0,0.0,0.0,0.0,0.0,0.0,0.0,0.0,0.0,0.0,0.0,0.0,0.0,0.0,0.0,0.0,0.0,0.0,0.0,0.0,0.0,0.0,0.0,0.0,0.0,0.0,0.0,0.0,0.0,0.0,0.0,0.0,0.0,0.0,0.0,0.0,0.0,0.0,0.0,0.0,0.0,0.0,0.0,0.0,0.0,0.0,0.0,0.0,0.0,0.0,0.0,0.0,0.0,0.0,4.0749,4.3362,4.5406,4.676,4.6845,4.6307,4.5221,4.3444,4.0629,0.0,0.0,0.0,0.0,0.0,0.0,0.0,0.0,0.0,0.0,0.0,0.0,0.0,0.0,0.0,0.0,0.0,0.0,0.0,0.0,0.0,0.0,0.0,0.0,0.0,0.0,0.0,0.0,0.0,0.0,0.0,0.0,0.0,0.0,0.0,0.0,0.0,0.0,0.0,0.0,0.0,3.0185,3.1123,3.1557,3.173,0.0,0.0,3.1992,3.1135,3.0871,0.0,0.0,0.0,0.0,0.0,0.0,0.0,0.0,0.0,0.0,0.0,0.0,0.0,0.0,0.0,0.0,0.0,0.0,0.0,0.0,0.0,0.0,0.0,0.0,0.0,0.0,0.0,0.0,0.0,0.0,0.0,0.0,0.0,0.0,0.0,0.0,0.0,0.0,0.0,0.0,0.0,0.0,0.0,0.0,0.0,0.0,0.0,0.0,0.0,0.0,0.0,0.0,0.0,0.0,0.0,3.6841,4.1293,4.3388,4.5173,4.6734,4.6626,4.607,4.5131,4.3361,4.0685,0.0,0.0,0.0,0.0,0.0,0.0,0.0,0.0,0.0,0.0,0.0,0.0,0.0,0.0,0.0,0.0,0.0,0.0,0.0,0.0,0.0,0.0,0.0,0.0,0.0,0.0,0.0,0.0,0.0,0.0,0.0,0.0,0.0,0.0,0.0,0.0,0.0,0.0,0.0,0.0,0.0,0.0,3.2874,3.3074,0.0,0.0,0.0,3.3302,3.284,0.0,0.0,0.0,0.0,0.0,0.0,0.0,0.0,0.0,0.0,0.0,0.0,0.0,0.0,0.0,0.0,0.0,0.0,0.0,0.0,0.0,0.0,0.0,0.0,0.0,0.0,0.0,0.0,0.0,0.0,0.0,0.0,0.0,0.0,0.0,0.0,0.0,0.0,0.0,0.0,0.0,0.0,0.0,0.0,0.0,0.0,0.0,0.0,0.0,0.0,0.0,0.0,0.0,0.0,0.0,0.0,0.0,4.1417,4.3277,4.5016,4.6585,4.6446,4.5938,4.5193,4.3402,0.0,0.0,0.0,0.0,0.0,0.0,0.0,0.0,0.0,0.0,0.0,0.0,0.0,0.0,0.0,0.0,0.0,0.0,0.0,0.0,0.0,0.0,0.0,0.0,0.0,0.0,0.0,0.0,0.0,0.0,0.0,0.0,0.0,0.0,0.0,0.0,0.0,0.0,0.0,0.0,0.0,0.0,3.2448,3.4126,3.4404,3.4439,0.0,0.0,3.4491,3.432,3.3679,3.2821,0.0,0.0,0.0,0.0,0.0,0.0,0.0,0.0,0.0,0.0,0.0,0.0,0.0,0.0,0.0,0.0,0.0,0.0,0.0,0.0,0.0,0.0,0.0,0.0,0.0,0.0,0.0,0.0,0.0,0.0,0.0,0.0,0.0,0.0,0.0,0.0,0.0,0.0,0.0,0.0,0.0,0.0,0.0,0.0,0.0,0.0,0.0,0.0,0.0,0.0,0.0,0.0,0.0,0.0,0.0,4.0667,4.3041,4.4911,4.6255,4.6301,4.6024,4.5426,4.3543,4.1128,0.0,0.0,0.0,0.0,0.0,0.0,0.0,0.0,0.0,0.0,0.0,0.0,0.0,0.0,0.0,0.0,0.0,0.0,0.0,0.0,0.0,0.0,0.0,0.0,0.0,0.0,0.0,0.0,0.0,0.0,0.0,0.0,0.0,0.0,0.0,0.0,0.0,0.0,0.0,0.0,0.0,3.3318,3.4162,3.5295,3.5878,0.0,0.0,3.5817,3.5127,3.4502,3.3853,3.3082,0.0,0.0,0.0,0.0,0.0,0.0,0.0,0.0,0.0,0.0,0.0,0.0,0.0,0.0,0.0,0.0,0.0,0.0,0.0,0.0,0.0,0.0,0.0,0.0,0.0,0.0,0.0,0.0,0.0,0.0,0.0,0.0,0.0,0.0,0.0,0.0,0.0,0.0,0.0,0.0,0.0,0.0,0.0,0.0,0.0,0.0,0.0,0.0,0.0,0.0,0.0,0.0,0.0,3.7062,4.0978,4.3108,4.4879,4.6225,4.6296,4.605,4.5497,4.3894,4.1912,0.0,0.0,0.0,0.0,0.0,0.0,0.0,0.0,0.0,0.0,0.0,0.0,0.0,0.0,0.0,0.0,0.0,0.0,0.0,0.0,0.0,0.0,0.0,0.0,0.0,0.0,0.0,0.0,2.5374,2.5982,2.578,0.0,0.0,0.0,0.0,0.0,0.0,0.0,0.0,0.0,0.0,3.4063,3.5523,3.6187,0.0,0.0,3.6694,3.6596,3.5977,3.543,3.4761,3.3824,3.2476,0.0,0.0,0.0,0.0,0.0,0.0,0.0,0.0,0.0,0.0,0.0,0.0,0.0,0.0,0.0,0.0,0.0,0.0,0.0,0.0,0.0,0.0,0.0,0.0,0.0,0.0,0.0,0.0,0.0,0.0,0.0,0.0,0.0,0.0,0.0,0.0,0.0,0.0,0.0,0.0,0.0,0.0,0.0,0.0,0.0,0.0,0.0,0.0,0.0,0.0,0.0,0.0,3.7415,4.1051,4.3197,4.4943,4.6276,4.6296,4.6125,4.5723,4.4439,4.2867,0.0,0.0,0.0,0.0,0.0,0.0,0.0,0.0,0.0,0.0,0.0,0.0,0.0,0.0,0.0,0.0,0.0,0.0,0.0,0.0,0.0,0.0,0.0,0.0,0.0,0.0,0.0,0.0,2.6455,2.6971,2.6903,0.0,0.0,0.0,0.0,0.0,0.0,0.0,0.0,0.0,0.0,3.4828,3.6403,3.6896,3.7122,3.7194,3.7341,3.7267,3.6726,3.6333,3.5768,3.4859,0.0,0.0,0.0,0.0,0.0,0.0,0.0,0.0,0.0,0.0,0.0,0.0,0.0,0.0,0.0,0.0,0.0,0.0,0.0,0.0,0.0,0.0,0.0,0.0,0.0,0.0,0.0,0.0,0.0,0.0,2.5478,0.0,0.0,0.0,0.0,0.0,0.0,0.0,0.0,0.0,0.0,0.0,0.0,0.0,0.0,0.0,0.0,0.0,0.0,0.0,0.0,0.0,0.0,3.7666,4.079,4.3325,4.5171,4.6276,4.6326,4.6326,4.6276,4.5196,4.39,4.2408,0.0,0.0,0.0,0.0,0.0,0.0,0.0,0.0,0.0,0.0,0.0,0.0,0.0,0.0,0.0,0.0,0.0,0.0,0.0,0.0,0.0,0.0,0.0,0.0,0.0,0.0,2.6467,2.68,2.7191,0.0,0.0,0.0,0.0,0.0,0.0,0.0,0.0,0.0,0.0,3.4514,3.5623,3.66,3.7442,3.7806,3.7315,3.7659,3.7806,3.7266,3.7168,3.6997,0.0,0.0,0.0,0.0,0.0,0.0,0.0,0.0,0.0,0.0,0.0,0.0,0.0,0.0,0.0,0.0,0.0,0.0,0.0,0.0,0.0,0.0,0.0,0.0,0.0,0.0,0.0,2.9348,2.8942,0.0,0.0,0.0,0.0,0.0,0.0,0.0,0.0,0.0,0.0,0.0,3.6019,3.62,0.0,0.0,0.0,0.0,0.0,0.0,0.0,0.0,0.0,0.0,0.0,0.0,3.8159,4.164,4.3617,4.5317,4.6772,4.6823,4.6823,4.6823,4.6125,4.4443,4.1787,0.0,0.0,0.0,0.0,0.0,0.0,0.0,0.0,0.0,0.0,0.0,0.0,0.0,0.0,0.0,0.0,0.0,0.0,0.0,0.0,0.0,0.0,0.0,0.0,0.0,2.822,0.0,0.0,0.0,0.0,0.0,0.0,0.0,0.0,0.0,0.0,0.0,3.262,3.4337,3.5861,3.7068,3.7752,3.8542,3.9013,0.0,0.0,0.0,0.0,0.0,0.0,0.0,0.0,0.0,0.0,0.0,0.0,0.0,0.0,3.2563,3.0555,3.077,3.1228,3.1078,0.0,0.0,0.0,0.0,0.0,0.0,0.0,0.0,0.0,0.0,0.0,0.0,0.0,0.0,0.0,0.0,3.147,0.0,0.0,0.0,0.0,0.0,0.0,0.0,0.0,3.699,3.8201,3.9149,3.9164,3.9199,0.0,3.8953,3.7127,0.0,0.0,0.0,0.0,0.0,0.0,0.0,0.0,3.9373,4.2663,4.4367,4.5894,4.7274,4.7375,4.7375,4.7375,4.6672,4.5091,4.2532,4.0324,3.789,0.0,0.0,0.0,0.0,0.0,0.0,0.0,0.0,0.0,0.0,0.0,0.0,0.0,0.0,0.0,0.0,0.0,0.0,0.0,0.0,0.0,0.0,0.0,2.9785,0.0,0.0,0.0,0.0,0.0,0.0,0.0,0.0,0.0,3.1356,3.2683,3.4318,3.5791,3.7135,3.8214,3.8747,0.0,0.0,0.0,0.0,0.0,0.0,0.0,3.831,3.7637,3.7517,3.7517,3.7517,3.7661,3.7781,3.7805,0.0,0.0,3.3933,3.3958,3.4462,3.427,3.4842,3.5362,3.5577,3.5887,3.624,0.0,0.0,0.0,0.0,0.0,0.0,0.0,0.0,3.5548,3.5608,0.0,3.4585,0.0,0.0,0.0,0.0,0.0,0.0,0.0,0.0,4.0494,4.1854,4.2843,4.246,4.2484,4.2943,4.2192,4.1527,4.0792,3.717,0.0,0.0,0.0,0.0,0.0,0.0,4.1153,4.379,4.5472,4.6853,4.7883,4.7933,4.7933,4.7908,4.6903,4.5824,4.464,4.2529,4.065,3.9044,3.6332,0.0,0.0,0.0,0.0,0.0,0.0,0.0,0.0,0.0,0.0,0.0,0.0,0.0,0.0,0.0,0.0,0.0,0.0,0.0,0.0,3.028,0.0,0.0,0.0,0.0,0.0,0.0,0.0,0.0,0.0,0.0,3.3668,3.4989,3.6374,3.7468,0.0,0.0,0.0,0.0,3.9729,3.9753,3.9729,3.9729,3.9681,3.9705,3.9681,3.9633,0.0,0.0,3.9674,4.0134,4.0466,4.0495,4.0851,4.0278,3.7224,3.6775,3.6996,3.7468,3.7722,3.8067,3.8559,3.8653,3.8836,4.111,0.0,0.0,0.0,0.0,3.8428,3.846,3.8684,3.8599,3.845,3.8287,3.7905,0.0,0.0,0.0,0.0,0.0,0.0,4.0202,4.1145,4.2648,4.3727,4.4399,4.4857,4.5174,4.5326,4.5091,4.4709,4.413,4.3073,4.0732,3.7383,0.0,0.0,0.0,0.0,4.3039,4.4945,4.625,4.7431,4.851,4.8535,4.851,4.8542,4.7456,4.6547,4.5849,4.4414,4.2936,4.1306,3.9346,0.0,0.0,0.0,0.0,0.0,0.0,0.0,0.0,0.0,0.0,0.0,0.0,0.0,0.0,0.0,0.0,0.0,0.0,0.0,3.1726,3.2116,3.2084,0.0,0.0,0.0,0.0,0.0,0.0,0.0,0.0,0.0,3.7707,3.7579,3.7644,0.0,0.0,4.0547,4.0715,4.1418,4.1899,4.1875,0.0,0.0,0.0,4.1321,4.1201,4.0787,4.1138,4.1496,4.1667,4.2104,4.2458,4.2458,4.2576,4.2364,4.1537,4.0329,3.9685,3.9857,4.0083,4.0389,4.0824,4.1067,4.103,4.4464,4.2726,4.1252,4.0888,4.1261,4.1108,4.1179,4.1372,4.1355,4.1308,4.113,4.091,4.0848,4.082,4.0605,0.0,0.0,0.0,4.289,4.3912,4.5024,4.5876,4.6516,4.7045,4.7405,4.7606,4.7606,4.7456,4.7104,4.6903,4.5376,4.2537,0.0,0.0,4.2509,4.3689,4.4995,4.6401,4.733,4.8209,4.9063,4.912,4.9019,4.8793,4.8134,4.7369,4.644,4.5565,4.4357,4.2874,4.14,3.9433,0.0,0.0,0.0,0.0,0.0,0.0,0.0,0.0,0.0,0.0,0.0,2.5517,0.0,0.0,0.0,0.0,3.1622,3.3065,3.4169,3.4444,0.0,0.0,0.0,0.0,0.0,0.0,0.0,3.703,3.826,3.9485,4.0696,4.0475,4.0138,4.0066,4.1105,4.1923,4.2086,0.0,4.3174,4.3361,4.3264,4.3077,4.2766,4.2628,4.249,4.2394,4.2688,4.3003,4.3184,4.3464,4.3712,4.3747,4.3784,4.3789,4.3868,4.2873,4.1877,4.1553,4.1556,4.1711,4.2004,4.2138,4.2123,4.7266,4.7044,4.4606,4.3546,4.352,4.3563,4.3607,4.3604,4.3899,4.4019,4.3968,4.3676,4.358,4.3581,4.3279,0.0,4.4379,4.4995,4.5815,4.6873,4.7501,4.8213,4.8919,4.8969,4.927,4.9715,4.9741,4.9741,4.969,4.9245,4.8711,4.8134,4.612,4.5321,4.5623,4.62,4.6979,4.7958,4.8567,4.912,4.959,4.959,4.9339,4.8894,4.8786,4.8096,4.678,4.6129,4.5239,4.3929,4.279,4.124,3.9126,0.0,0.0,0.0,0.0,0.0,0.0,0.0,0.0,0.0,0.0,0.0,0.0,0.0,0.0,0.0,3.4472,0.0,3.6456,3.6969,0.0,0.0,0.0,3.7311,3.736,3.8106,3.8825,3.9331,0.0,0.0,4.2837,0.0,4.3337,4.2501,4.2717,4.315,4.3577,4.3697,4.3859,4.4302,4.4172,4.3977,4.3946,4.3734,4.3646,4.3957,4.4144,4.4151,4.4219,4.4249,4.4334,4.4423,4.448,4.4493,4.4651,4.4206,4.3719,4.2648,4.2327,4.2242,4.2386,4.2388,4.2423,4.7747,4.7671,4.7045,4.6586,4.6254,4.6267,4.6115,4.5882,4.5951,4.5881,4.5704,4.5842,4.6028,4.6261,4.6219,4.6267,4.6488,4.7248,4.7729,4.8064,4.9203,4.9856,5.0042,5.0469,5.0778,5.087,5.0904,5.0929,5.087,5.0745,5.0652,5.0469,4.9941,4.8711,4.6823,4.7707,4.8341,4.8592,4.9145,4.9464,4.959,4.959,4.954,4.9414,4.8757,4.8273,4.7905,4.6711,4.5853,4.5521,4.4489,4.3256,4.1878,3.9793,0.0,0.0,0.0,0.0,0.0,0.0,0.0,0.0,0.0,2.9678,3.07,0.0,3.3293,0.0,3.6551,3.7858,3.8157,3.8688,0.0,0.0,3.8975,3.9171,3.9582,4.0182,4.0901,4.1842,4.2554,4.3361,4.4412,4.4652,4.4941,4.5477,4.4996,4.458,4.47,4.5085,4.5254,4.5222,4.5395,4.5447,4.5169,4.5178,4.5016,4.4627,4.4607,4.4536,4.436,4.4381,4.4436,4.4498,4.4498,4.4529,4.4554,4.3961,4.3486,4.3184,4.2814,4.2621,4.2985,4.2876,4.2638,4.9414,4.9414,4.9389,4.9254,4.8937,4.7947,4.74,4.7248,4.7248,4.7156,4.7029,4.7464,4.7718,4.7953,4.815,4.8379,4.8627,4.9103,4.9444,4.9714,5.0459,5.0921,5.1197,5.1749,5.2126,5.2352,5.2662,5.2637,5.2352,5.2126,5.19,5.1649,5.1398,5.0428,4.8807,4.95,4.9924,4.9924,4.9916,4.9941,4.9941,4.9554,4.9364,4.9364,4.8734,4.8229,4.7829,4.7015,4.6319,4.5674,4.509,4.4257,4.3163,4.1558,3.9715,0.0,0.0,0.0,0.0,0.0,0.0,0.0,0.0,0.0,0.0,0.0,3.6256,0.0,3.9304,0.0,4.0575,4.1268,4.1672,4.1696,4.1696,4.1816,4.2081,4.2615,4.3265,4.4082,4.4635,4.5325,4.6359,4.6535,4.675,4.7432,4.7016,4.6571,4.6542,4.666,4.6702,4.6775,4.6567,4.6249,4.5771,4.5594,4.548,4.5279,4.5273,4.5126,4.4547,4.4487,4.4525,4.4385,4.4374,4.4438,4.4592,4.4205,4.378,4.3715,4.3277,4.293,4.3101,4.3043,4.2828,5.1306,5.1306,5.1306,5.1306,5.118,4.9163,4.8335,4.8335,4.8335,4.8335,4.836,4.8894,4.912,4.917,4.9622,5.0067,5.0519,5.0561,5.0896,5.1406,5.1557,5.185,5.2327,5.2845,5.3381,5.3833,5.4371,5.4346,5.3808,5.3356,5.2845,5.2359,5.1782,5.1364,5.0977,5.1221,5.1289,5.1139,5.0638,5.0355,5.0355,4.9543,4.9107,4.9107,4.8731,4.8159,4.7369,4.7207,4.6561,4.5405,4.5229,4.4772,4.3866,4.2832,4.1692,0.0,3.8846,0.0,0.0,0.0,0.0,0.0,0.0,0.0,0.0,3.7863,3.9272,4.0667,4.2212,4.3126,4.3198,4.4051,4.4652,4.4669,4.4724,4.4724,4.4748,4.5181,4.5686,4.6175,4.6614,4.7311,4.8094,4.8286,4.8274,4.8513,4.8445,4.8396,4.8526,4.8045,4.7746,4.828,4.7434,4.6485,4.5954,4.558,4.5437,4.5716,4.5594,4.5449,4.4651,4.4546,4.4485,4.4301,4.429,4.4475,4.4848,4.4553,4.4316,4.4337,4.3799,4.33,4.3178,4.3118,4.3219,5.1306,5.1306,5.1306,5.1306,5.1247,5.0853,5.0645,5.0677,5.0645,5.0677,5.0645,5.077,5.0853,5.0853,5.0921,5.1021,5.1147,5.1574,5.1816,5.1975,5.2829,5.3306,5.3432,5.4019,5.431,5.4446,5.4547,5.4547,5.4421,5.4346,5.4069,5.3626,5.3103,5.2655,5.2245,0.0,0.0,0.0,5.0244,5.0161,5.0136,4.9585,4.9281,4.9256,4.8509,0.0,4.7847,4.7173,4.6697,4.6415,4.5974,0.0,0.0,0.0,0.0,0.0,0.0,0.0,0.0,0.0,0.0,0.0,4.1017,4.0608,3.9713,4.1398,4.2645,4.2928,4.3955,4.4876,4.5285,4.5886,4.6439,4.6848,4.6896,4.6896,4.692,4.7353,4.7738,4.7834,4.8045,4.8222,4.846,4.8185,4.8355,4.9144,4.9036,4.9173,4.9839,4.8709,4.7725,4.7201,4.6785,4.6455,4.6098,4.5916,4.5591,4.5236,4.479,4.4615,4.4481,4.4393,4.4378,4.43,4.4583,4.4866,4.4947,4.4621,4.4436,4.4814,4.446,4.4037,4.3636,4.3572,4.3682,5.2101,0.0,5.2101,5.2101,0.0,5.2101,5.2101,5.2051,5.1523,5.1306,5.1331,5.1574,5.1699,5.1699,5.1975,5.2226,5.2503,5.2754,5.303,5.3391,5.3884,5.417,5.4135,5.4748,5.4999,5.5024,5.5239,5.5132,5.4738,5.4677,5.4373,5.3706,5.3434,5.3072,5.2714,5.2267,5.168,5.0916,5.068,5.0533,5.0533,4.9848,4.9453,4.942,0.0,0.0,0.0,0.0,0.0,0.0,0.0,0.0,0.0,0.0,0.0,4.4756,4.4326,4.3819,4.3168,4.3241,4.3602,4.4281,4.5076,4.4828,4.3241,4.4106,4.4948,4.5453,4.6223,4.68,4.7088,4.7569,4.8002,4.8243,4.8291,4.8291,4.8315,4.8541,4.8824,4.9155,4.9257,4.938,4.9688,4.9378,4.9241,4.9534,4.9112,4.8828,4.9102,4.885,4.8173,4.6979,4.6292,4.5873,4.5618,4.5559,4.5566,4.529,4.5291,4.5209,4.5025,4.496,4.4914,4.4727,4.4844,4.4982,4.5002,4.4793,4.4685,4.4943,4.4834,4.473,4.4668,4.4501,4.4414,5.3171,5.3171,5.3206,5.3231,5.3206,5.3171,5.3231,5.3155,0.0,0.0,0.0,5.2201,5.2452,5.2578,5.3005,5.3457,5.3858,5.3858,5.411,5.4597,5.4626,5.4641,5.4666,5.5085,5.5324,5.5349,5.5774,5.5566,5.4852,5.4852,5.4411,5.3629,5.347,5.3203,5.2708,5.2441,5.2175,5.1894,5.1464,5.1244,5.1219,5.0371,4.9858,4.982,4.9425,4.9191,4.9119,4.9119,4.8902,4.8493,4.8469,4.8219,4.781,4.769,4.7449,4.704,4.6896,4.6704,4.6335,4.631,4.6607,4.7233,4.8171,4.805,4.6431,4.6439,4.6848,4.7714,4.8171,4.8507,4.87,4.9084,4.9445,4.9614,4.9672,4.9638,4.9568,4.9568,4.9802,5.0163,5.0079,5.0205,5.0591,5.0165,4.9893,4.9548,4.8769,4.8134,4.7871,4.8116,4.7977,4.6845,4.5958,4.5308,4.5025,4.5027,4.5122,4.5362,4.5699,4.5932,4.5676,4.563,4.552,4.5206,4.5176,4.5254,4.5254,4.5254,4.5211,4.5254,4.5211,4.5351,4.5644,4.5508,4.5273,5.4346,5.4371,5.4371,5.4371,5.4371,5.4371,5.4371,5.4235,5.3181,5.2955,5.3356,5.3432,5.3758,5.427,5.4346,5.4396,5.4471,5.4471,5.4522,0.0,5.4716,5.476,5.481,5.4966,5.5066,5.5066,5.5103,5.5103,5.4955,5.4955,5.4721,5.4241,5.3814,5.3193,5.2417,5.232,5.2284,5.2224,5.2176,5.2127,5.2127,5.1525,5.1007,5.055,5.0092,4.9576,4.9119,4.9143,4.9071,4.8998,4.8964,4.8974,4.8844,4.8459,4.8147,4.805,4.7642,4.7545,4.793,4.7954,4.8387,4.9359,4.9998,4.9686,4.8147,4.8363,4.87,4.8868,4.9047,4.9373,5.0215,5.0431,5.0792,5.161,5.1838,5.1693,5.1188,5.1151,5.1077,5.0815,5.0258,4.9849,4.9953,4.911,4.8644,4.8664,4.7878,4.6951,4.6667,4.6541,4.65,4.6227,4.56,4.4946,4.4661,4.4813,4.4901,4.4626,4.5058,4.5373,4.5307,4.5542,4.5695,4.5629,4.582,4.6035,4.6094,4.6133,4.6113,4.6113,4.6113,4.6172,4.625,4.6172,4.6113,5.4597,5.4597,5.4597,5.4597,5.4597,5.4597,5.4597,5.4572,5.4034,5.3934,5.4195,5.4195,5.4346,5.4597,5.4597,5.4666,5.4727,5.4727,5.4733,5.4814,5.4879,5.4893,5.4917,5.4955,5.5004,5.5004,5.5004,5.4892,5.4682,5.4682,5.4459,5.4098,5.3819,5.3527,5.3125,5.3125,5.3101,5.3101,5.2572,5.232,5.232,5.2079,5.1802,5.1562,5.1333,5.1092,5.0816,5.0816,5.0816,5.0851,5.0816,5.0816,5.0851,5.0635,5.0455,5.0455,5.0239,5.0191,5.0431,5.0455,5.0683,5.1164,5.1417,5.1273,5.0563,5.0442,5.0503,5.0803,5.0851,5.1008,5.1513,5.1562,5.179,5.2247,5.2076,5.1833,5.1626,5.1429,5.1178,5.0815,5.0472,5.0072,4.9695,4.8753,4.8079,4.8082,4.7013,4.6078,4.5637,4.5371,4.5267,4.5431,4.5048,4.468,4.446,4.4727,4.4996,4.5039,4.543,4.5683,4.5723,4.5918,4.5996,4.6016,4.6191,4.6387,4.6562,4.6641,4.6738,4.6973,4.6992,4.6992,4.6992,4.6992,4.6836,5.4938,5.4974,5.4974,5.4974,5.4974,5.4974,5.4974,5.4938,5.4867,5.4831,5.4806,5.4706,5.4706,5.4831,5.4724,5.4733,5.4852,5.484,5.4905,5.4979,5.493,5.4855,5.4855,5.4756,5.4744,5.4744,5.4744,5.457,5.4309,5.4248,5.4122,5.3822,5.3785,5.3785,5.3785,5.3785,5.3785,5.3737,5.3029,5.262,5.262,5.262,5.2572,5.2488,5.2451,5.2403,5.2283,5.232,5.232,5.232,5.232,5.232,5.232,5.232,5.232,5.232,5.232,5.232,5.232,5.2416,5.2488,5.2512,5.2572,5.2583,5.2485,5.2113,5.1994,5.2259,5.2223,5.2259,5.2269,5.2305,5.2353,5.2338,5.208,5.1771,5.1561,5.1203,5.0744,5.0452,5.0176,4.9734,4.9109,4.8309,4.7509,4.6788,4.5982,4.527,4.48,4.4411,4.4411,4.4634,4.4512,4.4322,4.4358,4.4726,4.5137,4.5648,4.5996,4.623,4.6348,4.6426,4.6523,4.6582,4.6621,4.6758,4.7012,4.707,4.7207,4.7422,4.748,4.7564,4.7545,4.7545,4.7383,5.6043,5.6068,5.6018,5.6068,5.5981,5.6006,5.5981,5.5945,5.5641,5.5495,5.5395,5.4997,5.5047,5.5433,5.5127,5.4943,5.4979,5.4967,5.4992,5.4905,5.4645,5.4434,5.4421,5.4122,5.3897,5.3935,5.3935,5.3972,5.3897,5.3897,5.3836,5.3822,5.3785,5.3785,5.3785,5.3785,5.3785,5.3785,5.3726,5.364,5.3678,5.3678,5.3461,5.3041,5.3041,5.2801,5.2416,5.232,5.232,5.232,5.2344,5.2344,5.2344,5.232,5.232,5.2344,5.2344,5.232,5.2368,5.2753,5.3041,5.3066,5.3389,5.3442,5.3128,5.3043,5.2787,5.2461,5.2307,5.2364,5.239,5.2387,5.2417,5.2472,5.2429,5.2219,5.1462,5.1009,5.0452,4.968,4.8969,4.8266,4.781,4.7031,4.6063,4.5087,4.4821,4.4472,4.4161,4.3996,4.4092,4.4327,4.4087,4.4067,4.4414,4.4766,4.5234,4.5688,4.6035,4.6426,4.6655,4.6811,4.6973,4.7168,4.7363,4.7383,4.748,4.7519,4.7539,4.7715,4.7779,4.7637,4.7643,4.7656,4.7578,5.6219,5.6219,5.6219,5.6047,5.5827,5.5852,5.5705,5.5485,5.5337,5.5263,5.5201,5.4734,5.482,5.5226,5.5078,5.4892,5.4645,5.4645,5.4496,5.4272,5.4122,5.4047,5.4047,5.3897,5.3785,5.3785,5.3785,5.3785,5.3785,5.3785,5.3785,5.3785,5.3785,5.3785,5.3785,5.3785,5.3785,5.3785,5.3785,5.3785,5.3785,5.3785,5.3726,5.3534,5.351,5.3413,5.3221,5.3197,5.3197,5.3173,5.3173,5.3173,5.3197,5.3197,5.3197,5.3197,5.3197,5.3197,5.3197,5.3389,5.351,5.351,5.3477,5.337,5.3181,5.2992,5.2703,5.2522,5.2465,5.2508,5.2486,5.2509,5.2452,5.226,5.2039,5.1555,5.0743,5.0238,4.959,4.8547,4.8071,4.7453,4.6588,4.5698,4.4883,4.4164,4.4,4.4035,4.4084,4.4101,4.4297,4.4629,4.459,4.4687,4.5039,4.5273,4.5586,4.5976,4.6406,4.6777,4.6914,4.7187,4.7383,4.7578,4.7637,4.7754,4.791,4.7969,4.8008,4.819,4.8366,4.8385,4.834,4.834,4.8385,5.6146,5.6036,5.5926,5.5705,5.5448,5.5448,5.5263,5.5004,5.4892,5.4855,5.4794,5.4397,5.4384,5.4645,5.4645,5.4496,5.4248,5.421,5.4061,5.3822,5.3785,5.3785,5.3785,5.3785,5.3785,5.3785,5.3785,5.3785,5.3785,5.3785,5.3785,5.3785,5.3785,5.3785,5.3785,5.3785,5.3894,5.4015,5.4039,5.4087,5.4231,5.4255,5.4111,5.3833,5.3785,5.3785,5.3785,5.3785,5.3785,5.3785,5.3785,5.3785,5.3785,5.3785,5.3785,5.3785,5.3785,5.3785,5.3785,5.3785,5.3747,5.3634,5.3332,5.303,5.2726,5.2459,5.2092,5.1685,5.1747,5.1739,5.2268,5.2054,5.1747,5.1385,5.096,5.0377,4.9533,4.9061,4.8392,4.7441,4.7122,4.6778,4.5861,4.5098,4.4496,4.4224,4.4121,4.416,4.4473,4.459,4.4726,4.5117,4.5195,4.5312,4.5605,4.5625,4.5879,4.6348,4.6758,4.6973,4.7187,4.7578,4.7871,4.8086,4.7994,4.8053,4.8346,4.8398,4.8418,4.8757,4.8874,4.8855,4.8796,4.8874,4.8874,5.5962,5.5595,5.5226,5.5078,5.5041,5.5041,5.5004,5.4892,5.457,5.4434,5.436,5.401,5.386,5.3897,5.3935,5.386,5.386,5.386,5.386,5.3785,5.3785,5.3785,5.3785,5.3785,5.3785,5.3785,5.3785,5.3809,5.3809,5.3809,5.3785,5.3846,5.3918,5.3833,5.3881,5.3942,5.4087,5.452,5.4568,5.4784,5.5217,5.5289,5.4784,5.4015,5.3809,5.3857,5.3809,5.3809,5.3809,5.3785,5.3785,5.3785,5.3785,5.3785,5.3785,5.3785,5.3785,5.3785,5.3785,5.3747,5.3596,5.3318,5.3153,5.2711,5.184,5.1577,5.1097,4.9892,4.9919,5.0272,5.109,5.0779,5.021,4.9801,4.9346,4.8775,4.7896,4.7602,4.696,4.6475,4.6124,4.5852,4.5688,4.5258,4.4967,4.4863,4.4922,4.4941,4.4918,4.5,4.5195,4.5508,4.5664,4.5664,4.5703,4.5879,4.6172,4.6601,4.6973,4.7226,4.7754,4.8223,4.8418,4.864,4.862,4.8679,4.8815,4.8855,4.8815,4.8894,4.8894,4.8894,4.8894,4.8894,4.8894,5.5337,5.5226,5.5078,5.4855,5.4608,5.4608,5.4459,5.4234,5.4085,5.401,5.401,5.386,5.3785,5.3785,5.3785,5.3785,5.3785,5.3785,5.3785,5.3785,5.3785,5.3785,5.3785,5.3785,5.3785,5.3785,5.3785,5.3953,5.4303,5.4327,5.4496,5.4784,5.4832,5.4832,5.4832,5.4832,5.4928,5.5097,5.5121,5.5217,5.5409,5.5385,5.5193,5.4856,5.4832,5.4664,5.4327,5.4327,5.4159,5.3809,5.3785,5.3785,5.3785,5.3785,5.3785,5.3785,5.3559,5.3408,5.337,5.3181,5.2992,5.2825,5.261,5.2333,5.1835,5.1396,5.0863,5.0343,4.9518,4.9459,4.9635,4.9759,4.9595,4.9192,4.8973,4.8383,4.7525,4.7093,4.67,4.605,4.5544,4.5244,4.5317,4.5124,4.5039,4.5039,4.5039,4.5176,4.5391,4.5449,4.5586,4.5996,4.6308,4.6484,4.6484,4.6484,4.6641,4.6953,4.7285,4.7715,4.8183,4.8535,4.8769,4.8933,4.9031,4.905,4.9089,4.9089,4.907,4.9031,4.9031,4.9089,4.8894,4.9089,4.9031,5.5332,5.5295,5.5158,5.497,5.4743,5.4743,5.4554,5.4327,5.4327,5.4327,5.4327,5.4327,5.4327,5.4327,5.4327,5.4327,5.4303,5.4159,5.4063,5.4049,5.4255,5.4327,5.4327,5.4327,5.4327,5.4327,5.4327,5.452,5.4808,5.488,5.5049,5.5361,5.5385,5.5385,5.5385,5.5385,5.5458,5.5602,5.5674,5.5746,5.589,5.5914,5.5914,5.5914,5.5914,5.5578,5.4904,5.4856,5.4712,5.4399,5.4327,5.4251,5.4137,5.4099,5.4023,5.3909,5.3666,5.3412,5.3321,5.3028,5.2759,5.2488,5.2127,5.1821,5.1526,5.0898,5.0365,4.9775,4.9161,4.8481,4.84,4.8583,4.8642,4.8336,4.817,4.7693,4.6752,4.6584,4.6307,4.5854,4.5648,4.5472,4.5449,4.5449,4.5469,4.5449,4.5449,4.5586,4.5801,4.5898,4.6035,4.6426,4.6655,4.6914,4.709,4.7187,4.7324,4.7598,4.7734,4.8144,4.8613,4.8906,4.9101,4.9246,4.9304,4.9324,4.9324,4.9324,4.9304,4.9285,4.9441,4.9597,4.9461,4.9402,4.9402,5.5963,5.5876,5.554,5.5366,5.528,5.5318,5.5376,5.5265,5.5251,5.5164,5.5116,5.5251,5.5063,5.5236,5.5063,5.5275,5.513,5.478,5.4626,5.4664,5.5073,5.5265,5.5265,5.5217,5.5217,5.5241,5.5337,5.5361,5.5409,5.5409,5.5458,5.5458,5.5554,5.5602,5.5458,5.5578,5.5746,5.6131,5.6188,5.6428,5.6925,5.69,5.6813,5.6821,5.6821,5.6365,5.5404,5.5371,5.5284,5.5236,5.5212,5.5129,5.4685,5.4607,5.4483,5.41,5.3991,5.3802,5.3425,5.326,5.274,5.2144,5.1675,5.1134,5.049,4.9965,4.9249,4.8338,4.7879,4.7543,4.7212,4.7168,4.7196,4.7,4.6894,4.6492,4.5987,4.5758,4.5726,4.5797,4.5937,4.625,4.6269,4.6152,4.6113,4.6113,4.6191,4.623,4.6308,4.6367,4.6523,4.6816,4.7065,4.7344,4.7637,4.791,4.8086,4.8262,4.834,4.8574,4.9141,4.9512,4.9609,4.9707,4.9813,4.9832,4.9813,4.9813,4.9891,4.991,5.0047,4.998,4.991,4.9832,4.9949,5.5603,5.5564,5.5448,5.5385,5.5385,5.5385,5.5385,5.5347,5.5138,5.4983,5.4944,5.4671,5.4492,5.4515,5.4492,5.4671,5.4983,5.515,5.5234,5.5188,5.5337,5.5433,5.5409,5.5409,5.5385,5.5385,5.5385,5.5602,5.5875,5.5923,5.6131,5.6444,5.6452,5.6476,5.6428,5.6516,5.6596,5.6692,5.678,5.6837,5.7021,5.6981,5.6861,5.6622,5.6606,5.6271,5.566,5.5541,5.5184,5.4578,5.4492,5.4414,5.4281,5.4046,5.3849,5.3652,5.3099,5.2599,5.2161,5.1863,5.1523,5.098,5.0712,5.0394,4.9902,4.9448,4.8921,4.8178,4.7601,4.7101,4.6985,4.6702,4.6686,4.6955,4.6849,4.6571,4.6245,4.6115,4.6107,4.6118,4.623,4.6289,4.6308,4.6328,4.6387,4.6406,4.6582,4.6694,4.6758,4.6953,4.7187,4.7363,4.7578,4.7812,4.8144,4.8535,4.8867,4.8984,4.9062,4.916,4.9668,4.998,5.0078,5.0215,5.0254,5.0321,5.0301,5.0321,5.0332,5.0273,5.0234,5.0195,5.0223,5.0301,5.0371,5.6011,5.6011,5.5987,5.5987,5.5947,5.5854,5.5776,5.5697,5.532,5.5123,5.5067,5.4672,5.4569,5.4648,5.4529,5.4727,5.517,5.5518,5.5589,5.5603,5.5869,5.6011,5.5947,5.5854,5.5634,5.5556,5.5516,5.5683,5.6017,5.6041,5.6208,5.647,5.6518,5.6494,5.6518,5.6518,5.6518,5.6518,5.6518,5.6613,5.674,5.6788,5.6762,5.6685,5.6547,5.6197,5.5807,5.5422,5.4973,5.4534,5.433,5.4131,5.3972,5.3595,5.3251,5.2969,5.2444,5.1793,5.1177,5.0936,5.0418,4.9882,4.9658,4.9491,4.9132,4.8806,4.8372,4.7854,4.7358,4.692,4.6745,4.664,4.6655,4.6938,4.6962,4.6909,4.6763,4.6777,4.6777,4.6797,4.6816,4.6777,4.6777,4.6777,4.6777,4.6836,4.6992,4.7168,4.7226,4.7402,4.7578,4.7773,4.7949,4.8262,4.8645,4.9075,4.9543,4.9746,4.9824,4.9961,5.0273,5.0391,5.0488,5.0723,5.084,5.0859,5.0859,5.0801,5.082,5.0664,5.0566,5.0723,5.082,5.0781,5.084,5.6957,5.6981,5.6917,5.6805,5.6726,5.6406,5.6183,5.6174,5.5725,5.5413,5.5339,5.4783,5.487,5.52,5.4639,5.476,5.5466,5.5396,5.5436,5.5654,5.6135,5.6455,5.651,5.6271,5.5968,5.5711,5.5694,5.5661,5.5637,5.5661,5.5651,5.5651,5.5611,5.5611,5.5611,5.5611,5.5611,5.5611,5.5658,5.5939,5.6362,5.6456,5.6561,5.6877,5.6462,5.6021,5.5496,5.4671,5.4417,5.4786,5.4316,5.3879,5.3596,5.3183,5.2594,5.2199,5.1787,5.1052,5.0463,5.0146,4.9786,4.8979,4.8635,4.8329,4.8268,4.7964,4.7571,4.7094,4.6979,4.6804,4.6596,4.6738,4.6953,4.7012,4.7056,4.7173,4.7525,4.75,4.7422,4.7461,4.7603,4.7603,4.7506,4.7506,4.748,4.75,4.7519,4.7598,4.7656,4.7773,4.7891,4.8105,4.8379,4.8691,4.9075,4.9668,5.0098,5.0254,5.0391,5.0605,5.0723,5.0801,5.0859,5.1113,5.125,5.1328,5.1328,5.1211,5.1191,5.1133,5.1143,5.1358,5.1319,5.1162,5.1104,5.6821,5.6542,5.6542,5.6382,5.6077,5.5916,5.5715,5.5392,5.4922,5.4393,5.382,5.3326,5.3037,5.2807,5.3078,5.3367,5.382,5.4171,5.4498,5.4742,5.4946,5.5473,5.5933,5.5956,5.5772,5.5611,5.549,5.553,5.527,5.5125,5.4986,5.4783,5.4661,5.4678,5.4742,5.4678,5.4719,5.4788,5.5071,5.5255,5.5463,5.5791,5.5896,5.5675,5.528,5.4792,5.4302,5.3124,5.2843,5.3499,5.3143,5.2904,5.2649,5.1777,5.114,5.0929,5.0231,4.9508,4.9122,4.8994,4.8693,4.8113,4.7998,4.7745,4.7378,4.7268,4.6963,4.6654,4.6719,4.691,4.6836,4.7148,4.748,4.7773,4.7617,4.75,4.7598,4.7623,4.7623,4.7623,4.7662,4.7701,4.7701,4.7701,4.7701,4.7695,4.7871,4.8047,4.8086,4.834,4.8535,4.8711,4.8945,4.9219,4.9543,5.0137,5.0527,5.0703,5.0898,5.1084,5.1143,5.1162,5.1221,5.1338,5.1299,5.1338,5.1358,5.1299,5.1377,5.1397,5.1397,5.1397,5.1397,5.1299,5.128,5.6502,5.6077,5.594,5.5674,5.5409,5.5067,5.4661,5.4252,5.3738,5.3161,5.2498,5.1831,5.1621,5.1725,5.1621,5.1956,5.2539,5.2811,5.3037,5.3243,5.3285,5.3861,5.4638,5.4905,5.48,5.4556,5.4434,5.4148,5.3902,5.3779,5.3532,5.3285,5.3285,5.3285,5.3243,5.3285,5.3285,5.3311,5.3715,5.403,5.43,5.4772,5.5003,5.4773,5.4321,5.3604,5.2686,5.1806,5.179,5.2238,5.1917,5.1508,5.1444,5.0607,5.0072,5.0029,4.9401,4.8856,4.8443,4.8356,4.8157,4.7782,4.7674,4.7498,4.7341,4.7233,4.7101,4.7003,4.709,4.7168,4.7266,4.7578,4.8027,4.834,4.8262,4.817,4.8151,4.8209,4.817,4.817,4.8151,4.8105,4.817,4.8151,4.8151,4.8209,4.8359,4.8457,4.8561,4.8933,4.916,4.9258,4.9492,4.9785,5.0019,5.0488,5.082,5.1016,5.1084,5.1358,5.1397,5.1397,5.1377,5.1377,5.1377,5.1397,5.1397,5.1397,5.1397,5.1397,5.1397,5.1397,5.1397,5.1397,5.1397,5.5997,5.553,5.5085,5.4864,5.462,5.3925,5.3266,5.2788,5.2373,5.1831,5.1202,5.057,5.057,5.1309,5.0613,5.0804,5.1523,5.161,5.1585,5.1606,5.1646,5.2086,5.2894,5.3431,5.3367,5.3078,5.2539,5.2373,5.2248,5.1851,5.1558,5.1474,5.1432,5.1432,5.1432,5.1432,5.1432,5.1541,5.1976,5.241,5.2866,5.3343,5.3756,5.3884,5.3284,5.2324,5.14,5.0878,5.1042,5.1471,5.0663,5.0378,5.0246,4.9828,4.9505,4.9355,4.9001,4.8533,4.83,4.8176,4.8057,4.7704,4.7634,4.7623,4.757,4.7531,4.7531,4.7467,4.7643,4.7676,4.7812,4.8086,4.8424,4.8737,4.8835,4.8874,4.8894,4.8894,4.8894,4.8894,4.8874,4.8894,4.8952,4.8972,4.8972,4.905,4.9148,4.9121,4.9246,4.9441,4.957,4.9629,4.9941,5.0351,5.0586,5.084,5.1074,5.1221,5.124,5.1397,5.1397,5.1397,5.1397,5.1397,5.1397,5.1397,5.1397,5.1397,5.1397,5.1397,5.1397,5.1397,5.1397,5.1397,5.1397,5.5108,5.462,5.3861,5.3326,5.2913,5.2415,5.1705,5.1013,5.0929,5.0294,4.9378,4.9238,4.9252,4.9163,4.9605,4.9898,5.0186,5.0426,5.045,5.0138,5.0138,5.0036,5.0549,5.1435,5.2062,5.1914,5.1892,5.1474,5.0949,5.0654,5.0294,4.9658,4.97,4.9593,4.9615,4.97,4.9572,4.9719,5.0411,5.0916,5.1188,5.1883,5.2345,5.2381,5.184,5.1227,5.0545,5.0088,4.9942,5.0015,4.9999,4.9903,4.9671,4.9096,4.8752,4.8663,4.8265,4.7932,4.7842,4.7836,4.7732,4.7721,4.774,4.7623,4.7623,4.7637,4.7617,4.7656,4.7871,4.8183,4.8483,4.8679,4.8776,4.8874,4.8894,4.8894,4.8894,4.8894,4.8894,4.8894,4.8933,4.8984,4.9316,4.9355,4.9492,4.9832,4.991,4.993,4.9949,4.9922,5.0,5.0039,5.0391,5.0742,5.0859,5.1055,5.1162,5.1319,5.1358,5.1397,5.1397,5.1397,5.1397,5.1397,5.1397,5.1397,5.1397,5.1397,5.1397,5.1397,5.1397,5.1397,5.1397,5.1397,5.1397,5.3902,5.339,5.2469,5.199,5.1675,5.1231,5.0652,5.0092,5.0005,4.955,4.8827,4.8699,4.8647,4.8643,4.8888,4.9102,4.9344,4.9566,4.9576,4.9436,4.9395,4.9273,4.9153,4.9813,5.044,5.0422,5.021,4.9828,4.9551,4.9273,4.8887,4.8458,4.8415,4.8458,4.8372,4.8372,4.8415,4.8578,4.9249,4.9763,4.9906,5.0621,5.0955,5.0818,5.0519,5.0168,4.9901,4.969,4.9715,4.9821,4.9888,4.9709,4.9352,4.8867,4.8612,4.8547,4.8411,4.8229,4.8229,4.8229,4.8249,4.8209,4.8229,4.8229,4.8209,4.8209,4.8209,4.8223,4.8398,4.8633,4.8874,4.8894,4.8894,4.8894,4.8894,4.8894,4.8894,4.8913,4.8894,4.8952,4.9062,4.9238,4.9453,4.9707,4.9863,5.0078,5.0078,5.0098,5.0156,5.0215,5.041,5.0547,5.0879,5.1094,5.1152,5.1201,5.1299,5.1358,5.1377,5.1397,5.1397,5.1397,5.1397,5.1397,5.1397,5.1397,5.1397,5.1397,5.1397,5.1397,5.1397,5.1397,5.1397,5.1397,5.1397,5.2567,5.211,5.121,5.08,5.0734,5.0285,4.9837,4.9436,4.9413,4.911,4.8806,4.84,4.8529,4.8748,4.8578,4.8648,4.8892,4.9002,4.9067,4.8862,4.8886,4.8786,4.8731,4.8808,4.8895,4.8769,4.8874,4.8637,4.8319,4.7912,4.7845,4.7568,4.7485,4.7485,4.7485,4.7485,4.7545,4.7745,4.8386,4.8886,4.9027,4.9708,4.9905,4.9855,4.9716,4.9749,4.9765,4.9742,4.9813,5.0184,5.0223,4.9813,4.9343,4.9109,4.9109,4.9109,4.9109,4.905,4.8906,4.8906,4.8887,4.8933,4.8874,4.8874,4.8835,4.8776,4.8757,4.8796,4.8855,4.8855,4.8894,4.8894,4.8894,4.8894,4.8894,4.8894,4.8913,4.8952,4.905,4.9043,4.9258,4.9492,4.9824,5.0117,5.0234,5.0351,5.0351,5.0371,5.0449,5.0547,5.0762,5.0898,5.1152,5.1201,5.126,5.126,5.1377,5.1397,5.1397,5.1397,5.1397,5.1397,5.1397,5.1397,5.1397,5.1397,5.1397,5.1397,5.1397,5.1397,5.1397,5.1397,5.1397,5.1397,5.1397,5.1317,5.1124,5.0204,4.982,4.9796,4.9388,4.9025,4.8563,4.8623,4.8251,4.7971,4.813,4.8287,4.8411,4.8725,4.8843,4.8882,4.8888,4.8744,4.8527,4.8449,4.835,4.8159,4.8204,4.8032,4.8048,4.8413,4.8494,4.791,4.761,4.7359,4.6756,4.6693,4.6693,4.6756,4.6547,4.6934,4.7253,4.7765,4.8114,4.8468,4.898,4.9452,4.9503,4.9561,4.9742,5.0008,5.0078,5.0098,5.0223,5.0223,5.0164,5.0,5.0008,4.9969,4.9891,4.9871,4.9687,4.9473,4.9414,4.9199,4.9011,4.8952,4.8913,4.8913,4.8894,4.8894,4.8894,4.8894,4.8894,4.8894,4.8894,4.8894,4.8894,4.8952,4.8952,4.9011,4.918,4.9433,4.9512,4.9629,4.9785,5.0176,5.0527,5.0723,5.084,5.0898,5.0937,5.0996,5.1026,5.1162,5.124,5.1319,5.1358,5.1358,5.1358,5.1397,5.1397,5.1397,5.1397,5.1397,5.1397,5.1397,5.1397,5.1397,5.1397,5.1397,5.1397,5.1397,5.1397,5.1397,5.1397,5.1397,5.1397,5.1397,5.0106,5.0204,4.953,4.9221,4.9192,4.9051,4.8833,4.8652,4.8606,4.847,4.8392,4.8457,4.8555,4.864,4.8776,4.8894,4.8913,4.8894,4.8776,4.8555,4.8535,4.8476,4.8288,4.8268,4.8288,4.8424,4.8723,4.8483,4.7681,4.7622,4.7351,4.714,4.6973,4.6973,4.6973,4.7056,4.7051,4.7344,4.7676,4.7988,4.8281,4.8828,4.9316,4.9512,4.9785,5.0078,5.041,5.0508,5.0625,5.0801,5.084,5.082,5.0801,5.0762,5.0625,5.0293,5.0262,5.0117,4.9902,4.9844,4.9668,4.9277,4.9199,4.9109,4.8972,4.8894,4.8894,4.8894,4.8894,4.8894,4.8894,4.8894,4.8894,4.8952,4.9043,4.918,4.9297,4.9629,4.9863,5.0058,5.0254,5.041,5.0586,5.0918,5.1123,5.128,5.1377,5.1397,5.1397,5.1397,5.1397,5.1377,5.1377,5.1377,5.1397,5.1397,5.1397,5.1397,5.1397,5.1397,5.1397,5.1397,5.1397,5.1397,5.1397,5.1397,5.1397,5.1397,5.1397,5.1397,5.1397,5.1397,5.1397,5.1397,5.1397,4.9186,4.9397,4.9051,4.8887,4.89,4.8875,4.8874,4.8894,4.8874,4.8913,4.9031,4.8984,4.8984,4.9011,4.8952,4.8933,4.9011,4.905,4.9109,4.9226,4.9206,4.9167,4.905,4.9031,4.8933,4.8737,4.8822,4.8503,4.7922,4.7805,4.7701,4.75,4.7584,4.7623,4.7564,4.7486,4.7578,4.7793,4.8008,4.8242,4.8633,4.9121,4.9601,4.9738,5.0117,5.0508,5.0879,5.0937,5.1055,5.1201,5.1319,5.1338,5.1377,5.1377,5.1065,5.0566,5.0449,5.0391,5.0312,5.0293,5.0117,4.9707,4.957,4.9336,4.9101,4.9011,4.8894,4.8894,4.8894,4.8894,4.8894,4.8894,4.8972,4.9082,4.9316,4.9523,4.9746,5.0019,5.0351,5.0586,5.082,5.0957,5.1035,5.1094,5.128,5.1299,5.1397,5.1397,5.1397,5.1397,5.1397,5.1397,5.1377,5.1377,5.1397,5.1397,5.1397,5.1397,5.1397,5.1397,5.1397,5.1397,5.1397,5.1397,5.1397,5.1397,5.1397,5.1397,5.1397,5.1397,5.1397,5.1397,5.1397,5.1397,5.1397,4.8946,4.8981,4.8915,4.8881,4.8908,4.8874,4.8913,4.8913,4.8952,4.9101,4.9453,4.9453,4.9453,4.9394,4.9109,4.9141,4.9355,4.9453,4.959,4.9852,4.991,4.9707,4.9492,4.9453,4.9258,4.9148,4.9031,4.8594,4.832,4.8223,4.7949,4.7799,4.7779,4.7662,4.7754,4.7838,4.7773,4.8086,4.8203,4.8613,4.9238,4.9512,4.9961,5.041,5.0703,5.0898,5.123,5.1221,5.1319,5.1338,5.1397,5.1397,5.1397,5.1397,5.1358,5.126,5.1201,5.1113,5.0801,5.0723,5.0547,5.0137,4.9824,4.957,4.9336,4.9101,4.8972,4.8894,4.8933,4.9011,4.905,4.8991,4.9082,4.9336,4.9609,4.9863,5.0058,5.0449,5.0801,5.0898,5.1074,5.1162,5.128,5.1319,5.1377,5.1377,5.1397,5.1397,5.1397,5.1397,5.1397,5.1397,5.1397,5.1397,5.1397,5.1397,5.1397,5.1397,5.1397,5.1397,5.1397,5.1397,5.1397,5.1397,5.1397,5.1397,5.1397,5.1397,5.1397,5.1397,5.1397,5.1397,5.1397,5.1397,5.1397,4.8895,4.8915,4.8862,4.8894,4.8894,4.8894,4.905,4.9219,4.9238,4.9492,4.9844,4.9902,4.9902,4.9844,4.9715,4.9707,4.9883,4.9902,4.998,5.0176,5.0195,5.0098,4.9941,4.9902,4.9746,4.9656,4.9637,4.9676,4.9219,4.8789,4.8483,4.8385,4.8346,4.8385,4.8262,4.8346,4.8444,4.8613,4.8848,4.9277,4.9785,5.0137,5.043,5.0801,5.1035,5.125,5.1319,5.1397,5.1397,5.1397,5.1397,5.1397,5.1397,5.1397,5.1377,5.1377,5.1377,5.128,5.1143,5.1152,5.0918,5.0644,5.0312,5.0078,4.9621,4.9375,4.9238,4.9238,4.9238,4.9316,4.9512,4.9656,4.9707,4.9863,5.0019,5.0254,5.0527,5.0898,5.1143,5.1201,5.124,5.1319,5.1397,5.1397,5.1397,5.1397,5.1397,5.1397,5.1397,5.1397,5.1397,5.1397,5.1397,5.1397,5.1397,5.1397,5.1397,5.1397,5.1397,5.1397,5.1397,5.1397,5.1397,5.1397,5.1397,5.1397,5.1397,5.1397,5.1397,5.1397,5.1397,5.1397,5.1397,5.1397,5.1397,4.9226,4.9206,4.9011,4.8952,4.907,4.9023,4.9277,4.9668,4.9687,4.9941,5.0254,5.0332,5.0332,5.0293,5.0215,5.0156,5.0332,5.0332,5.041,5.0449,5.0469,5.0449,5.0371,5.0332,5.0273,5.0223,5.0086,5.0086,4.993,4.9617,4.9265,4.9206,4.9004,4.9004,4.905,4.9004,4.9043,4.9304,4.9512,4.9883,5.0293,5.0605,5.0801,5.1016,5.123,5.1397,5.1397,5.1397,5.1397,5.1397,5.1397,5.1397,5.1397,5.1397,5.1397,5.1397,5.1397,5.1377,5.1338,5.1299,5.1201,5.1055,5.0781,5.041,4.9863,4.9687,4.9687,4.9687,4.9687,4.9863,5.0058,5.0164,5.0195,5.0312,5.0547,5.0762,5.0976,5.1143,5.128,5.1299,5.1319,5.1338,5.1397,5.1397,5.1397,5.1397,5.1397,5.1377,5.1377,5.1328,5.1348,5.1328,5.1328,5.1328,5.1377,5.1377,5.1397,5.1397,5.1397,5.1397,5.1397,5.1397,5.1397,5.1397,5.1397,5.1397,5.1397,5.1397,5.1397,5.1397,5.1397,5.1397,5.1397,5.1397,5.1397,5.0125,5.0067,4.9265,4.9141,4.9473,4.9473,4.9726,5.0117,5.0137,5.0371,5.0742,5.0762,5.0762,5.0683,5.0488,5.0488,5.0762,5.0762,5.0937,5.1172,5.126,5.1035,5.0859,5.0723,5.0605,5.0379,5.0371,5.0332,5.0262,5.0254,5.0078,5.0039,4.9668,4.9531,4.9492,4.9492,4.9687,4.9902,5.0098,5.0332,5.0644,5.0859,5.0996,5.124,5.1358,5.1397,5.1397,5.1397,5.1397,5.1397,5.1397,5.1397,5.1397,5.1397,5.1397,5.1397,5.1397,5.1397,5.1397,5.1397,5.1377,5.124,5.1055,5.0683,5.0195,5.0137,5.0184,5.0137,5.0137,5.0195,5.0234,5.0282,5.0527,5.0703,5.0898,5.1016,5.1172,5.124,5.1358,5.1377,5.1397,5.1397,5.1397,5.1397,5.1397,5.1397,5.1377,5.1377,5.1231,5.1231,5.1231,5.1231,5.1231,5.128,5.1328,5.1328,5.1231,5.1328,5.1397,5.1397,5.1397,5.1397,5.1377,5.1397,5.1397,5.1397,5.1397,5.1397,5.1397,5.1397,5.1397,5.1397,5.1397,5.1397,5.1397,5.0223,5.0137,4.9852,4.9766,4.9922,4.9922,5.0176,5.0527,5.0566,5.0801,5.1172,5.1143,5.1143,5.1084,5.1074,5.1016,5.1172,5.1143,5.126,5.1319,5.1338,5.128,5.1143,5.1104,5.1113,5.0937,5.0918,5.0937,5.0976,5.0859,5.0937,5.0762,5.0254,5.0,4.9922,4.9941,5.0176,5.0449,5.0586,5.0781,5.1094,5.1191,5.1221,5.1338,5.1377,5.1397,5.1397,5.1397,5.1397,5.1397,5.1397,5.1397,5.1397,5.1397,5.1397,5.1397,5.1397,5.1397,5.1397,5.1397,5.1397,5.1358,5.1201,5.0967,5.0605,5.0566,5.0566,5.0566,5.0566,5.0605,5.0918,5.0957,5.1074,5.1104,5.1162,5.1289,5.128,5.1358,5.128,5.128,5.1328,5.1397,5.1397,5.1397,5.1397,5.1377,5.1377,5.128,5.1085,5.0939,5.089,5.0812,5.0763,5.0842,5.091,5.1007,5.1085,5.1183,5.1299,5.1202,5.1153,5.1377,5.1377,5.1377,5.1299,5.1251,5.1251,5.1348,5.1377,5.1377,5.1377,5.1397,5.1397,5.1397,5.1397,5.0547,5.0547,5.0547,5.0488,5.0371,5.0371,5.0605,5.0957,5.0996,5.1133,5.1377,5.1397,5.1397,5.1397,5.1377,5.1358,5.1338,5.1358,5.1377,5.1397,5.1397,5.1397,5.1397,5.1358,5.1319,5.1397,5.1397,5.1338,5.1299,5.1377,5.1319,5.1123,5.0879,5.0586,5.0371,5.0391,5.0586,5.0879,5.1016,5.1094,5.1358,5.1358,5.1358,5.1377,5.1377,5.1397,5.1397,5.1397,5.1397,5.1397,5.1397,5.1397,5.1397,5.1397,5.1397,5.1397,5.1397,5.1397,5.1397,5.1397,5.1397,5.1377,5.1377,5.1201,5.1074,5.0996,5.0996,5.0996,5.1016,5.1065,5.1348,5.1299,5.126,5.128,5.128,5.1338,5.1338,5.1397,5.1231,5.1134,5.1134,5.1037,5.0812,5.0763,5.089,5.0842,5.0763,5.0666,5.0568,5.0421,5.0323,5.0225,5.0127,5.0274,5.0421,5.047,5.0519,5.0568,5.0666,5.0714,5.0763,5.0988,5.0988,5.0763,5.0714,5.091,5.0861,5.0714,5.0988,5.1377,5.1328,5.128,5.1397,5.1397,5.1397,5.1319,5.1358,5.1319,5.1084,5.0801,5.0801,5.1016,5.1328,5.1319,5.1338,5.1377,5.1397,5.1397,5.1397,5.1397,5.1397,5.1397,5.1397,5.1397,5.1397,5.1397,5.1397,5.1397,5.1397,5.1397,5.1397,5.1397,5.1397,5.1397,5.1397,5.1397,5.1397,5.1201,5.1074,5.082,5.0801,5.1016,5.1299,5.1319,5.1338,5.1358,5.1397,5.1397,5.1397,5.1397,5.1397,5.1397,5.1397,5.1397,5.1397,5.1397,5.1397,5.1397,5.1397,5.1397,5.1397,5.1397,5.1397,5.1397,5.1377,5.1328,5.1328,5.1328,5.1221,5.1289,5.1289,5.1085,5.0881,5.1037,5.1173,5.1299,5.1299,5.1251,5.1153,5.1153,5.1105,5.1056,5.1056,5.0861,5.0714,5.0646,5.0549,5.0225,5.0029,5.0274,5.0255,5.0127,4.998,4.9931,4.9882,4.9784,4.9538,4.944,4.9686,4.9784,4.9882,4.9931,4.9931,5.0078,5.0274,5.0274,5.0323,5.0225,5.0078,5.0176,5.0421,5.0225,4.998,5.0421,5.0842,5.1085,5.1134,5.128,5.1251,5.1105,5.1397,5.1397,5.1397,5.1299,5.123,5.123,5.126,5.1426,5.1397,5.1397,5.1397,5.1397,5.1397,5.1397,5.1397,5.1397,5.1397,5.1397,5.1397,5.1397,5.1397,5.1397,5.1397,5.1397,5.1397,5.1397,5.1397,5.1397,5.1397,5.1397,5.1397,5.1397,5.1377,5.1319,5.125,5.123,5.1328,5.1358,5.1377,5.1377,5.1397,5.1397,5.1397,5.1397,5.1397,5.1397,5.1397,5.1397,5.1397,5.1397,5.1397,5.1397,5.1397,5.1397,5.1397,5.1397,5.1397,5.1397,5.128,5.1183,5.1085,5.1134,5.1085,5.0939,5.0939,5.0568,5.047,5.047,5.0568,5.0519,5.0372,5.0372,5.0323,5.0323,5.0323,5.0323,5.0274,5.0323,5.0225,5.0176,5.0127,5.0078,4.9833,4.9489,4.9569,4.9716,4.9587,4.9489,4.944,4.9341,4.9224,4.8879,4.8731,4.8978,4.9194,4.9341,4.9538,4.9637,4.9784,4.998,4.9931,4.9735,4.9784,4.9735,4.9833,4.9882,4.9735,4.9637,4.9931,5.0274,5.0353,5.0519,5.0617,5.047,5.0323,5.1397,5.1397,5.1397,5.1397,5.1397,5.1397,5.1397,5.1397,5.1397,5.1397,5.1397,5.1397,5.1397,5.1397,5.1397,5.1397,5.1397,5.1397,5.1397,5.1397,5.1397,5.1397,5.1397,5.1397,5.1397,5.1397,5.1397,5.1397,5.1397,5.1397,5.1397,5.1397,5.1397,5.1377,5.1358,5.1358,5.1358,5.1397,5.1397,5.1397,5.1397,5.1397,5.1397,5.1397,5.1397,5.1397,5.1397,5.1397,5.1397,5.1397,5.1397,5.1397,5.1397,5.1397,5.1397,5.1397,5.1231,5.1183,5.1037,5.0666,5.0617,5.0714,5.0568,5.047,5.0421,5.0176,5.0029,4.998,4.9833,4.9882,4.9833,4.9833,4.9784,4.9833,4.9833,4.9833,4.9882,4.9882,4.9784,4.9754,4.9637,4.9587,4.944,4.9144,4.8879,4.8978,4.9076,4.8978,4.8928,4.8879,4.883,4.8583,4.8335,4.8583,4.878,4.8799,4.9046,4.9292,4.944,4.9489,4.9292,4.9027,4.9243,4.9391,4.9243,4.9194,4.9243,4.9341,4.9372,4.9391,4.9341,4.9538,4.9784,4.9833,4.9735,5.1397,5.1397,5.1397,5.1397,5.1397,5.1397,5.1397,5.1397,5.1397,5.1397,5.1397,5.1397,5.1397,5.1397,5.1397,5.1397,5.1397,5.1397,5.1397,5.1397,5.1397,5.1397,5.1397,5.1397,5.1397,5.1397,5.1397,5.1397,5.1397,5.1397,5.1397,5.1397,5.1397,5.1397,5.1397,5.1397,5.1397,5.1397,5.1397,5.1397,5.1397,5.1397,5.1397,5.1397,5.1397,5.1397,5.1397,5.1397,5.1397,5.1397,5.1397,5.1397,5.1397,5.1397,5.1377,5.1231,5.0939,5.0793,5.0568,5.0176,4.9931,4.998,4.9833,4.9833,4.9833,4.9686,4.9489,4.9538,4.9489,4.9637,4.9686,4.9637,4.9637,4.9637,4.9637,4.9637,4.9637,4.9587,4.9391,4.9292,4.9144,4.8978,4.8731,4.8434,4.8533,4.8583,4.8682,4.8632,4.8583,4.8533,4.8484,4.8484,4.8335,4.8335,4.8385,4.8484,4.8583,4.8879,4.8731,4.8731,4.8484,4.8533,4.8682,4.878,4.8484,4.8484,4.8731,4.8682,4.8533,4.8533,4.8682,4.8879,4.9243,4.944,4.944,5.1397,5.1397,5.1397,5.1397,5.1397,5.1397,5.1397,5.1397,5.1397,5.1397,5.1397,5.1397,5.1397,5.1397,5.1397,5.1397,5.1397,5.1397,5.1397,5.1397,5.1397,5.1397,5.1397,5.1397,5.1397,5.1397,5.1397,5.1397,5.1397,5.1397,5.1397,5.1397,5.1397,5.1397,5.1397,5.1397,5.1397,5.1397,5.1397,5.1397,5.1397,5.1397,5.1397,5.1397,5.1397,5.1397,5.1397,5.1397,5.1397,5.1397,5.1397,5.1397,5.1397,5.1377,5.1328,5.0939,5.0695,5.0568,5.0127,4.9637,4.9341,4.9224,4.9027,4.9076,4.9095,4.9076,4.8879,4.8978,4.8996,4.9046,4.9095,4.9027,4.9027,4.9027,4.9027,4.9046,4.9095,4.9046,4.8898,4.883,4.8682,4.8632,4.8335,4.8335,4.8385,4.8335,4.8335,4.8335,4.8335,4.8335,4.8335,4.8335,4.8335,4.8335,4.8335,4.8385,4.8335,4.8335,4.8335,4.8335,4.8385,4.8385,4.8335,4.8335,4.8335,4.8335,4.8385,4.8335,4.8335,4.8335,4.8434,4.8533,4.8682,4.8879,4.8978,5.1397,5.1397,5.1397,5.1397,5.1397,5.1397,5.1397,5.1397,5.1397,5.1397,5.1397,5.1397,5.1397,5.1397,5.1397,5.1397,5.1397,5.1397,5.1397,5.1397,5.1397,5.1397,5.1397,5.1397,5.1397,5.1397,5.1397,5.1397,5.1397,5.1397,5.1397,5.1397,5.1397,5.1397,5.1397,5.1397,5.1397,5.1397,5.1397,5.1397,5.1397,5.1397,5.1397,5.1397,5.1397,5.1397,5.1397,5.1397,5.1397,5.1397,5.1397,5.1397,5.1328,5.1231,5.1085,5.0646,5.0157,4.9931,4.9538,4.9095,4.8879,4.8731,4.8533,4.8533,4.8583,4.8583,4.8484,4.8434,4.8385,4.8335,4.8335,4.8335,4.8335,4.8335,4.8335,4.8335,4.8335,4.8335,4.8335,4.8335,4.8335,4.8335,4.8335,4.8335,4.8335,4.8335,4.8335,4.8335,4.8335,4.8335,4.8335,4.8335,4.8335,4.8335,4.8335,4.8335,4.8335,4.8335,4.8335,4.8335,4.8335,4.8335,4.8335,4.8335,4.8335,4.8335,4.8335,4.8335,4.8335,4.8335,4.8267,4.8366,4.8416,4.8484,4.8533,5.1397,5.1397,5.1397,5.1397,5.1397,5.1397,5.1397,5.1397,5.1397,5.1397,5.1397,5.1397,5.1397,5.1397,5.1397,5.1397,5.1397,5.1397,5.1397,5.1397,5.1397,5.1397,5.1397,5.1397,5.1397,5.1397,5.1397,5.1397,5.1397,5.1397,5.1397,5.1397,5.1397,5.1397,5.1397,5.1397,5.1397,5.1397,5.1397,5.1397,5.1397,5.1397,5.1397,5.1397,5.1397,5.1397,5.1397,5.1397,5.1397,5.1397,5.1397,5.1397,5.1134,5.0988,5.0793,5.0304,4.9667,4.9323,4.9027,4.8632,4.8484,4.8385,4.8335,4.8335,4.8385,4.8385,4.8335,4.8335,4.8335,4.8335,4.8335,4.8335,4.8335,4.8335,4.8335,4.8335,4.8335,4.8335,4.8335,4.8335,4.8335,4.8335,4.8335,4.8335,4.8335,4.8335,4.8335,4.8335,4.8335,4.8335,4.8335,4.8335,4.8335,4.8335,4.8335,4.8335,4.8335,4.8335,4.8335,4.8335,4.8335,4.8335,4.8335,4.8335,4.8335,4.8335,4.8335,4.8262,4.8176,4.8267,4.8249,4.8231,4.8249,4.8267,4.8335,5.1397,5.1397,5.1397,5.1397,5.1397,5.1397,5.1397,5.1397,5.1397,5.1377,5.1377,5.1377,5.1397,5.1397,5.1397,5.1397,5.1397,5.1397,5.1397,5.1397,5.1397,5.1397,5.1397,5.1397,5.1397,5.1397,5.1397,5.1397,5.1397,5.1397,5.1397,5.1397,5.1397,5.1397,5.1397,5.1397,5.1397,5.1397,5.1397,5.1397,5.1397,5.1397,5.1397,5.1397,5.1397,5.1397,5.1397,5.1397,5.1397,5.1397,5.1397,5.1231,5.089,5.0744,5.0255,4.9618,4.9224,4.8928,4.8632,4.8434,4.8335,4.8335,4.8335,4.8335,4.8335,4.8335,4.8335,4.8335,4.8335,4.8335,4.8335,4.8335,4.8335,4.8335,4.8335,4.8335,4.8335,4.8335,4.8335,4.8335,4.8335,4.8335,4.8335,4.8335,4.8335,4.8335,4.8335,4.8335,4.8335,4.8335,4.8335,4.8335,4.8335,4.8335,4.8335,4.8335,4.8335,4.8335,4.8335,4.8335,4.8335,4.8335,4.8335,4.8335,4.8335,4.8335,4.8244,4.7956,4.7974,4.8102,4.8102,4.8029,4.8176,4.8231,4.8267,5.1397,5.1397,5.1397,5.1397,5.1397,5.1397,5.1397,5.1358,5.123,5.1152,5.1191,5.128,5.1377,5.1377,5.1397,5.1338,5.1338,5.1397,5.1397,5.1397,5.1319,5.1397,5.1377,5.1319,5.1397,5.1397,5.1397,5.1397,5.1397,5.1397,5.1397,5.1397,5.1397,5.1397,5.1397,5.1397,5.1397,5.1397,5.1397,5.1397,5.1397,5.1397,5.1397,5.1397,5.1397,5.1397,5.1397,5.1397,5.1231,5.1056,5.0812,5.0617,5.0323,5.0059,4.9667,4.9224,4.8879,4.8632,4.8385,4.8335,4.8335,4.8335,4.8335,4.8335,4.8335,4.8335,4.8335,4.8335,4.8335,4.8335,4.8335,4.8335,4.8335,4.8335,4.8335,4.8335,4.8335,4.8335,4.8335,4.8335,4.8335,4.8335,4.8335,4.8335,4.8335,4.8335,4.8335,4.8354,4.8354,4.8396,4.8359,4.8427,4.8501,4.839,4.8335,4.8335,4.8335,4.8335,4.8335,4.8335,4.8335,4.8335,4.8335,4.8335,4.8335,4.8335,4.8139,4.7919,4.7791,4.7882,4.7846,4.7791,4.7974,4.8176,4.8231,5.1397,5.1397,5.1397,5.1397,5.1397,5.1397,5.1338,5.1289,5.0976,5.0781,5.0762,5.1074,5.1201,5.1221,5.1221,5.1221,5.1162,5.1055,5.1104,5.1123,5.1172,5.1074,5.1045,5.1123,5.1123,5.1182,5.124,5.1319,5.1397,5.1397,5.1397,5.1397,5.1377,5.1397,5.1397,5.1397,5.1397,5.1397,5.1397,5.1397,5.1397,5.1397,5.1397,5.1397,5.1397,5.1397,5.1397,5.1231,5.1037,5.0744,5.0323,5.0029,4.9784,4.9538,4.9224,4.8898,4.8583,4.8434,4.8335,4.8335,4.8335,4.8335,4.8335,4.8335,4.8335,4.8335,4.8335,4.8335,4.8335,4.8335,4.8335,4.8335,4.8335,4.8335,4.8335,4.8335,4.8335,4.8335,4.8335,4.8335,4.8335,4.8335,4.8335,4.8335,4.8286,4.8335,4.8354,4.8322,4.8396,4.8543,4.8616,4.8689,4.8799,4.8653,4.8427,4.8304,4.8322,4.8335,4.8335,4.8335,4.8335,4.8335,4.8335,4.8335,4.8335,4.8335,4.8157,4.7937,4.7846,4.7791,4.7736,4.7736,4.7827,4.8029,4.8157,5.1397,5.1397,5.1397,5.1397,5.1377,5.1377,5.1201,5.0957,5.084,5.0625,5.0371,5.0332,5.041,5.041,5.041,5.0469,5.0605,5.0566,5.0449,5.041,5.0586,5.0508,5.0508,5.0683,5.0683,5.0801,5.0957,5.1065,5.1084,5.124,5.1377,5.1338,5.1358,5.1358,5.1397,5.1397,5.1397,5.1397,5.1397,5.1397,5.1377,5.1377,5.1377,5.1397,5.1397,5.1397,5.128,5.1007,5.0842,5.0549,5.0127,4.9637,4.9341,4.9095,4.8879,4.8632,4.8385,4.8335,4.8335,4.8335,4.8335,4.8335,4.8335,4.8335,4.8335,4.8335,4.8335,4.8335,4.8335,4.8335,4.8335,4.8335,4.8335,4.8335,4.8335,4.8335,4.8335,4.8335,4.8335,4.8335,4.8335,4.8335,4.8335,4.8304,4.8322,4.8341,4.8377,4.8451,4.8763,4.8836,4.8891,4.9001,4.9111,4.8781,4.8432,4.8396,4.8377,4.8322,4.8317,4.8231,4.8231,4.8335,4.8317,4.8176,4.828,4.8335,4.8121,4.7956,4.7937,4.7882,4.7772,4.7736,4.7791,4.7937,4.8139]},{"header":{"parameterUnit":"m.s-1","parameterCategory":1,"la1":31.0,"la2":29.5877,"lo1":-88.7671,"lo2":-86.6584,"dx":0.0162,"dy":0.0185,"nx":115,"ny":88,"refTime":"2022-11-18T06:00:00:Z","depth":0,"parameterNumber":3,"parameterNumberName":"V-component_of_WINDS"},"data":[0.0,0.0,0.0,0.0,0.0,0.0,0.0,0.0,0.0,0.0,0.0,0.0,0.0,0.0,0.0,0.0,0.0,0.0,0.0,0.0,0.0,0.0,0.0,0.0,0.0,0.0,0.0,0.0,0.0,0.0,0.0,0.0,0.0,0.0,0.0,0.0,0.0,0.0,0.0,0.0,0.0,0.0,0.0,0.0,0.0,0.0,0.0,0.0,0.0,0.0,0.0,0.0,0.0,0.0,0.0,0.0,0.0,0.0,0.0,0.0,0.0,0.0,0.0,0.0,0.0,0.0,0.0,0.0,0.0,0.0,0.0,0.0,0.0,0.0,0.0,0.0,0.0,0.0,0.0,0.0,0.0,0.0,0.0,0.0,0.0,0.0,0.0,0.0,0.0,0.0,0.0,0.0,0.0,0.0,0.0,0.0,0.0,0.0,0.0,0.0,0.0,0.0,0.0,0.0,0.0,0.0,0.0,0.0,0.0,0.0,0.0,0.0,0.0,0.0,0.0,0.0,0.0,0.0,0.0,0.0,0.0,0.0,0.0,0.0,0.0,0.0,0.0,0.0,0.0,0.0,0.0,0.0,0.0,0.0,0.0,0.0,0.0,0.0,0.0,0.0,0.0,0.0,0.0,0.0,0.0,0.0,0.0,0.0,0.0,0.0,0.0,0.0,0.0,0.0,0.0,0.0,0.0,0.0,0.0,0.0,0.0,0.0,0.0,0.0,0.0,0.0,0.0,0.0,0.0,0.0,0.0,0.0,0.0,0.0,0.0,0.0,0.0,0.0,0.0,0.0,0.0,0.0,0.0,0.0,0.0,0.0,0.0,0.0,0.0,0.0,0.0,0.0,0.0,0.0,0.0,0.0,0.0,0.0,0.0,0.0,0.0,0.0,0.0,0.0,0.0,0.0,0.0,0.0,0.0,0.0,0.0,0.0,0.0,0.0,0.0,0.0,0.0,0.0,0.0,0.0,0.0,0.0,0.0,0.0,0.0,0.0,0.0,0.0,0.0,0.0,0.0,0.0,0.0,0.0,0.0,0.0,0.0,0.0,0.0,0.0,0.0,0.0,0.0,0.0,0.0,0.0,0.0,0.0,0.0,0.0,0.0,0.0,0.0,0.0,0.0,0.0,0.0,0.0,0.0,0.0,0.0,0.0,0.0,0.0,0.0,0.0,0.0,0.0,0.0,0.0,0.0,0.0,0.0,0.0,0.0,0.0,0.0,0.0,0.0,0.0,0.0,0.0,0.0,0.0,0.0,0.0,0.0,0.0,0.0,0.0,0.0,0.0,0.0,0.0,0.0,0.0,0.0,0.0,0.0,0.0,0.0,0.0,0.0,0.0,0.0,0.0,0.0,0.0,0.0,0.0,0.0,0.0,0.0,0.0,0.0,0.0,0.0,0.0,0.0,0.0,0.0,0.0,0.0,0.0,0.0,0.0,0.0,0.0,0.0,0.0,0.0,0.0,0.0,0.0,0.0,0.0,0.0,0.0,0.0,0.0,0.0,0.0,0.0,0.0,0.0,0.0,0.0,0.0,0.0,0.0,0.0,0.0,0.0,0.0,0.0,0.0,0.0,0.0,0.0,0.0,0.0,0.0,0.0,0.0,0.0,0.0,0.0,0.0,0.0,0.0,0.0,0.0,0.0,0.0,0.0,0.0,0.0,0.0,0.0,0.0,0.0,0.0,0.0,0.0,0.0,0.0,0.0,0.0,0.0,0.0,0.0,0.0,0.0,0.0,0.0,0.0,0.0,0.0,0.0,0.0,0.0,0.0,0.0,0.0,0.0,0.0,0.0,0.0,0.0,0.0,0.0,0.0,0.0,0.0,0.0,0.0,0.0,0.0,0.0,0.0,0.0,0.0,0.0,0.0,0.0,0.0,0.0,0.0,0.0,0.0,0.0,0.0,0.0,0.0,0.0,0.0,0.0,0.0,0.0,0.0,0.0,0.0,0.0,0.0,0.0,0.0,0.0,0.0,0.0,0.0,0.0,0.0,0.0,0.0,0.0,0.0,0.0,0.0,0.0,0.0,0.0,0.0,0.0,0.0,0.0,0.0,0.0,0.0,0.0,0.0,0.0,0.0,0.0,0.0,0.0,0.0,0.0,0.0,0.0,0.0,0.0,0.0,0.0,0.0,0.0,0.0,0.0,0.0,0.0,0.0,0.0,0.0,0.0,0.0,0.0,0.0,0.0,0.0,0.0,0.0,0.0,0.0,0.0,0.0,0.0,0.0,0.0,0.0,0.0,0.0,0.0,0.0,0.0,0.0,0.0,0.0,0.0,0.0,0.0,0.0,0.0,0.0,0.0,0.0,0.0,0.0,0.0,0.0,0.0,0.0,0.0,0.0,0.0,0.0,0.0,0.0,0.0,0.0,0.0,0.0,0.0,0.0,0.0,0.0,0.0,0.0,0.0,0.0,0.0,0.0,0.0,0.0,0.0,0.0,0.0,0.0,0.0,0.0,0.0,0.0,0.0,0.0,0.0,0.0,0.0,0.0,0.0,0.0,0.0,0.0,0.0,0.0,0.0,0.0,0.0,0.0,0.0,0.0,0.0,0.0,0.0,0.0,0.0,0.0,0.0,0.0,0.0,0.0,0.0,0.0,0.0,0.0,0.0,0.0,0.0,0.0,0.0,0.0,0.0,0.0,0.0,0.0,0.0,0.0,0.0,0.0,0.0,0.0,0.0,0.0,0.0,0.0,0.0,0.0,0.0,0.0,0.0,0.0,0.0,0.0,0.0,0.0,0.0,0.0,0.0,0.0,0.0,0.0,0.0,0.0,0.0,0.0,0.0,0.0,0.0,0.0,0.0,0.0,0.0,0.0,0.0,0.0,0.0,0.0,0.0,0.0,0.0,0.0,0.0,0.0,0.0,0.0,0.0,0.0,0.0,0.0,0.0,0.0,0.0,0.0,0.0,0.0,0.0,0.0,0.0,0.0,0.0,0.0,0.0,0.0,0.0,0.0,0.0,0.0,0.0,0.0,0.0,0.0,0.0,0.0,0.0,0.0,0.0,0.0,0.0,0.0,0.0,0.0,0.0,0.0,0.0,0.0,0.0,0.0,0.0,0.0,0.0,0.0,0.0,0.0,0.0,0.0,0.0,0.0,0.0,0.0,0.0,0.0,0.0,0.0,0.0,0.0,0.0,0.0,0.0,0.0,0.0,0.0,0.0,0.0,0.0,0.0,0.0,0.0,0.0,0.0,0.0,0.0,0.0,0.0,0.0,0.0,0.0,0.0,0.0,0.0,0.0,0.0,0.0,0.0,0.0,0.0,0.0,0.0,0.0,0.0,0.0,0.0,0.0,0.0,0.0,0.0,0.0,0.0,0.0,0.0,0.0,0.0,0.0,0.0,0.0,0.0,0.0,0.0,0.0,0.0,0.0,0.0,0.0,0.0,0.0,0.0,0.0,0.0,0.0,0.0,0.0,0.0,0.0,0.0,0.0,0.0,0.0,0.0,0.0,0.0,0.0,0.0,0.0,0.0,0.0,0.0,0.0,0.0,0.0,0.0,0.0,0.0,0.0,0.0,0.0,0.0,0.0,0.0,0.0,0.0,0.0,0.0,0.0,0.0,0.0,0.0,0.0,0.0,0.0,0.0,0.0,0.0,0.0,0.0,0.0,0.0,0.0,0.0,0.0,0.0,0.0,0.0,0.0,0.0,0.0,0.0,0.0,0.0,0.0,0.0,0.0,0.0,0.0,0.0,0.0,0.0,0.0,0.0,0.0,0.0,0.0,0.0,0.0,0.0,0.0,0.0,0.0,0.0,0.0,0.0,0.0,0.0,0.0,0.0,0.0,0.0,0.0,0.0,0.0,0.0,0.0,0.0,0.0,0.0,0.0,0.0,0.0,0.0,0.0,0.0,0.0,0.0,0.0,0.0,0.0,0.0,0.0,0.0,0.0,0.0,0.0,0.0,0.0,0.0,0.0,0.0,0.0,0.0,0.0,0.0,0.0,0.0,0.0,0.0,0.0,0.0,0.0,0.0,0.0,0.0,0.0,0.0,0.0,0.0,0.0,0.0,0.0,0.0,0.0,0.0,0.0,0.0,0.0,0.0,0.0,0.0,0.0,0.0,0.0,0.0,0.0,0.0,0.0,0.0,0.0,0.0,0.0,0.0,0.0,0.0,0.0,0.0,0.0,0.0,0.0,0.0,0.0,0.0,0.0,0.0,0.0,0.0,0.0,0.0,0.0,0.0,0.0,0.0,0.0,0.0,0.0,0.0,0.0,0.0,0.0,0.0,1.65,0.0,0.0,0.0,1.6899,0.0,0.0,0.0,0.0,0.0,0.0,0.0,0.0,0.0,0.0,0.0,0.0,0.0,0.0,0.0,0.0,0.0,0.0,0.0,0.0,0.0,0.0,0.0,0.0,0.0,0.0,0.0,0.0,0.0,0.0,0.0,0.0,0.0,0.0,0.0,0.0,0.0,0.0,0.0,0.0,0.0,0.0,0.0,0.0,0.0,0.0,0.0,0.0,0.0,0.0,0.0,0.0,0.0,0.0,0.0,0.0,0.0,0.0,0.0,0.0,0.0,0.0,0.0,0.0,0.0,0.0,0.0,0.0,0.0,0.0,0.0,0.0,0.0,0.0,0.0,0.0,0.0,0.0,0.0,0.0,0.0,0.0,0.0,0.0,0.0,0.0,0.0,0.0,0.0,0.0,0.0,0.0,0.0,0.0,0.0,0.0,0.0,0.0,0.0,0.0,0.0,0.0,0.0,0.0,0.0,0.0,0.0,0.0,0.0,0.0,1.65,1.65,1.6565,1.6671,1.6873,0.0,0.0,0.0,0.0,0.0,0.0,0.0,0.0,0.0,0.0,0.0,0.0,0.0,0.0,0.0,0.0,0.0,0.0,0.0,0.0,0.0,0.0,0.0,0.0,0.0,0.0,0.0,0.0,0.0,0.0,0.0,0.0,0.0,0.0,0.0,0.0,0.0,0.0,0.0,0.0,0.0,0.0,0.0,0.0,0.0,0.0,0.0,0.0,0.0,0.0,0.0,0.0,0.0,0.0,0.0,0.0,0.0,0.0,0.0,0.0,0.0,0.0,0.0,0.0,0.0,0.0,0.0,0.0,0.0,0.0,0.0,0.0,0.0,0.0,0.0,0.0,0.0,0.0,0.0,0.0,0.0,0.0,0.0,0.0,0.0,0.0,0.0,0.0,0.0,0.0,0.0,0.0,0.0,0.0,0.0,0.0,0.0,0.0,0.0,0.0,0.0,0.0,0.0,0.0,0.0,0.0,0.0,0.0,0.0,0.0,0.0,0.0,1.6701,1.6766,1.6899,0.0,0.0,0.0,0.0,0.0,0.0,0.0,0.0,0.0,0.0,0.0,0.0,0.0,0.0,0.0,0.0,0.0,0.0,0.0,0.0,0.0,0.0,0.0,0.0,0.0,0.0,0.0,0.0,0.0,0.0,0.0,0.0,0.0,0.0,0.0,0.0,0.0,0.0,0.0,0.0,0.0,0.0,0.0,0.0,0.0,0.0,0.0,0.0,0.0,0.0,0.0,0.0,0.0,0.0,0.0,0.0,0.0,0.0,0.0,0.0,0.0,0.0,0.0,0.0,0.0,0.0,0.0,0.0,0.0,0.0,0.0,0.0,0.0,0.0,0.0,0.0,0.0,0.0,0.0,0.0,0.0,0.0,0.0,0.0,0.0,0.0,0.0,0.0,0.0,0.0,0.0,0.0,0.0,0.0,0.0,0.0,0.0,0.0,0.0,0.0,0.0,0.0,0.0,0.0,0.0,0.0,0.0,0.0,0.0,0.0,1.7311,1.7311,1.7311,0.0,1.6925,0.0,0.0,0.0,0.0,0.0,0.0,0.0,0.0,0.0,0.0,0.0,0.0,0.0,0.0,0.0,0.0,0.0,0.0,0.0,0.0,0.0,0.0,0.0,0.0,0.0,0.0,0.0,0.0,0.0,0.0,0.0,0.0,0.0,0.0,0.0,0.0,0.0,0.0,0.0,0.0,0.0,0.0,0.0,0.0,0.0,0.0,0.0,0.0,0.0,0.0,0.0,0.0,0.0,0.0,0.0,0.0,0.0,0.0,0.0,0.0,0.0,0.0,0.0,0.0,0.0,0.0,0.0,0.0,0.0,0.0,0.0,0.0,0.0,0.0,0.0,0.0,0.0,0.0,0.0,0.0,0.0,0.0,0.0,0.0,0.0,0.0,0.0,0.0,0.0,0.0,0.0,0.0,0.0,0.0,0.0,0.0,0.0,0.0,0.0,0.0,0.0,0.0,0.0,0.0,0.0,0.0,0.0,0.0,0.0,0.0,1.7562,1.7864,1.7688,1.7532,0.0,0.0,0.0,0.0,0.0,0.0,0.0,0.0,0.0,0.0,0.0,0.0,0.0,0.0,0.0,0.0,0.0,0.0,0.0,0.0,0.0,0.0,0.0,0.0,0.0,0.0,0.0,0.0,0.0,0.0,0.0,0.0,0.0,0.0,0.0,0.0,0.0,0.0,0.0,0.0,0.0,0.0,0.0,0.0,0.0,0.0,0.0,0.0,0.0,0.0,0.0,0.0,0.0,0.0,0.0,0.0,0.0,0.0,0.0,0.0,0.0,0.0,0.0,0.0,0.0,0.0,0.0,0.0,0.0,0.0,0.0,0.0,0.0,0.0,0.0,0.0,0.0,0.0,0.0,0.0,0.0,0.0,0.0,0.0,0.0,0.0,0.0,0.0,0.0,0.0,0.0,0.0,0.0,0.0,0.0,0.0,0.0,0.0,0.0,0.0,0.0,0.0,0.0,0.0,0.0,0.0,0.0,0.0,0.0,0.0,1.7537,1.7889,1.838,1.8261,1.8019,1.7723,0.0,0.0,0.0,0.0,0.0,0.0,0.0,0.0,0.0,0.0,0.0,0.0,0.0,0.0,0.0,0.0,0.0,0.0,0.0,0.0,0.0,0.0,0.0,0.0,0.0,0.0,0.0,0.0,0.0,0.0,0.0,0.0,0.0,0.0,0.0,0.0,0.0,0.0,0.0,0.0,0.0,0.0,0.0,0.0,0.0,0.0,0.0,0.0,0.0,0.0,0.0,0.0,0.0,0.0,0.0,0.0,0.0,0.0,0.0,0.0,0.0,0.0,0.0,0.0,0.0,0.0,0.0,0.0,0.0,0.0,0.0,0.0,0.0,0.0,0.0,0.0,0.0,0.0,0.0,0.0,0.0,0.0,0.0,0.0,0.0,0.0,0.0,0.0,0.0,0.0,0.0,0.0,0.0,0.0,0.0,0.0,0.0,0.0,0.0,0.0,0.0,0.0,0.0,0.0,0.0,0.0,0.0,0.0,1.7387,1.7928,1.8431,1.902,1.9202,1.881,0.0,0.0,0.0,0.0,0.0,0.0,0.0,0.0,0.0,0.0,0.0,0.0,0.0,0.0,0.0,0.0,0.0,0.0,0.0,0.0,0.0,0.0,0.0,0.0,0.0,0.0,0.0,0.0,0.0,0.0,0.0,0.0,0.0,0.0,0.0,0.0,0.0,0.0,0.0,0.0,0.0,0.0,0.0,0.0,0.0,0.0,0.0,0.0,0.0,0.0,0.0,0.0,0.0,0.0,0.0,0.0,0.0,0.0,0.0,0.0,0.0,0.0,0.0,0.0,0.0,0.0,0.0,0.0,0.0,0.0,0.0,0.0,0.0,0.0,0.0,0.0,0.0,0.0,0.0,0.0,0.0,0.0,0.0,0.0,0.0,0.0,0.0,0.0,0.0,0.0,0.0,0.0,0.0,0.0,0.0,0.0,0.0,0.0,0.0,0.0,0.0,0.0,0.0,0.0,0.0,0.0,0.0,0.0,0.0,1.8455,1.9999,2.0927,2.1103,2.0677,1.9926,0.0,0.0,0.0,0.0,0.0,0.0,0.0,0.0,0.0,0.0,0.0,0.0,0.0,0.0,0.0,0.0,0.0,0.0,0.0,0.0,0.0,0.0,0.0,0.0,0.0,0.0,0.0,0.0,0.0,0.0,0.0,0.0,0.0,0.0,0.0,0.0,0.0,0.0,0.0,0.0,0.0,0.0,0.0,0.0,0.0,0.0,0.0,0.0,0.0,0.0,0.0,0.0,0.0,0.0,0.0,0.0,0.0,0.0,0.0,0.0,0.0,0.0,0.0,0.0,0.0,0.0,0.0,0.0,0.0,0.0,0.0,0.0,0.0,0.0,0.0,0.0,0.0,0.0,0.0,0.0,0.0,0.0,0.0,0.0,0.0,0.0,0.0,0.0,0.0,0.0,0.0,0.0,0.0,0.0,0.0,0.0,0.0,0.0,0.0,0.0,0.0,0.0,0.0,0.0,0.0,0.0,0.0,0.0,0.0,2.0191,2.2419,2.3599,2.3563,2.2904,2.1721,0.0,0.0,0.0,0.0,0.0,0.0,0.0,0.0,0.0,0.0,0.0,0.0,0.0,0.0,0.0,0.0,0.0,0.0,0.0,0.0,0.0,0.0,0.0,0.0,0.0,0.0,0.0,0.0,0.0,0.0,0.0,0.0,0.0,0.0,0.0,0.0,0.0,0.0,0.0,0.0,0.0,0.0,0.0,0.0,0.0,0.0,0.0,0.0,0.0,0.0,0.0,0.0,0.0,0.0,0.0,0.0,0.0,0.0,0.0,0.0,0.0,0.0,0.0,0.0,0.0,0.0,0.0,0.0,0.0,0.0,0.0,0.0,0.0,0.0,0.0,0.0,0.0,0.0,0.0,0.0,0.0,0.0,0.0,0.0,0.0,0.0,0.0,0.0,0.0,0.0,0.0,0.0,0.0,0.0,0.0,0.0,0.0,0.0,0.0,0.0,0.0,0.0,0.0,0.0,0.0,0.0,0.0,0.0,1.9355,2.2697,2.5121,2.6444,2.6374,2.5913,2.4279,0.0,0.0,0.0,0.0,0.0,0.0,0.0,0.0,0.0,0.0,0.0,0.0,0.0,0.0,0.0,0.0,0.0,0.0,0.0,0.0,0.0,0.0,0.0,0.0,0.0,0.0,0.0,0.0,0.0,0.0,0.0,0.0,0.0,0.0,0.0,0.0,0.0,0.0,0.0,0.0,0.0,0.0,0.0,0.0,0.0,0.0,0.0,0.0,0.0,0.0,0.0,0.0,0.0,0.0,0.0,0.0,0.0,0.0,0.0,0.0,0.0,0.0,0.0,0.0,0.0,0.0,0.0,0.0,0.0,0.0,0.0,0.0,0.0,0.0,0.0,0.0,0.0,0.0,0.0,0.0,0.0,0.0,0.0,0.0,0.0,0.0,0.0,0.0,0.0,0.0,0.0,0.0,0.0,0.0,0.0,0.0,0.0,0.0,0.0,0.0,0.0,0.0,0.0,0.0,0.0,0.0,0.0,0.0,0.0,2.6882,2.9178,3.0553,3.0926,2.9375,2.6971,0.0,0.0,0.0,0.0,0.0,0.0,0.0,0.0,0.0,0.0,0.0,0.0,0.0,0.0,0.0,0.0,0.0,0.0,0.0,0.0,0.0,0.0,0.0,0.0,0.0,0.0,0.0,0.0,0.0,0.0,0.0,0.0,0.0,0.0,0.0,0.0,0.0,0.0,0.0,0.0,0.0,0.0,0.0,0.0,0.0,0.0,0.0,0.0,0.0,0.0,0.0,0.0,0.0,0.0,0.0,0.0,0.0,0.0,0.0,0.0,0.0,0.0,0.0,0.0,0.0,0.0,0.0,0.0,0.0,0.0,0.0,0.0,0.0,0.0,0.0,0.0,0.0,0.0,0.0,0.0,0.0,0.0,0.0,0.0,0.0,0.0,0.0,0.0,0.0,0.0,0.0,0.0,0.0,0.0,0.0,0.0,0.0,0.0,0.0,0.0,0.0,0.0,0.0,0.0,0.0,0.0,0.0,0.0,0.0,3.2135,3.3592,3.4498,3.4904,3.2921,2.9928,2.5901,0.0,0.0,0.0,0.0,0.0,0.0,0.0,0.0,0.0,0.0,0.0,0.0,0.0,0.0,0.0,0.0,0.0,0.0,0.0,0.0,0.0,0.0,0.0,0.0,0.0,0.0,0.0,0.0,0.0,0.0,0.0,0.0,0.0,0.0,0.0,0.0,0.0,0.0,0.0,0.0,0.0,0.0,0.0,0.0,0.0,0.0,0.0,0.0,0.0,0.0,0.0,0.0,0.0,0.0,0.0,0.0,0.0,0.0,0.0,0.0,0.0,0.0,0.0,0.0,0.0,0.0,0.0,0.0,0.0,0.0,0.0,0.0,0.0,0.0,0.0,0.0,0.0,0.0,0.0,0.0,0.0,0.0,0.0,0.0,0.0,0.0,0.0,0.0,0.0,0.0,0.0,0.0,0.0,0.0,0.0,0.0,0.0,0.0,0.0,0.0,0.0,0.0,0.0,0.0,0.0,0.0,0.0,0.0,3.7978,3.8214,3.8243,3.8187,3.6384,3.3012,0.0,0.0,0.0,0.0,0.0,0.0,0.0,0.0,0.0,0.0,0.0,0.0,0.0,0.0,0.0,0.0,0.0,0.0,0.0,0.0,0.0,0.0,0.0,0.0,0.0,0.0,0.0,0.0,0.0,0.0,0.0,0.0,0.0,0.0,0.0,0.0,0.0,0.0,0.0,0.0,0.0,0.0,0.0,0.0,0.0,0.0,0.0,0.0,0.0,0.0,0.0,0.0,0.0,0.0,0.0,0.0,0.0,0.0,0.0,0.0,0.0,0.0,0.0,0.0,0.0,0.0,0.0,0.0,0.0,0.0,0.0,0.0,0.0,0.0,0.0,0.0,0.0,0.0,0.0,0.0,0.0,0.0,0.0,0.0,0.0,0.0,0.0,0.0,0.0,0.0,0.0,0.0,0.0,0.0,0.0,0.0,0.0,0.0,0.0,0.0,0.0,0.0,0.0,0.0,0.0,0.0,0.0,0.0,0.0,3.9601,4.1821,4.2527,4.1638,3.8789,3.4972,0.0,0.0,0.0,0.0,0.0,0.0,0.0,0.0,0.0,0.0,0.0,0.0,0.0,0.0,0.0,0.0,0.0,0.0,0.0,0.0,0.0,0.0,0.0,0.0,0.0,0.0,0.0,0.0,0.0,0.0,0.0,0.0,0.0,0.0,0.0,0.0,0.0,0.0,0.0,0.0,0.0,0.0,0.0,0.0,0.0,0.0,0.0,0.0,0.0,0.0,0.0,0.0,0.0,0.0,0.0,0.0,0.0,0.0,0.0,0.0,0.0,0.0,0.0,0.0,0.0,0.0,0.0,0.0,0.0,0.0,0.0,0.0,0.0,0.0,0.0,0.0,0.0,0.0,0.0,0.0,0.0,0.0,0.0,0.0,0.0,0.0,0.0,0.0,0.0,0.0,0.0,0.0,0.0,0.0,0.0,0.0,0.0,0.0,0.0,0.0,0.0,0.0,0.0,0.0,0.0,0.0,0.0,0.0,3.8178,4.1805,4.4704,4.5548,4.4151,4.0792,3.6567,0.0,0.0,0.0,0.0,0.0,0.0,0.0,0.0,0.0,0.0,0.0,0.0,0.0,0.0,0.0,0.0,0.0,0.0,0.0,0.0,0.0,0.0,0.0,0.0,0.0,0.0,0.0,0.0,0.0,0.0,0.0,0.0,0.0,0.0,0.0,0.0,0.0,0.0,0.0,0.0,0.0,0.0,0.0,0.0,0.0,0.0,0.0,0.0,0.0,0.0,0.0,0.0,0.0,0.0,0.0,0.0,0.0,0.0,0.0,0.0,0.0,0.0,0.0,0.0,0.0,0.0,0.0,0.0,0.0,0.0,0.0,0.0,0.0,0.0,0.0,0.0,0.0,0.0,0.0,0.0,0.0,0.0,0.0,0.0,0.0,0.0,0.0,0.0,0.0,0.0,0.0,0.0,0.0,0.0,0.0,0.0,0.0,0.0,0.0,0.0,0.0,0.0,0.0,0.0,0.0,0.0,0.0,0.0,4.0904,4.3981,4.6863,4.7532,4.5689,4.2356,3.789,0.0,0.0,0.0,0.0,0.0,0.0,0.0,0.0,0.0,0.0,0.0,0.0,0.0,0.0,0.0,0.0,0.0,0.0,0.0,0.0,0.0,0.0,0.0,0.0,0.0,0.0,0.0,0.0,0.0,0.0,0.0,0.0,0.0,0.0,0.0,0.0,0.0,0.0,0.0,0.0,0.0,0.0,0.0,0.0,0.0,0.0,0.0,0.0,0.0,0.0,0.0,0.0,0.0,0.0,0.0,0.0,0.0,0.0,0.0,0.0,0.0,0.0,0.0,0.0,0.0,0.0,0.0,0.0,0.0,0.0,0.0,0.0,0.0,0.0,0.0,0.0,0.0,0.0,0.0,0.0,0.0,0.0,0.0,0.0,0.0,0.0,0.0,0.0,0.0,0.0,0.0,0.0,0.0,0.0,0.0,0.0,0.0,0.0,0.0,0.0,0.0,0.0,0.0,0.0,0.0,0.0,0.0,0.0,4.1898,4.4878,4.7568,4.8082,4.6271,4.2856,3.869,0.0,0.0,0.0,0.0,0.0,0.0,0.0,0.0,0.0,0.0,0.0,0.0,0.0,0.0,0.0,0.0,0.0,0.0,0.0,0.0,0.0,0.0,0.0,0.0,0.0,0.0,0.0,0.0,0.0,0.0,0.0,0.0,0.0,0.0,0.0,0.0,0.0,0.0,0.0,0.0,0.0,0.0,0.0,0.0,0.0,0.0,0.0,0.0,2.2749,0.0,0.0,0.0,0.0,0.0,0.0,0.0,0.0,0.0,0.0,0.0,0.0,0.0,0.0,0.0,0.0,0.0,0.0,0.0,0.0,0.0,0.0,0.0,0.0,0.0,0.0,0.0,0.0,0.0,0.0,0.0,0.0,0.0,0.0,0.0,0.0,0.0,0.0,0.0,0.0,0.0,0.0,0.0,0.0,0.0,0.0,0.0,0.0,0.0,0.0,0.0,0.0,0.0,0.0,0.0,0.0,0.0,0.0,0.0,4.3854,4.6762,4.9115,4.9471,4.7624,4.4601,4.025,0.0,0.0,0.0,0.0,0.0,0.0,0.0,0.0,0.0,0.0,0.0,0.0,0.0,0.0,0.0,0.0,0.0,0.0,0.0,0.0,0.0,0.0,0.0,0.0,0.0,0.0,0.0,0.0,0.0,0.0,0.0,0.0,0.0,0.0,0.0,0.0,0.0,0.0,0.0,0.0,0.0,0.0,0.0,0.0,0.0,0.0,0.0,0.0,0.0,0.0,0.0,0.0,0.0,0.0,0.0,0.0,0.0,0.0,0.0,0.0,0.0,0.0,0.0,0.0,0.0,0.0,0.0,0.0,0.0,0.0,0.0,0.0,0.0,0.0,0.0,0.0,0.0,0.0,0.0,0.0,0.0,0.0,0.0,0.0,0.0,0.0,0.0,0.0,0.0,0.0,0.0,0.0,0.0,0.0,0.0,0.0,0.0,0.0,0.0,0.0,0.0,0.0,0.0,0.0,0.0,0.0,0.0,4.1755,4.6023,4.8854,5.0968,5.1101,4.9239,4.6567,4.1996,3.535,0.0,0.0,0.0,0.0,0.0,0.0,0.0,0.0,0.0,0.0,0.0,0.0,0.0,0.0,0.0,0.0,0.0,0.0,0.0,0.0,0.0,0.0,0.0,0.0,0.0,0.0,0.0,0.0,0.0,0.0,0.0,0.0,0.0,0.0,0.0,0.0,0.0,0.0,2.1144,2.2642,0.0,0.0,0.0,0.0,0.0,0.0,0.0,0.0,2.5798,0.0,0.0,0.0,0.0,0.0,0.0,0.0,0.0,0.0,0.0,0.0,0.0,0.0,0.0,0.0,0.0,0.0,0.0,0.0,0.0,0.0,0.0,0.0,0.0,0.0,0.0,0.0,0.0,0.0,0.0,0.0,0.0,0.0,0.0,0.0,0.0,0.0,0.0,0.0,0.0,0.0,0.0,0.0,0.0,0.0,0.0,0.0,0.0,0.0,0.0,0.0,0.0,0.0,0.0,0.0,0.0,3.8418,4.3478,4.7461,5.038,5.2014,5.1974,5.008,4.725,4.3088,3.7521,0.0,0.0,0.0,0.0,0.0,0.0,0.0,0.0,0.0,0.0,0.0,0.0,0.0,0.0,0.0,0.0,0.0,0.0,0.0,0.0,0.0,0.0,0.0,0.0,0.0,0.0,0.0,0.0,0.0,0.0,0.0,0.0,0.0,0.0,0.0,0.0,0.0,0.0,0.0,2.4158,2.4776,0.0,0.0,0.0,0.0,0.0,0.0,0.0,0.0,2.7404,0.0,0.0,0.0,0.0,0.0,0.0,0.0,0.0,0.0,0.0,0.0,0.0,0.0,0.0,0.0,0.0,0.0,0.0,0.0,0.0,0.0,0.0,0.0,0.0,0.0,0.0,0.0,0.0,0.0,0.0,0.0,0.0,0.0,0.0,0.0,0.0,0.0,0.0,0.0,0.0,0.0,0.0,0.0,0.0,0.0,0.0,0.0,0.0,0.0,0.0,0.0,0.0,0.0,0.0,0.0,4.0093,4.4865,4.8734,5.1658,5.303,5.2927,5.1199,4.8293,4.4128,0.0,0.0,0.0,0.0,0.0,0.0,0.0,0.0,0.0,0.0,0.0,0.0,0.0,0.0,0.0,0.0,0.0,0.0,0.0,0.0,0.0,0.0,0.0,0.0,0.0,0.0,0.0,0.0,0.0,0.0,0.0,0.0,0.0,0.0,0.0,0.0,0.0,0.0,0.0,0.0,2.6141,2.7024,2.7978,0.0,0.0,0.0,0.0,0.0,0.0,2.9494,2.9512,0.0,0.0,0.0,0.0,0.0,0.0,0.0,0.0,0.0,0.0,0.0,0.0,0.0,0.0,0.0,0.0,0.0,0.0,0.0,0.0,0.0,0.0,0.0,0.0,0.0,0.0,0.0,0.0,0.0,0.0,0.0,0.0,0.0,0.0,0.0,0.0,0.0,0.0,0.0,0.0,0.0,0.0,0.0,0.0,0.0,0.0,0.0,0.0,0.0,0.0,0.0,0.0,0.0,0.0,0.0,4.1785,4.6182,4.994,5.2913,5.3939,5.3688,5.2193,4.9262,4.5008,0.0,0.0,0.0,0.0,0.0,0.0,0.0,0.0,0.0,0.0,0.0,0.0,0.0,0.0,0.0,0.0,0.0,0.0,0.0,0.0,0.0,0.0,0.0,0.0,0.0,0.0,0.0,0.0,0.0,0.0,0.0,0.0,0.0,0.0,0.0,0.0,0.0,0.0,0.0,0.0,0.0,2.9252,3.0146,3.056,0.0,0.0,0.0,0.0,3.1334,3.1565,0.0,0.0,0.0,0.0,0.0,0.0,0.0,0.0,0.0,0.0,0.0,0.0,0.0,0.0,0.0,0.0,0.0,0.0,0.0,0.0,0.0,0.0,0.0,0.0,0.0,0.0,0.0,0.0,0.0,0.0,0.0,0.0,0.0,0.0,0.0,0.0,0.0,0.0,0.0,0.0,0.0,0.0,0.0,0.0,0.0,0.0,0.0,0.0,0.0,0.0,0.0,0.0,0.0,0.0,0.0,0.0,4.3986,4.7686,5.1153,5.4327,5.4667,5.4099,5.2714,4.9757,4.5521,0.0,0.0,0.0,0.0,0.0,0.0,0.0,0.0,0.0,0.0,0.0,0.0,0.0,0.0,0.0,0.0,0.0,0.0,0.0,0.0,0.0,0.0,0.0,0.0,0.0,0.0,0.0,0.0,0.0,0.0,0.0,0.0,0.0,0.0,0.0,0.0,0.0,0.0,0.0,0.0,0.0,3.0416,3.174,3.2572,3.3002,0.0,0.0,3.4046,3.383,3.3912,0.0,0.0,0.0,0.0,0.0,0.0,0.0,0.0,0.0,0.0,0.0,0.0,0.0,0.0,0.0,0.0,0.0,0.0,0.0,0.0,0.0,0.0,0.0,0.0,0.0,0.0,0.0,0.0,0.0,0.0,0.0,0.0,0.0,0.0,0.0,0.0,0.0,0.0,0.0,0.0,0.0,0.0,0.0,0.0,0.0,0.0,0.0,0.0,0.0,0.0,0.0,0.0,0.0,0.0,0.0,3.8653,4.4867,4.8294,5.1567,5.4658,5.4955,5.43,5.2842,4.9881,4.5785,0.0,0.0,0.0,0.0,0.0,0.0,0.0,0.0,0.0,0.0,0.0,0.0,0.0,0.0,0.0,0.0,0.0,0.0,0.0,0.0,0.0,0.0,0.0,0.0,0.0,0.0,0.0,0.0,0.0,0.0,0.0,0.0,0.0,0.0,0.0,0.0,0.0,0.0,0.0,0.0,0.0,0.0,3.434,3.512,0.0,0.0,0.0,3.6823,3.6713,0.0,0.0,0.0,0.0,0.0,0.0,0.0,0.0,0.0,0.0,0.0,0.0,0.0,0.0,0.0,0.0,0.0,0.0,0.0,0.0,0.0,0.0,0.0,0.0,0.0,0.0,0.0,0.0,0.0,0.0,0.0,0.0,0.0,0.0,0.0,0.0,0.0,0.0,0.0,0.0,0.0,0.0,0.0,0.0,0.0,0.0,0.0,0.0,0.0,0.0,0.0,0.0,0.0,0.0,0.0,0.0,0.0,4.5547,4.8916,5.2014,5.4786,5.5108,5.4565,5.3149,5.026,0.0,0.0,0.0,0.0,0.0,0.0,0.0,0.0,0.0,0.0,0.0,0.0,0.0,0.0,0.0,0.0,0.0,0.0,0.0,0.0,0.0,0.0,0.0,0.0,0.0,0.0,0.0,0.0,0.0,0.0,0.0,0.0,0.0,0.0,0.0,0.0,0.0,0.0,0.0,0.0,0.0,0.0,3.4044,3.6596,3.7669,3.8375,0.0,0.0,3.9373,3.9263,3.8786,3.8133,0.0,0.0,0.0,0.0,0.0,0.0,0.0,0.0,0.0,0.0,0.0,0.0,0.0,0.0,0.0,0.0,0.0,0.0,0.0,0.0,0.0,0.0,0.0,0.0,0.0,0.0,0.0,0.0,0.0,0.0,0.0,0.0,0.0,0.0,0.0,0.0,0.0,0.0,0.0,0.0,0.0,0.0,0.0,0.0,0.0,0.0,0.0,0.0,0.0,0.0,0.0,0.0,0.0,0.0,0.0,4.6219,4.9952,5.2876,5.5064,5.5179,5.485,5.4077,5.1322,4.7784,0.0,0.0,0.0,0.0,0.0,0.0,0.0,0.0,0.0,0.0,0.0,0.0,0.0,0.0,0.0,0.0,0.0,0.0,0.0,0.0,0.0,0.0,0.0,0.0,0.0,0.0,0.0,0.0,0.0,0.0,0.0,0.0,0.0,0.0,0.0,0.0,0.0,0.0,0.0,0.0,0.0,3.628,3.7941,4.007,4.1273,0.0,0.0,4.143,4.0993,4.0396,3.9769,3.9295,0.0,0.0,0.0,0.0,0.0,0.0,0.0,0.0,0.0,0.0,0.0,0.0,0.0,0.0,0.0,0.0,0.0,0.0,0.0,0.0,0.0,0.0,0.0,0.0,0.0,0.0,0.0,0.0,0.0,0.0,0.0,0.0,0.0,0.0,0.0,0.0,0.0,0.0,0.0,0.0,0.0,0.0,0.0,0.0,0.0,0.0,0.0,0.0,0.0,0.0,0.0,0.0,0.0,4.1479,4.714,5.0306,5.2954,5.5089,5.5234,5.488,5.4221,5.1792,4.8965,0.0,0.0,0.0,0.0,0.0,0.0,0.0,0.0,0.0,0.0,0.0,0.0,0.0,0.0,0.0,0.0,0.0,0.0,0.0,0.0,0.0,0.0,0.0,0.0,0.0,0.0,0.0,0.0,2.3765,2.4602,2.4869,0.0,0.0,0.0,0.0,0.0,0.0,0.0,0.0,0.0,0.0,3.8501,4.0909,4.2604,0.0,0.0,4.4218,4.4198,4.3595,4.2932,4.2168,4.1168,3.9748,0.0,0.0,0.0,0.0,0.0,0.0,0.0,0.0,0.0,0.0,0.0,0.0,0.0,0.0,0.0,0.0,0.0,0.0,0.0,0.0,0.0,0.0,0.0,0.0,0.0,0.0,0.0,0.0,0.0,0.0,0.0,0.0,0.0,0.0,0.0,0.0,0.0,0.0,0.0,0.0,0.0,0.0,0.0,0.0,0.0,0.0,0.0,0.0,0.0,0.0,0.0,0.0,4.2523,4.7748,5.0745,5.3207,5.5149,5.5234,5.497,5.4491,5.261,5.0358,0.0,0.0,0.0,0.0,0.0,0.0,0.0,0.0,0.0,0.0,0.0,0.0,0.0,0.0,0.0,0.0,0.0,0.0,0.0,0.0,0.0,0.0,0.0,0.0,0.0,0.0,0.0,0.0,2.552,2.6446,2.6903,0.0,0.0,0.0,0.0,0.0,0.0,0.0,0.0,0.0,0.0,4.0734,4.324,4.4609,4.5536,4.593,4.6163,4.6072,4.5404,4.4918,4.422,4.3096,0.0,0.0,0.0,0.0,0.0,0.0,0.0,0.0,0.0,0.0,0.0,0.0,0.0,0.0,0.0,0.0,0.0,0.0,0.0,0.0,0.0,0.0,0.0,0.0,0.0,0.0,0.0,0.0,0.0,0.0,2.3423,0.0,0.0,0.0,0.0,0.0,0.0,0.0,0.0,0.0,0.0,0.0,0.0,0.0,0.0,0.0,0.0,0.0,0.0,0.0,0.0,0.0,0.0,4.3858,4.7971,5.1404,5.3832,5.5149,5.5209,5.5209,5.5149,5.3862,5.2145,4.9928,0.0,0.0,0.0,0.0,0.0,0.0,0.0,0.0,0.0,0.0,0.0,0.0,0.0,0.0,0.0,0.0,0.0,0.0,0.0,0.0,0.0,0.0,0.0,0.0,0.0,0.0,2.6123,2.7006,2.7882,0.0,0.0,0.0,0.0,0.0,0.0,0.0,0.0,0.0,0.0,4.095,4.2975,4.4499,4.598,4.6791,4.6184,4.6609,4.6791,4.6123,4.6001,4.5738,0.0,0.0,0.0,0.0,0.0,0.0,0.0,0.0,0.0,0.0,0.0,0.0,0.0,0.0,0.0,0.0,0.0,0.0,0.0,0.0,0.0,0.0,0.0,0.0,0.0,0.0,0.0,2.8372,2.7949,0.0,0.0,0.0,0.0,0.0,0.0,0.0,0.0,0.0,0.0,0.0,3.905,3.9679,0.0,0.0,0.0,0.0,0.0,0.0,0.0,0.0,0.0,0.0,0.0,0.0,4.4926,4.935,5.1923,5.4067,5.5803,5.5863,5.5863,5.5863,5.497,5.2965,4.9635,0.0,0.0,0.0,0.0,0.0,0.0,0.0,0.0,0.0,0.0,0.0,0.0,0.0,0.0,0.0,0.0,0.0,0.0,0.0,0.0,0.0,0.0,0.0,0.0,0.0,2.8842,0.0,0.0,0.0,0.0,0.0,0.0,0.0,0.0,0.0,0.0,0.0,3.8918,4.1149,4.3892,4.6032,4.6986,4.8454,4.9377,0.0,0.0,0.0,0.0,0.0,0.0,0.0,0.0,0.0,0.0,0.0,0.0,0.0,0.0,4.1678,3.8934,3.9163,3.9746,3.9467,0.0,0.0,0.0,0.0,0.0,0.0,0.0,0.0,0.0,0.0,0.0,0.0,0.0,0.0,0.0,0.0,3.123,0.0,0.0,0.0,0.0,0.0,0.0,0.0,0.0,4.0279,4.2241,4.391,4.4315,4.4648,0.0,4.4811,4.2569,0.0,0.0,0.0,0.0,0.0,0.0,0.0,0.0,4.6663,5.0787,5.2875,5.4755,5.6402,5.6521,5.6521,5.6521,5.5683,5.3797,5.0744,4.8109,4.5205,0.0,0.0,0.0,0.0,0.0,0.0,0.0,0.0,0.0,0.0,0.0,0.0,0.0,0.0,0.0,0.0,0.0,0.0,0.0,0.0,0.0,0.0,0.0,3.2045,0.0,0.0,0.0,0.0,0.0,0.0,0.0,0.0,0.0,3.7327,3.978,4.2379,4.41,4.6529,4.8366,4.904,0.0,0.0,0.0,0.0,0.0,0.0,0.0,4.9035,4.8173,4.8019,4.8019,4.8019,4.8204,4.8358,4.8389,0.0,0.0,4.3384,4.3612,4.4408,4.421,4.5151,4.6032,4.6261,4.6663,4.7229,0.0,0.0,0.0,0.0,0.0,0.0,0.0,0.0,3.6972,3.74,0.0,3.5892,0.0,0.0,0.0,0.0,0.0,0.0,0.0,0.0,4.5171,4.7411,4.9503,4.906,4.9143,4.9727,4.9291,4.8729,4.7867,4.3665,0.0,0.0,0.0,0.0,0.0,0.0,4.9045,5.2187,5.4192,5.5837,5.7064,5.7124,5.7124,5.7094,5.5897,5.461,5.3258,5.0797,4.8498,4.648,4.3299,0.0,0.0,0.0,0.0,0.0,0.0,0.0,0.0,0.0,0.0,0.0,0.0,0.0,0.0,0.0,0.0,0.0,0.0,0.0,0.0,3.3814,0.0,0.0,0.0,0.0,0.0,0.0,0.0,0.0,0.0,0.0,4.1346,4.3644,4.5986,4.7262,0.0,0.0,0.0,0.0,5.0851,5.0882,5.0851,5.0851,5.079,5.082,5.079,5.0728,0.0,0.0,5.0895,5.1427,5.1911,5.1889,5.2404,5.1612,4.7752,4.7656,4.8323,4.8995,4.9832,5.0746,5.1403,5.1528,5.183,4.257,0.0,0.0,0.0,0.0,4.0055,4.0618,4.1212,4.1665,4.1961,4.2058,4.0871,0.0,0.0,0.0,0.0,0.0,0.0,4.4065,4.5898,4.8845,5.0804,5.1927,5.287,5.3421,5.36,5.344,5.3047,5.236,5.1105,4.8328,4.4355,0.0,0.0,0.0,0.0,5.1236,5.3563,5.5119,5.6526,5.7812,5.7842,5.7812,5.7786,5.6555,5.5534,5.464,5.2989,5.1169,4.9172,4.6839,0.0,0.0,0.0,0.0,0.0,0.0,0.0,0.0,0.0,0.0,0.0,0.0,0.0,0.0,0.0,0.0,0.0,0.0,0.0,3.727,3.7811,3.7941,0.0,0.0,0.0,0.0,0.0,0.0,0.0,0.0,0.0,4.7671,4.7722,4.8019,0.0,0.0,5.1898,5.2113,5.2953,5.3568,5.3537,0.0,0.0,0.0,5.2829,5.2676,5.2206,5.3071,5.4078,5.4733,5.5432,5.5899,5.5899,5.6054,5.5774,5.4685,5.2856,5.207,5.2772,5.3678,5.4521,5.5171,5.5817,5.6473,4.9112,4.6627,4.4479,4.3751,4.415,4.4665,4.5236,4.5747,4.6182,4.6486,4.6591,4.5585,4.5167,4.5087,4.4119,0.0,0.0,0.0,4.8319,5.0127,5.2368,5.3952,5.4947,5.588,5.6496,5.6735,5.6735,5.6555,5.6137,5.5897,5.4017,5.0637,0.0,0.0,5.0661,5.2067,5.3623,5.5299,5.6406,5.7453,5.8471,5.8474,5.8354,5.8085,5.7363,5.6577,5.5776,5.4725,5.3393,5.178,5.011,4.7783,0.0,0.0,0.0,0.0,0.0,0.0,0.0,0.0,0.0,0.0,0.0,3.0142,0.0,0.0,0.0,0.0,3.8022,4.0022,4.1542,4.1923,0.0,0.0,0.0,0.0,0.0,0.0,0.0,4.6762,4.8478,5.0199,5.2029,5.1805,5.1374,5.1282,5.2553,5.3599,5.3868,0.0,5.5199,5.5499,5.5625,5.5572,5.517,5.5178,5.5186,5.5062,5.5821,5.6809,5.7699,5.8271,5.8671,5.8985,5.9103,5.9245,5.9624,5.8271,5.6918,5.6672,5.7394,5.8342,5.9092,5.9763,6.0298,5.4613,5.4237,5.0087,4.8257,4.8228,4.9185,4.9615,4.9721,5.0501,5.0862,5.0803,5.0022,4.9639,4.9586,4.8758,0.0,5.0549,5.1307,5.2821,5.5002,5.5801,5.6888,5.8234,5.8294,5.8653,5.9249,5.9279,5.9279,5.9219,5.8623,5.8052,5.7363,5.5025,5.4012,5.4371,5.5059,5.5987,5.7154,5.7816,5.8474,5.9099,5.9099,5.88,5.8205,5.8141,5.7701,5.6812,5.6083,5.5247,5.4248,5.2959,5.1098,4.8587,0.0,0.0,0.0,0.0,0.0,0.0,0.0,0.0,0.0,0.0,0.0,0.0,0.0,0.0,0.0,4.2856,0.0,4.5321,4.6011,0.0,0.0,0.0,4.6488,4.6549,4.7853,4.9028,4.9723,0.0,0.0,5.4768,0.0,5.5468,5.4337,5.4614,5.5168,5.5776,5.593,5.62,5.6895,5.7243,5.7442,5.7466,5.7774,5.8183,5.8731,5.8982,5.9463,6.0239,6.0556,6.0881,6.1636,6.1787,6.2019,6.2961,6.3132,6.2948,6.0837,6.1156,6.2114,6.2913,6.3288,6.3641,5.6463,5.6374,5.5266,5.4065,5.2801,5.3049,5.3284,5.3485,5.3683,5.3898,5.4047,5.3674,5.3359,5.3158,5.2935,5.3049,5.3478,5.4835,5.576,5.64,5.825,5.9284,5.9638,6.0146,6.0448,6.0625,6.0597,6.0627,6.0625,6.0475,6.0298,6.0146,5.9518,5.8052,5.5863,5.6855,5.7547,5.7846,5.8504,5.8949,5.9099,5.9099,5.9039,5.889,5.8624,5.8365,5.8113,5.7172,5.6561,5.6277,5.5001,5.3537,5.1888,4.9305,0.0,0.0,0.0,0.0,0.0,0.0,0.0,0.0,0.0,3.6283,3.7869,0.0,4.1298,0.0,4.5695,4.7701,4.851,4.9186,0.0,0.0,4.9606,4.98,5.0322,5.1142,5.2116,5.3315,5.4345,5.5499,5.6909,5.7217,5.7586,5.8208,5.7592,5.7124,5.7278,5.7771,5.8184,5.8604,5.916,5.9564,5.9873,6.0501,6.1253,6.1778,6.2465,6.3091,6.3501,6.42,6.4731,6.4973,6.4973,6.5094,6.536,6.5714,6.6169,6.618,6.5536,6.5008,6.5797,6.6659,6.7413,5.889,5.889,5.886,5.831,5.7298,5.6139,5.5682,5.5811,5.5811,5.5888,5.6047,5.6191,5.618,5.6083,5.6377,5.6644,5.6997,5.7874,5.8405,5.879,6.0002,6.0685,6.1014,6.1672,6.2121,6.2391,6.2691,6.2661,6.2391,6.2121,6.1852,6.1553,6.1253,6.0231,5.8684,5.9123,5.9431,5.9431,5.9488,5.9518,5.9518,5.9384,5.9288,5.9288,5.9251,5.916,5.8932,5.8384,5.7841,5.7356,5.6623,5.5638,5.4263,5.2245,4.9817,0.0,0.0,0.0,0.0,0.0,0.0,0.0,0.0,0.0,0.0,0.0,4.5631,0.0,4.9745,0.0,5.1876,5.2821,5.3398,5.3429,5.3429,5.3583,5.3922,5.4545,5.5376,5.6423,5.7131,5.8079,5.9403,5.9562,6.0039,6.1191,6.0722,6.0079,5.9706,6.0059,6.0521,6.0958,6.1656,6.2431,6.3216,6.3921,6.4576,6.5193,6.572,6.6199,6.6591,6.7053,6.759,6.8102,6.8249,6.8347,6.8666,6.9055,6.9556,6.9874,6.9595,6.912,6.906,6.9556,7.0146,6.1076,6.1076,6.1076,6.1076,6.0926,5.859,5.7603,5.7603,5.7603,5.7603,5.7633,5.8205,5.8474,5.8534,5.9072,5.9668,6.0206,6.0324,6.0655,6.1196,6.1375,6.1792,6.2361,6.3048,6.3617,6.4156,6.4725,6.4695,6.4126,6.3588,6.3048,6.2538,6.1849,6.1689,6.1908,6.1655,6.1395,6.1216,6.0616,6.0344,6.0344,5.9901,5.9704,5.9704,5.991,5.9871,5.9551,5.9481,5.8996,5.8116,5.7956,5.7371,5.6146,5.4822,5.3184,0.0,4.9111,0.0,0.0,0.0,0.0,0.0,0.0,0.0,0.0,4.8245,5.0266,5.2052,5.3968,5.5137,5.5229,5.6447,5.7217,5.7303,5.7309,5.7309,5.734,5.7894,5.8541,5.9101,5.9798,6.0691,6.1765,6.2012,6.2417,6.3366,6.3565,6.3357,6.2814,6.2543,6.2576,6.3348,6.4323,6.5396,6.6864,6.7496,6.7922,6.8581,6.8803,6.8992,6.9418,6.9672,7.0081,7.0982,7.1311,7.1609,7.2297,7.2526,7.2762,7.2886,7.3165,7.3053,7.2217,7.2116,7.2465,6.1076,6.1076,6.1076,6.1076,6.1074,6.0538,6.0356,6.0328,6.0356,6.0328,6.0356,6.0505,6.0538,6.0538,6.0685,6.0805,6.0954,6.1463,6.182,6.1942,6.2959,6.3528,6.3677,6.4306,6.4725,6.4815,6.4934,6.4934,6.4785,6.4695,6.4723,6.4837,6.4205,6.4018,6.4302,0.0,0.0,0.0,6.1701,6.1668,6.1637,6.1028,6.0721,6.0691,6.0441,0.0,6.022,5.9906,5.9635,5.9408,5.891,0.0,0.0,0.0,0.0,0.0,0.0,0.0,0.0,0.0,0.0,0.0,5.2323,5.1801,5.0716,5.2868,5.4522,5.4945,5.6324,5.7438,5.7962,5.8731,5.9439,5.9963,6.0024,6.0024,6.0055,6.0609,6.1101,6.1225,6.205,6.2703,6.3012,6.3223,6.3879,6.5143,6.5518,6.6,6.6819,6.4933,6.3766,6.4301,6.6046,6.7988,7.0061,7.0368,7.0625,7.1177,7.1505,7.166,7.1881,7.2532,7.2953,7.3365,7.3833,7.421,7.4435,7.4631,7.4969,7.5607,7.5951,7.5701,7.4171,7.4434,7.5185,6.2091,0.0,6.2091,6.2091,0.0,6.2091,6.2091,6.2032,6.1403,6.1076,6.1106,6.1463,6.1613,6.1613,6.1942,6.2241,6.257,6.2869,6.3199,6.3558,6.4216,6.4486,6.4515,6.5174,6.5473,6.5503,6.5832,6.5922,6.5742,6.5742,6.574,6.5732,6.54,6.5392,6.5681,6.5488,6.4608,6.3016,6.2655,6.2472,6.2472,6.1971,6.1686,6.1713,0.0,0.0,0.0,0.0,0.0,0.0,0.0,0.0,0.0,0.0,0.0,5.7285,5.648,5.5835,5.5253,5.5097,5.5558,5.6614,5.7629,5.7377,5.5345,5.6453,5.7531,5.8177,5.9162,5.9901,6.027,6.0886,6.144,6.1748,6.1809,6.1809,6.184,6.206,6.2632,6.3414,6.3976,6.4572,6.5417,6.575,6.6242,6.7094,6.7597,6.8139,6.8759,6.7546,6.6686,6.7484,6.8712,7.0302,7.1953,7.2821,7.3277,7.3906,7.4455,7.4779,7.4935,7.5384,7.5775,7.5931,7.6225,7.646,7.6494,7.6616,7.6815,7.7162,7.7361,7.7376,7.669,7.6787,7.6927,6.3437,6.3437,6.3408,6.3438,6.3408,6.3437,6.3438,6.3348,0.0,0.0,0.0,6.2211,6.251,6.266,6.3169,6.3707,6.4186,6.4186,6.4485,6.4994,6.5173,6.5263,6.5293,6.6012,6.6372,6.6402,6.6912,6.7034,6.6763,6.6763,6.667,6.6449,6.6326,6.629,6.6486,6.6746,6.611,6.4586,6.398,6.3706,6.3675,6.3254,6.2962,6.2843,6.2906,6.2891,6.2798,6.2798,6.2522,6.1998,6.1968,6.1717,6.1194,6.104,6.0732,6.0209,6.0024,5.9778,5.9372,5.9341,5.9655,6.0455,6.1656,6.1502,5.9495,5.9439,5.9963,6.1071,6.1656,6.2086,6.2333,6.2825,6.3287,6.3502,6.3506,6.3533,6.3587,6.3587,6.4247,6.5448,6.5857,6.6398,6.7672,6.8182,6.8671,6.9065,6.9569,7.02,7.0474,6.9928,6.9644,7.0692,7.1365,7.2333,7.3565,7.4569,7.5469,7.5963,7.6717,7.7397,7.7639,7.7756,7.7956,7.8004,7.8247,7.8382,7.8382,7.8382,7.8407,7.8382,7.8407,7.8551,7.9058,7.8822,7.8416,6.4695,6.4725,6.4725,6.4725,6.4725,6.4725,6.4725,6.4635,6.3378,6.3109,6.3588,6.3677,6.4066,6.4605,6.4695,6.4755,6.4845,6.4845,6.4904,0.0,6.5862,6.6282,6.6342,6.7275,6.7698,6.7698,6.7819,6.7819,6.7788,6.7788,6.7877,6.7961,6.7502,6.7098,6.6864,6.6891,6.677,6.6469,6.6408,6.6346,6.6346,6.5727,6.514,6.4555,6.3971,6.3383,6.2798,6.2829,6.2737,6.2645,6.2671,6.2614,6.2517,6.2025,6.1625,6.1502,6.0978,6.0855,6.1348,6.1379,6.1933,6.3106,6.3995,6.3595,6.1625,6.1902,6.2333,6.2548,6.2706,6.3195,6.4272,6.4549,6.5011,6.6057,6.6275,6.6388,6.6483,6.6511,6.6716,6.7357,6.7919,6.822,6.8676,6.9329,7.0038,7.0641,7.1317,7.2211,7.2813,7.2011,7.1433,7.2213,7.2887,7.3705,7.4789,7.5699,7.6417,7.6714,7.7457,7.7997,7.808,7.8486,7.8848,7.8932,7.9363,7.9735,7.9837,7.9904,7.987,7.987,7.987,7.9972,8.0107,7.9972,7.987,6.4994,6.4994,6.4994,6.4994,6.4994,6.4994,6.4994,6.4964,6.4395,6.4276,6.4516,6.4516,6.4695,6.4994,6.4994,6.5293,6.5802,6.5802,6.6102,6.6642,6.7094,6.7335,6.7365,6.7788,6.8,6.8,6.8,6.809,6.8209,6.8209,6.8387,6.8623,6.8346,6.8128,6.7997,6.7997,6.7966,6.7966,6.7289,6.6891,6.6891,6.6583,6.6304,6.5996,6.5629,6.5321,6.5042,6.5042,6.5042,6.5014,6.5042,6.5042,6.5014,6.4737,6.458,6.458,6.4303,6.4241,6.4549,6.458,6.4798,6.5414,6.5811,6.5626,6.4645,6.4491,6.4641,6.4952,6.5014,6.5288,6.5934,6.5996,6.6214,6.6798,6.7031,6.717,6.728,6.748,6.7915,6.8673,6.9071,6.9554,7.0398,7.1102,7.17,7.2215,7.2915,7.374,7.4473,7.3948,7.3508,7.3865,7.4237,7.4914,7.5951,7.6791,7.7448,7.801,7.8686,7.9126,7.9194,7.9532,7.9667,7.9701,8.0006,8.0344,8.0648,8.0784,8.0953,8.1359,8.1393,8.1393,8.1393,8.1393,8.1122,6.5473,6.5443,6.5443,6.5443,6.5443,6.5443,6.5443,6.5473,6.5533,6.5563,6.5533,6.5413,6.5413,6.5563,6.5652,6.6102,6.6763,6.6823,6.7275,6.7969,6.806,6.812,6.812,6.8149,6.8209,6.8209,6.8209,6.8298,6.8506,6.8505,6.8654,6.8889,6.8919,6.8919,6.8919,6.8919,6.8919,6.8857,6.7873,6.735,6.735,6.735,6.7289,6.7106,6.7135,6.7073,6.6919,6.6891,6.6891,6.6891,6.6891,6.6891,6.6891,6.6891,6.6891,6.6891,6.6891,6.6891,6.6891,6.7014,6.7106,6.7137,6.7289,6.7379,6.7405,6.7002,6.6699,6.6888,6.6768,6.6888,6.7128,6.7249,6.7311,6.752,6.7719,6.8005,6.8115,6.8336,6.8969,7.0002,7.0345,7.0945,7.2041,7.2814,7.3246,7.3709,7.4306,7.4787,7.5115,7.5301,7.5301,7.5396,7.5378,7.5715,7.6734,7.7468,7.8179,7.8966,7.9667,8.0073,8.0276,8.0412,8.0581,8.0682,8.075,8.0987,8.1426,8.1528,8.1765,8.2137,8.2238,8.228,8.2246,8.2246,8.2069,6.6789,6.6819,6.6759,6.6819,6.679,6.682,6.679,6.682,6.7124,6.7246,6.7125,6.6643,6.6703,6.7246,6.7547,6.7697,6.7818,6.7879,6.7909,6.8029,6.8238,6.8357,6.8417,6.8654,6.883,6.8801,6.8801,6.8772,6.883,6.883,6.8829,6.8889,6.8919,6.8919,6.8919,6.8919,6.8919,6.8919,6.8766,6.8734,6.8705,6.8705,6.8427,6.7814,6.7814,6.7506,6.7014,6.6891,6.6891,6.6891,6.6921,6.6921,6.6921,6.6891,6.6891,6.6921,6.6921,6.6891,6.6952,6.7445,6.7814,6.7844,6.8335,6.8789,6.9081,6.9048,6.8407,6.7375,6.695,6.7401,6.8122,6.8272,6.8543,6.9238,6.9418,6.9771,7.0186,7.0612,7.1059,7.1696,7.2089,7.2749,7.3096,7.3646,7.4256,7.4852,7.5058,7.531,7.5629,7.5725,7.5986,7.6391,7.6169,7.6135,7.6927,7.7536,7.8348,7.9034,7.9735,8.0412,8.0911,8.1181,8.1359,8.1697,8.2035,8.2069,8.2238,8.2306,8.234,8.2644,8.2652,8.2509,8.2415,8.2543,8.2408,6.6999,6.6999,6.6999,6.7091,6.7274,6.7304,6.7426,6.7608,6.7729,6.7789,6.7789,6.7666,6.7697,6.7819,6.794,6.809,6.8238,6.8238,6.8358,6.8535,6.8654,6.8713,6.8713,6.883,6.8919,6.8919,6.8919,6.8919,6.8919,6.8919,6.8919,6.8919,6.8919,6.8919,6.8919,6.8919,6.8919,6.8919,6.8919,6.8919,6.8919,6.8919,6.8766,6.852,6.8489,6.8366,6.812,6.8089,6.8089,6.8058,6.8058,6.8058,6.8089,6.8089,6.8089,6.8089,6.8089,6.8089,6.8089,6.8335,6.8489,6.8489,6.8911,6.924,6.9385,6.953,6.9308,6.8758,6.8605,6.8818,6.9179,6.921,6.9449,6.9984,7.0246,7.0554,7.114,7.1498,7.1901,7.2656,7.2972,7.3422,7.3927,7.4481,7.4975,7.5446,7.5542,7.5793,7.626,7.6386,7.6724,7.7299,7.7232,7.7401,7.801,7.8416,7.8957,7.9634,8.0378,8.1021,8.1257,8.1731,8.2069,8.2408,8.2509,8.2712,8.2983,8.3084,8.3152,8.3362,8.3667,8.37,8.3727,8.3727,8.37,6.706,6.7152,6.7243,6.7426,6.7638,6.7638,6.7789,6.8,6.809,6.812,6.8119,6.8386,6.8447,6.8238,6.8238,6.8358,6.8505,6.8534,6.8653,6.8889,6.8919,6.8919,6.8919,6.8919,6.8919,6.8919,6.8919,6.8919,6.8919,6.8919,6.8919,6.8919,6.8919,6.8919,6.8919,6.8919,6.8982,6.9135,6.9166,6.9228,6.9413,6.9443,6.9259,6.898,6.8919,6.8919,6.8919,6.8919,6.8919,6.8919,6.8919,6.8919,6.8919,6.8919,6.8919,6.8919,6.8919,6.8919,6.8919,6.8919,6.8948,6.9036,6.9269,6.9501,6.9732,6.9933,7.0158,7.041,7.0413,7.0322,7.0075,7.0186,7.0413,7.0726,7.1033,7.1447,7.1987,7.231,7.2853,7.3755,7.4145,7.4408,7.5206,7.5802,7.6202,7.6405,7.642,7.6487,7.7029,7.7232,7.7468,7.8145,7.828,7.8483,7.8991,7.9025,7.9464,8.0276,8.0987,8.1359,8.1731,8.2408,8.2915,8.3287,8.3024,8.3126,8.3633,8.3828,8.3862,8.4343,8.4546,8.4512,8.4411,8.4546,8.4546,6.7213,6.7517,6.7819,6.794,6.797,6.797,6.8,6.809,6.8298,6.8357,6.8416,6.8742,6.886,6.883,6.8801,6.886,6.886,6.886,6.886,6.8919,6.8919,6.8919,6.8919,6.8919,6.8919,6.8919,6.8919,6.8949,6.8949,6.8949,6.8919,6.892,6.9012,6.898,6.9042,6.9043,6.9228,6.9782,6.9843,7.012,7.0675,7.0767,7.012,6.9135,6.8949,6.9011,6.8949,6.8949,6.8949,6.8919,6.8919,6.8919,6.8919,6.8919,6.8919,6.8919,6.8919,6.8919,6.8919,6.8948,6.9065,6.9329,6.9505,6.9792,7.0539,7.0827,7.1223,7.1835,7.1958,7.1712,7.1132,7.1354,7.1708,7.204,7.2305,7.2739,7.3227,7.3651,7.4247,7.5287,7.5731,7.6216,7.7178,7.7702,7.769,7.7705,7.7807,7.7841,7.7899,7.7942,7.828,7.8822,7.9092,7.9092,7.916,7.9464,7.9972,8.0716,8.1359,8.1799,8.2712,8.3524,8.3862,8.414,8.4106,8.4208,8.4444,8.4512,8.4444,8.458,8.458,8.458,8.458,8.458,8.458,6.7729,6.7819,6.794,6.812,6.8268,6.8268,6.8387,6.8565,6.8683,6.8742,6.8742,6.886,6.8919,6.8919,6.8919,6.8919,6.8919,6.8919,6.8919,6.8919,6.8919,6.8919,6.8919,6.8919,6.8919,6.8919,6.8919,6.9134,6.9505,6.9536,6.9751,7.012,7.0182,7.0182,7.0182,7.0182,7.0305,7.0521,7.0551,7.0675,7.0921,7.089,7.0644,7.0213,7.0182,6.9967,6.9536,6.9536,6.932,6.8949,6.8919,6.8919,6.8919,6.8919,6.8919,6.8919,6.9094,6.9211,6.924,6.9385,6.953,6.9705,7.0454,7.1048,7.1509,7.2305,7.3063,7.3421,7.3934,7.402,7.3761,7.3253,7.3269,7.4057,7.4342,7.4681,7.5322,7.5639,7.602,7.6735,7.7127,7.7484,7.7803,7.7961,7.801,7.801,7.801,7.8247,7.8619,7.872,7.8957,7.9667,8.0209,8.0513,8.0513,8.0513,8.0784,8.1325,8.19,8.2644,8.3456,8.4065,8.4471,8.4647,8.4817,8.485,8.4918,8.4918,8.4884,8.4817,8.4817,8.4918,8.458,8.4918,8.4817,6.8789,6.8819,6.8879,6.9029,6.9208,6.9208,6.9357,6.9536,6.9536,6.9536,6.9536,6.9536,6.9536,6.9536,6.9536,6.9536,6.9505,6.932,6.9197,6.9257,6.9443,6.9536,6.9536,6.9536,6.9536,6.9536,6.9536,6.9782,7.0151,7.0244,7.0459,7.0859,7.089,7.089,7.089,7.089,7.0982,7.1167,7.1259,7.1352,7.1536,7.1567,7.1567,7.1567,7.1567,7.1136,7.0274,7.0213,7.0028,6.9628,6.9536,6.9595,6.9684,6.9713,6.9772,6.986,7.0097,7.0241,7.0359,7.0531,7.0733,7.0934,7.1829,7.2482,7.274,7.3798,7.4494,7.4936,7.534,7.5826,7.6156,7.5621,7.5351,7.5872,7.5977,7.6324,7.695,7.7052,7.7355,7.7942,7.847,7.8662,7.872,7.872,7.8754,7.872,7.872,7.8957,7.9329,7.9498,7.9735,8.0412,8.0911,8.1257,8.1562,8.1731,8.1968,8.2441,8.2678,8.3389,8.42,8.4708,8.5046,8.5189,8.529,8.5324,8.5324,8.5324,8.529,8.5256,8.5527,8.5797,8.5561,8.5459,8.5459,7.0435,7.0404,7.0769,7.0707,7.0675,7.0645,7.0798,7.0736,7.0797,7.0766,7.0704,7.0797,7.0795,7.0858,7.0795,7.0828,7.0643,7.0273,6.9996,6.9967,7.049,7.0736,7.0736,7.0675,7.0675,7.0705,7.0828,7.0859,7.0921,7.0921,7.0982,7.0982,7.1105,7.1167,7.0982,7.1136,7.1352,7.1844,7.1998,7.2306,7.286,7.2829,7.2799,7.2891,7.2891,7.2306,7.1074,7.0951,7.092,7.0858,7.0827,7.104,7.1186,7.1245,7.1487,7.1631,7.1811,7.205,7.2282,7.2306,7.259,7.3019,7.3543,7.3968,7.4503,7.5044,7.5656,7.6241,7.653,7.6923,7.7995,7.8114,7.7777,7.7073,7.7183,7.7472,7.7682,7.7681,7.8017,7.8925,7.9566,8.0107,8.0141,7.9938,7.987,7.987,8.0006,8.0073,8.0209,8.031,8.0581,8.1088,8.1621,8.2002,8.2509,8.2983,8.3287,8.3592,8.3727,8.4133,8.5114,8.5757,8.5926,8.6095,8.6169,8.6203,8.6169,8.6169,8.6305,8.6338,8.6575,8.6569,8.6338,8.6203,8.6406,7.0769,7.08,7.0891,7.089,7.089,7.089,7.089,7.092,7.1132,7.1252,7.1282,7.1491,7.1579,7.161,7.1579,7.1491,7.1252,7.1468,7.1255,7.0796,7.0828,7.0952,7.0921,7.0921,7.089,7.089,7.089,7.1167,7.1598,7.1659,7.1844,7.2244,7.2337,7.2368,7.2306,7.2337,7.2522,7.2645,7.2675,7.2829,7.2983,7.3014,7.3107,7.3293,7.3355,7.3169,7.2948,7.2301,7.1836,7.1612,7.1579,7.1639,7.1788,7.1966,7.2113,7.2259,7.2667,7.2981,7.3295,7.3554,7.384,7.4263,7.4919,7.5509,7.6022,7.6876,7.7536,7.8046,7.8445,7.8974,7.927,7.9482,7.9356,7.8924,7.8942,7.9061,7.9297,7.9373,7.9558,7.9778,8.0073,8.0175,8.0209,8.0242,8.0344,8.0378,8.0682,8.0978,8.0987,8.1325,8.1731,8.2035,8.2408,8.2813,8.3389,8.4065,8.464,8.4843,8.4979,8.5148,8.6027,8.6569,8.6738,8.6974,8.7042,8.7049,8.7015,8.7049,8.7177,8.7076,8.7008,8.6941,8.6879,8.7015,8.7245,7.169,7.169,7.166,7.166,7.169,7.1812,7.1873,7.1934,7.2176,7.2326,7.2417,7.2717,7.2745,7.2685,7.2775,7.2626,7.2388,7.2762,7.2609,7.2056,7.1751,7.169,7.169,7.1812,7.1934,7.1994,7.2024,7.2241,7.2674,7.2705,7.2922,7.3262,7.3324,7.3293,7.3324,7.3324,7.3324,7.3324,7.3324,7.3448,7.3695,7.3757,7.3974,7.4377,7.4531,7.4746,7.499,7.4643,7.3954,7.3113,7.2923,7.3071,7.3189,7.3514,7.3715,7.3918,7.4292,7.4747,7.5075,7.5427,7.5634,7.6082,7.6741,7.722,7.7588,7.8392,7.8936,7.9251,7.9503,7.9853,7.9955,8.0378,8.0505,8.0385,8.0326,8.0538,8.0894,8.1021,8.1021,8.1054,8.1088,8.1021,8.1021,8.1021,8.1021,8.1122,8.1393,8.1697,8.1799,8.2103,8.2408,8.2746,8.305,8.3592,8.4362,8.5107,8.5919,8.6163,8.6298,8.6535,8.7076,8.7279,8.7448,8.7854,8.8057,8.8091,8.8091,8.7989,8.8023,8.7753,8.7583,8.7854,8.8023,8.7955,8.8057,7.2983,7.3014,7.3015,7.2953,7.3015,7.3262,7.3384,7.3539,7.3782,7.387,7.4023,7.4289,7.4322,7.4175,7.4347,7.4258,7.4025,7.3931,7.3901,7.3688,7.3322,7.3077,7.2984,7.3169,7.3352,7.3596,7.3658,7.3781,7.375,7.3781,7.3935,7.3935,7.3966,7.3966,7.3966,7.3966,7.3966,7.3966,7.4028,7.4403,7.4965,7.509,7.5401,7.5994,7.6303,7.6579,7.6912,7.7357,7.682,7.5062,7.5018,7.5188,7.5486,7.5777,7.5902,7.6128,7.6597,7.6948,7.7429,7.7402,7.768,7.8192,7.8498,7.8962,7.8862,7.9139,7.9466,7.975,7.9954,8.0056,8.0403,8.0953,8.1325,8.1426,8.1401,8.1604,8.2212,8.2272,8.2137,8.2205,8.2348,8.2348,8.2179,8.2179,8.2238,8.2272,8.2306,8.2441,8.2543,8.2746,8.2949,8.3321,8.3795,8.4336,8.5107,8.6027,8.6771,8.7042,8.7279,8.7651,8.7854,8.7989,8.8091,8.8531,8.8767,8.8903,8.8903,8.87,8.8666,8.8564,8.8694,8.9066,8.8998,8.8728,8.8626,7.3138,7.3355,7.3355,7.3478,7.3662,7.3784,7.3936,7.4178,7.4478,7.4866,7.5279,7.5629,7.5832,7.5945,7.5803,7.56,7.5279,7.5075,7.4838,7.4659,7.4509,7.4118,7.3722,7.3753,7.3844,7.3966,7.4056,7.4026,7.4269,7.4328,7.4479,7.4629,7.4719,7.4657,7.4659,7.4657,7.4627,7.4722,7.5193,7.5445,7.5729,7.6263,7.667,7.7072,7.75,7.7798,7.8093,7.8852,7.8899,7.7841,7.7233,7.7065,7.7145,7.7216,7.7265,7.7404,7.7812,7.8182,7.8517,7.8597,7.8784,7.9094,7.9392,7.9362,7.9536,7.9647,7.9827,8.0099,8.0513,8.0944,8.1122,8.1663,8.2238,8.2746,8.2475,8.2272,8.2441,8.2382,8.2382,8.2382,8.2449,8.2517,8.2517,8.2517,8.2517,8.2611,8.2915,8.3219,8.3287,8.3727,8.4065,8.437,8.4776,8.5249,8.5919,8.6839,8.7516,8.782,8.8158,8.8592,8.8694,8.8728,8.8829,8.9032,8.8965,8.9032,8.9066,8.8965,8.91,8.9134,8.9134,8.9134,8.9134,8.8965,8.8931,7.3386,7.3662,7.3815,7.3966,7.4117,7.4419,7.4719,7.5016,7.5337,7.5745,7.6206,7.6662,7.6803,7.6686,7.6803,7.6577,7.6178,7.6038,7.5832,7.5687,7.5658,7.5249,7.4687,7.4539,7.4568,7.4747,7.4836,7.5043,7.522,7.5308,7.5484,7.5658,7.5658,7.5658,7.5687,7.5658,7.5658,7.5783,7.6358,7.6806,7.7189,7.786,7.8461,7.8955,7.9408,7.9847,8.0456,8.1026,8.0711,7.9582,7.9092,7.9032,7.9028,7.9056,7.9073,7.91,7.954,7.9922,8.0127,8.018,8.0345,8.0614,8.0632,8.0736,8.0873,8.0891,8.0968,8.1206,8.1562,8.1697,8.1866,8.2408,8.3186,8.3727,8.3592,8.3328,8.3295,8.3396,8.3328,8.3328,8.3295,8.3321,8.3328,8.3295,8.3295,8.3396,8.3761,8.393,8.4005,8.4647,8.5148,8.5317,8.5723,8.623,8.6636,8.7448,8.8023,8.8361,8.8592,8.9066,8.9134,8.9134,8.91,8.91,8.91,8.9134,8.9134,8.9134,8.9134,8.9134,8.9134,8.9134,8.9134,8.9134,8.9134,7.3723,7.4026,7.4358,7.4569,7.4748,7.5252,7.5719,7.6005,7.6292,7.6662,7.7083,7.7592,7.7779,7.7153,7.803,7.7766,7.7292,7.7422,7.7203,7.7142,7.7021,7.6678,7.598,7.5603,7.56,7.5803,7.6178,7.6292,7.6378,7.6601,7.6798,7.6855,7.6883,7.6883,7.6883,7.6883,7.6883,7.7045,7.7788,7.8437,7.9026,7.974,8.0451,8.0929,8.1465,8.2132,8.2759,8.3127,8.2383,8.0405,8.0686,8.0818,8.09,8.1113,8.1082,8.1036,8.125,8.1576,8.1896,8.1787,8.1993,8.2109,8.2194,8.2382,8.2187,8.2119,8.2119,8.2111,8.2415,8.2577,8.2813,8.3287,8.3768,8.4309,8.4478,8.4546,8.458,8.458,8.458,8.458,8.4546,8.458,8.4681,8.4715,8.4715,8.485,8.5019,8.508,8.5189,8.5527,8.5858,8.596,8.6501,8.7211,8.7617,8.8057,8.8463,8.8829,8.8863,8.9134,8.9134,8.9134,8.9134,8.9134,8.9134,8.9134,8.9134,8.9134,8.9134,8.9134,8.9134,8.9134,8.9134,8.9134,8.9134,7.4389,7.4748,7.5249,7.5629,7.5919,7.6264,7.6746,7.7255,7.7311,7.7818,7.8449,7.9181,7.9494,7.9641,7.9965,8.0243,7.9925,7.9727,7.9573,7.8985,7.8985,7.8541,7.7746,7.7069,7.6552,7.6605,7.6573,7.6855,7.725,7.7444,7.7632,7.8041,7.8014,7.8128,7.8068,7.8014,7.8095,7.8326,7.932,8.0018,8.0446,8.144,8.2165,8.2419,8.2761,8.3187,8.3604,8.3878,8.3737,8.3239,8.2701,8.244,8.226,8.2013,8.1946,8.1999,8.2143,8.2293,8.2345,8.2439,8.2363,8.2551,8.2584,8.2382,8.2382,8.2509,8.2475,8.2543,8.2915,8.3456,8.387,8.4208,8.4377,8.4546,8.458,8.458,8.458,8.458,8.458,8.458,8.4647,8.4843,8.5418,8.5486,8.5723,8.6203,8.6338,8.6372,8.6406,8.6467,8.6602,8.667,8.7279,8.7888,8.8091,8.8429,8.8728,8.8998,8.9066,8.9134,8.9134,8.9134,8.9134,8.9134,8.9134,8.9134,8.9134,8.9134,8.9134,8.9134,8.9134,8.9134,8.9134,8.9134,8.9134,7.522,7.5632,7.67,7.7261,7.7519,7.8234,7.8842,7.9199,7.9254,7.9586,8.0168,8.0748,8.0962,8.1055,8.1364,8.1417,8.1317,8.1182,8.0901,8.0574,8.0507,8.0308,8.0014,7.9236,7.8607,7.7828,7.7687,7.7932,7.8155,7.8376,7.8617,7.8883,7.8909,7.8883,7.8936,7.8936,7.8909,7.9176,8.0368,8.1107,8.134,8.2505,8.3354,8.3438,8.3665,8.4012,8.4715,8.4885,8.5141,8.5216,8.4905,8.4284,8.3679,8.3375,8.3252,8.3245,8.3325,8.343,8.343,8.343,8.3464,8.3396,8.343,8.343,8.3396,8.3396,8.3396,8.3524,8.3828,8.4234,8.4546,8.458,8.458,8.458,8.458,8.458,8.458,8.4614,8.458,8.4681,8.4979,8.5283,8.5655,8.6095,8.6366,8.6738,8.6738,8.6771,8.6873,8.6974,8.7313,8.755,8.8125,8.8497,8.8598,8.8795,8.8965,8.9066,8.91,8.9134,8.9134,8.9134,8.9134,8.9134,8.9134,8.9134,8.9134,8.9134,8.9134,8.9134,8.9134,8.9134,8.9134,8.9134,8.9134,7.6396,7.6803,7.8388,7.9072,7.9254,8.0278,8.0832,8.1169,8.1229,8.123,8.1732,8.2064,8.2078,8.2039,8.2367,8.228,8.2181,8.2161,8.2168,8.1926,8.1866,8.1698,8.1504,8.123,8.0675,7.9196,7.9269,7.9369,7.9334,7.9444,7.953,7.9559,7.9518,7.9518,7.9518,7.9518,7.9619,7.9954,8.1027,8.1866,8.21,8.3241,8.3987,8.4426,8.4507,8.4986,8.5655,8.5939,8.6169,8.6812,8.6879,8.6169,8.5358,8.4952,8.4952,8.4952,8.4952,8.485,8.4708,8.4708,8.4674,8.4647,8.4546,8.4546,8.4478,8.4377,8.4343,8.4411,8.4512,8.4512,8.458,8.458,8.458,8.458,8.458,8.458,8.4614,8.4681,8.485,8.4945,8.5317,8.5723,8.6298,8.6805,8.7008,8.7211,8.7211,8.7245,8.738,8.755,8.7922,8.8158,8.8598,8.8795,8.8897,8.8897,8.91,8.9134,8.9134,8.9134,8.9134,8.9134,8.9134,8.9134,8.9134,8.9134,8.9134,8.9134,8.9134,8.9134,8.9134,8.9134,8.9134,8.9134,8.9134,7.8271,7.8443,8.0052,8.0705,8.0765,8.129,8.1692,8.1831,8.1932,8.2016,8.236,8.2945,8.3216,8.3325,8.3865,8.4068,8.3819,8.3725,8.3583,8.3211,8.3076,8.2908,8.2477,8.245,8.2053,8.1772,8.1375,8.1008,8.0629,8.0625,8.05,8.0175,8.0166,8.0166,8.0175,8.0116,8.0478,8.0925,8.1802,8.2503,8.311,8.3988,8.4797,8.5311,8.5412,8.5939,8.6507,8.6738,8.6771,8.6879,8.6879,8.6778,8.6602,8.6507,8.644,8.6305,8.6271,8.6061,8.5689,8.5587,8.5215,8.4783,8.4681,8.4614,8.4614,8.458,8.458,8.458,8.458,8.458,8.458,8.458,8.458,8.458,8.4681,8.4681,8.4783,8.5182,8.5621,8.5757,8.596,8.623,8.6907,8.7516,8.7854,8.8057,8.8158,8.8226,8.8328,8.8491,8.8728,8.8863,8.8998,8.9066,8.9066,8.9066,8.9134,8.9134,8.9134,8.9134,8.9134,8.9134,8.9134,8.9134,8.9134,8.9134,8.9134,8.9134,8.9134,8.9134,8.9134,8.9134,8.9134,8.9134,8.9134,7.9606,8.0052,8.1523,8.2121,8.2275,8.2858,8.3214,8.332,8.3346,8.3426,8.3606,8.393,8.4099,8.414,8.4377,8.458,8.4614,8.458,8.4377,8.4099,8.4065,8.3964,8.3531,8.3498,8.3531,8.3452,8.3233,8.2513,8.176,8.1659,8.1501,8.1443,8.1359,8.1359,8.1359,8.1401,8.1494,8.2002,8.2577,8.3118,8.3625,8.4573,8.5418,8.5757,8.623,8.6738,8.7313,8.7482,8.7685,8.7989,8.8057,8.8023,8.7989,8.7922,8.7685,8.711,8.6947,8.6805,8.6433,8.6332,8.6027,8.5351,8.5215,8.4952,8.4715,8.458,8.458,8.458,8.458,8.458,8.458,8.458,8.458,8.4681,8.4945,8.5182,8.5384,8.596,8.6366,8.6704,8.7042,8.7313,8.7617,8.8192,8.866,8.8931,8.91,8.9134,8.9134,8.9134,8.9134,8.91,8.91,8.91,8.9134,8.9134,8.9134,8.9134,8.9134,8.9134,8.9134,8.9134,8.9134,8.9134,8.9134,8.9134,8.9134,8.9134,8.9134,8.9134,8.9134,8.9134,8.9134,8.9134,8.9134,8.0956,8.1604,8.2858,8.3409,8.3536,8.4229,8.4546,8.458,8.4546,8.4614,8.4817,8.4843,8.4843,8.4783,8.4681,8.4647,8.4783,8.485,8.4952,8.5155,8.5121,8.5053,8.485,8.4817,8.4647,8.4309,8.435,8.3903,8.2795,8.2592,8.2517,8.2272,8.2314,8.2382,8.228,8.2145,8.2408,8.278,8.3152,8.3558,8.4234,8.508,8.602,8.6257,8.6805,8.7482,8.8125,8.8226,8.8429,8.8795,8.8998,8.9032,8.91,8.91,8.8558,8.7583,8.738,8.7279,8.7144,8.711,8.6805,8.6095,8.5858,8.5452,8.5046,8.4783,8.458,8.458,8.458,8.458,8.458,8.458,8.4715,8.5012,8.5418,8.5885,8.6163,8.6636,8.7211,8.7617,8.8023,8.826,8.8395,8.8497,8.8931,8.8965,8.9134,8.9134,8.9134,8.9134,8.9134,8.9134,8.91,8.91,8.9134,8.9134,8.9134,8.9134,8.9134,8.9134,8.9134,8.9134,8.9134,8.9134,8.9134,8.9134,8.9134,8.9134,8.9134,8.9134,8.9134,8.9134,8.9134,8.9134,8.9134,8.2784,8.2946,8.3981,8.4452,8.4391,8.4546,8.4614,8.4614,8.4681,8.5046,8.5655,8.5655,8.5655,8.5554,8.4952,8.5114,8.5486,8.5655,8.5892,8.6237,8.6338,8.6095,8.5723,8.5655,8.5317,8.5019,8.4817,8.4167,8.3693,8.3524,8.305,8.2686,8.2652,8.2449,8.2712,8.2754,8.2746,8.3287,8.349,8.42,8.5283,8.5757,8.6535,8.7313,8.782,8.8158,8.8734,8.8829,8.8998,8.9032,8.9134,8.9134,8.9134,8.9134,8.9066,8.8897,8.8795,8.8531,8.7989,8.7854,8.755,8.6839,8.6298,8.5858,8.5452,8.5046,8.4715,8.458,8.4647,8.4783,8.485,8.4749,8.5012,8.5452,8.5926,8.6366,8.6704,8.738,8.7989,8.8158,8.8463,8.8728,8.8931,8.8998,8.91,8.91,8.9134,8.9134,8.9134,8.9134,8.9134,8.9134,8.9134,8.9134,8.9134,8.9134,8.9134,8.9134,8.9134,8.9134,8.9134,8.9134,8.9134,8.9134,8.9134,8.9134,8.9134,8.9134,8.9134,8.9134,8.9134,8.9134,8.9134,8.9134,8.9134,8.3947,8.3981,8.4418,8.458,8.458,8.458,8.485,8.5249,8.5283,8.5723,8.6332,8.6433,8.6433,8.6332,8.6,8.6095,8.6399,8.6433,8.6569,8.6907,8.6941,8.6771,8.6501,8.6433,8.6163,8.5899,8.5865,8.5933,8.5249,8.4505,8.387,8.37,8.3633,8.37,8.3592,8.3633,8.3802,8.42,8.4606,8.5351,8.623,8.6839,8.7347,8.7989,8.8395,8.8767,8.8998,8.9134,8.9134,8.9134,8.9134,8.9134,8.9134,8.9134,8.91,8.91,8.91,8.8931,8.8694,8.8598,8.8192,8.7719,8.7144,8.6738,8.6054,8.552,8.5283,8.5283,8.5283,8.5418,8.5757,8.5899,8.6095,8.6366,8.6636,8.7042,8.7516,8.8158,8.8694,8.8795,8.8863,8.8998,8.9134,8.9134,8.9134,8.9134,8.9134,8.9134,8.9134,8.9134,8.9134,8.9134,8.9134,8.9134,8.9134,8.9134,8.9134,8.9134,8.9134,8.9134,8.9134,8.9134,8.9134,8.9134,8.9134,8.9134,8.9134,8.9134,8.9134,8.9134,8.9134,8.9134,8.9134,8.9134,8.9134,8.5155,8.5121,8.4783,8.4681,8.4884,8.4911,8.5351,8.6027,8.6061,8.6501,8.7042,8.7177,8.7177,8.711,8.6974,8.6873,8.7177,8.7177,8.7313,8.738,8.7414,8.738,8.7245,8.7177,8.7076,8.6879,8.6643,8.6643,8.6372,8.5831,8.5222,8.5121,8.4877,8.4877,8.485,8.4877,8.4945,8.529,8.5757,8.6399,8.711,8.7651,8.7989,8.8361,8.8734,8.9134,8.9134,8.9134,8.9134,8.9134,8.9134,8.9134,8.9134,8.9134,8.9134,8.9134,8.9134,8.91,8.9032,8.8965,8.8795,8.8429,8.7955,8.7313,8.6366,8.6061,8.6061,8.6061,8.6061,8.6366,8.6704,8.6778,8.6941,8.7144,8.755,8.7922,8.8294,8.8694,8.8931,8.8965,8.8998,8.9032,8.9134,8.9134,8.9134,8.9134,8.9134,8.91,8.91,8.9128,8.9162,8.9128,8.9128,8.9128,8.91,8.91,8.9134,8.9134,8.9134,8.9134,8.9134,8.9134,8.9134,8.9134,8.9134,8.9134,8.9134,8.9134,8.9134,8.9134,8.9134,8.9134,8.9134,8.9134,8.9134,8.671,8.6609,8.5222,8.5114,8.5689,8.5689,8.6129,8.6805,8.6839,8.7245,8.7888,8.7922,8.7922,8.7786,8.7448,8.7448,8.7922,8.7922,8.8226,8.8632,8.8897,8.8395,8.8091,8.7854,8.7651,8.715,8.7245,8.7177,8.6947,8.7042,8.6738,8.667,8.6027,8.579,8.5723,8.5723,8.6061,8.6433,8.6771,8.7177,8.7719,8.8091,8.8328,8.8863,8.9066,8.9134,8.9134,8.9134,8.9134,8.9134,8.9134,8.9134,8.9134,8.9134,8.9134,8.9134,8.9134,8.9134,8.9134,8.9134,8.91,8.8863,8.8429,8.7786,8.6941,8.6839,8.6812,8.6839,8.6839,8.6941,8.7008,8.6981,8.7516,8.782,8.8158,8.8361,8.8632,8.8863,8.9066,8.91,8.9134,8.9134,8.9134,8.9134,8.9134,8.9134,8.91,8.91,8.9184,8.9184,8.9184,8.9184,8.9184,8.9156,8.9128,8.9128,8.9184,8.9128,8.9134,8.9134,8.9134,8.9134,8.91,8.9134,8.9134,8.9134,8.9134,8.9134,8.9134,8.9134,8.9134,8.9134,8.9134,8.9134,8.9134,8.6879,8.6839,8.6237,8.6196,8.6467,8.6467,8.6907,8.7516,8.7583,8.7989,8.8632,8.8694,8.8694,8.8592,8.8463,8.8361,8.8632,8.8694,8.8897,8.8998,8.9032,8.8931,8.8694,8.8626,8.8531,8.8226,8.8192,8.8226,8.8294,8.8091,8.8226,8.7922,8.7042,8.6602,8.6467,8.6501,8.6907,8.738,8.7617,8.7955,8.8497,8.8666,8.8829,8.9032,8.91,8.9134,8.9134,8.9134,8.9134,8.9134,8.9134,8.9134,8.9134,8.9134,8.9134,8.9134,8.9134,8.9134,8.9134,8.9134,8.9134,8.9066,8.8795,8.8389,8.7651,8.7583,8.7583,8.7583,8.7583,8.7651,8.8192,8.826,8.8463,8.8626,8.8728,8.8835,8.8931,8.9066,8.9156,8.9156,8.9128,8.9134,8.9134,8.9134,8.9134,8.91,8.91,8.9156,8.9268,8.9351,8.9379,8.9468,8.9496,8.9407,8.9413,8.9357,8.9268,8.9212,8.919,8.9246,8.9274,8.91,8.91,8.91,8.919,8.9218,8.9218,8.9162,8.91,8.91,8.91,8.9134,8.9134,8.9134,8.9134,8.755,8.755,8.755,8.7448,8.7245,8.7245,8.7651,8.826,8.8328,8.8564,8.91,8.9134,8.9134,8.9134,8.91,8.9066,8.9032,8.9066,8.91,8.9134,8.9134,8.9134,8.9134,8.9066,8.8998,8.9134,8.9134,8.9032,8.8965,8.91,8.8998,8.866,8.8125,8.7617,8.7245,8.7279,8.7617,8.8125,8.8361,8.8497,8.9066,8.9066,8.9066,8.91,8.91,8.9134,8.9134,8.9134,8.9134,8.9134,8.9134,8.9134,8.9134,8.9134,8.9134,8.9134,8.9134,8.9134,8.9134,8.9134,8.9134,8.91,8.91,8.8795,8.8463,8.8328,8.8328,8.8328,8.8361,8.8558,8.9162,8.8965,8.8897,8.8931,8.8931,8.9032,8.9032,8.9134,8.9184,8.924,8.924,8.9295,8.9468,8.9496,8.9379,8.9407,8.9496,8.9551,8.9606,8.9689,8.9744,8.9799,8.9854,8.9771,8.9689,8.9662,8.9634,8.9606,8.9551,8.9524,8.9496,8.9323,8.9323,8.9496,8.9524,8.9413,8.944,8.9524,8.9323,8.91,8.9128,8.9156,8.9134,8.9134,8.9134,8.8998,8.9066,8.8998,8.8592,8.7989,8.7989,8.8361,8.8903,8.8998,8.9032,8.91,8.9134,8.9134,8.9134,8.9134,8.9134,8.9134,8.9134,8.9134,8.9134,8.9134,8.9134,8.9134,8.9134,8.9134,8.9134,8.9134,8.9134,8.9134,8.9134,8.9134,8.9134,8.8795,8.8463,8.8023,8.7989,8.8361,8.8965,8.8998,8.9032,8.9066,8.9134,8.9134,8.9134,8.9134,8.9134,8.9134,8.9134,8.9134,8.9134,8.9134,8.9134,8.9134,8.9134,8.9134,8.9134,8.9134,8.9134,8.9134,8.91,8.9128,8.9128,8.9128,8.9054,8.906,8.906,8.9042,8.9024,8.907,8.9082,8.919,8.919,8.9218,8.9274,8.9274,8.9301,8.9329,8.9329,8.944,8.9524,8.9517,8.9572,8.9799,8.9908,8.9771,8.9737,8.9854,8.9935,8.9963,8.999,9.0044,9.018,9.0234,9.0099,9.0044,8.999,8.9963,8.9963,8.9881,8.9771,8.9771,8.9744,8.9799,8.9881,8.9826,8.9689,8.9799,8.9935,8.9689,8.9407,8.9268,8.924,8.9156,8.9218,8.9301,8.9134,8.9134,8.9134,8.8965,8.8734,8.8734,8.8897,8.9072,8.9134,8.9134,8.9134,8.9134,8.9134,8.9134,8.9134,8.9134,8.9134,8.9134,8.9134,8.9134,8.9134,8.9134,8.9134,8.9134,8.9134,8.9134,8.9134,8.9134,8.9134,8.9134,8.9134,8.9134,8.91,8.8998,8.8767,8.8734,8.8903,8.9066,8.91,8.91,8.9134,8.9134,8.9134,8.9134,8.9134,8.9134,8.9134,8.9134,8.9134,8.9134,8.9134,8.9134,8.9134,8.9134,8.9134,8.9134,8.9134,8.9134,8.9156,8.9212,8.9268,8.924,8.9268,8.9351,8.9351,8.9606,8.9662,8.9662,8.9606,8.9634,8.9717,8.9717,8.9744,8.9744,8.9744,8.9744,8.9771,8.9744,8.9799,8.9826,8.9854,8.9881,9.0017,9.0207,9.0118,9.0037,9.0153,9.0207,9.0234,9.0288,9.0307,9.0494,9.0574,9.0441,9.0368,9.0288,9.018,9.0126,9.0044,8.9935,8.9963,9.0071,9.0044,9.0071,9.0017,8.999,9.0071,9.0126,8.9963,8.9771,8.9683,8.9634,8.9579,8.9662,8.9744,8.9134,8.9134,8.9134,8.9134,8.9134,8.9134,8.9134,8.9134,8.9134,8.9134,8.9134,8.9134,8.9134,8.9134,8.9134,8.9134,8.9134,8.9134,8.9134,8.9134,8.9134,8.9134,8.9134,8.9134,8.9134,8.9134,8.9134,8.9134,8.9134,8.9134,8.9134,8.9134,8.9134,8.91,8.9066,8.9066,8.9066,8.9134,8.9134,8.9134,8.9134,8.9134,8.9134,8.9134,8.9134,8.9134,8.9134,8.9134,8.9134,8.9134,8.9134,8.9134,8.9134,8.9134,8.9134,8.9134,8.9184,8.9212,8.9295,8.9551,8.9579,8.9524,8.9606,8.9662,8.9689,8.9826,8.9908,8.9935,9.0017,8.999,9.0017,9.0017,9.0044,9.0017,9.0017,9.0017,8.999,8.999,9.0044,9.0106,9.0126,9.0153,9.0234,9.0395,9.0494,9.0441,9.0388,9.0441,9.0468,9.0494,9.0521,9.0654,9.0786,9.0654,9.0548,9.0582,9.0449,9.0315,9.0234,9.0207,9.0315,9.0414,9.0341,9.0261,9.0341,9.0368,9.0341,9.0288,9.0226,9.0261,9.0288,9.018,9.0044,9.0017,9.0071,8.9134,8.9134,8.9134,8.9134,8.9134,8.9134,8.9134,8.9134,8.9134,8.9134,8.9134,8.9134,8.9134,8.9134,8.9134,8.9134,8.9134,8.9134,8.9134,8.9134,8.9134,8.9134,8.9134,8.9134,8.9134,8.9134,8.9134,8.9134,8.9134,8.9134,8.9134,8.9134,8.9134,8.9134,8.9134,8.9134,8.9134,8.9134,8.9134,8.9134,8.9134,8.9134,8.9134,8.9134,8.9134,8.9134,8.9134,8.9134,8.9134,8.9134,8.9134,8.9134,8.9134,8.9134,8.91,8.9184,8.9351,8.9434,8.9606,8.9826,8.9963,8.9935,9.0017,9.0017,9.0017,9.0099,9.0207,9.018,9.0207,9.0126,9.0099,9.0126,9.0126,9.0126,9.0126,9.0126,9.0126,9.0153,9.0261,9.0315,9.0395,9.0441,9.0574,9.0733,9.068,9.0654,9.0601,9.0627,9.0654,9.068,9.0707,9.0707,9.0786,9.0786,9.076,9.0707,9.0654,9.0494,9.0574,9.0574,9.0707,9.068,9.0601,9.0548,9.0707,9.0707,9.0574,9.0601,9.068,9.068,9.0601,9.0494,9.0341,9.0234,9.0234,8.9134,8.9134,8.9134,8.9134,8.9134,8.9134,8.9134,8.9134,8.9134,8.9134,8.9134,8.9134,8.9134,8.9134,8.9134,8.9134,8.9134,8.9134,8.9134,8.9134,8.9134,8.9134,8.9134,8.9134,8.9134,8.9134,8.9134,8.9134,8.9134,8.9134,8.9134,8.9134,8.9134,8.9134,8.9134,8.9134,8.9134,8.9134,8.9134,8.9134,8.9134,8.9134,8.9134,8.9134,8.9134,8.9134,8.9134,8.9134,8.9134,8.9134,8.9134,8.9134,8.9134,8.91,8.9128,8.9351,8.949,8.9606,8.9854,9.0126,9.0288,9.0307,9.0414,9.0388,9.0422,9.0388,9.0494,9.0441,9.0475,9.0449,9.0422,9.0414,9.0414,9.0414,9.0414,9.0449,9.0422,9.0449,9.0529,9.0521,9.0601,9.0627,9.0786,9.0786,9.076,9.0786,9.0786,9.0786,9.0786,9.0786,9.0786,9.0786,9.0786,9.0786,9.0786,9.076,9.0786,9.0786,9.0786,9.0786,9.076,9.076,9.0786,9.0786,9.0786,9.0786,9.076,9.0786,9.0786,9.0786,9.0733,9.068,9.0601,9.0494,9.0441,8.9134,8.9134,8.9134,8.9134,8.9134,8.9134,8.9134,8.9134,8.9134,8.9134,8.9134,8.9134,8.9134,8.9134,8.9134,8.9134,8.9134,8.9134,8.9134,8.9134,8.9134,8.9134,8.9134,8.9134,8.9134,8.9134,8.9134,8.9134,8.9134,8.9134,8.9134,8.9134,8.9134,8.9134,8.9134,8.9134,8.9134,8.9134,8.9134,8.9134,8.9134,8.9134,8.9134,8.9134,8.9134,8.9134,8.9134,8.9134,8.9134,8.9134,8.9134,8.9134,8.9128,8.9184,8.9268,8.9517,8.9792,8.9963,9.018,9.0422,9.0494,9.0574,9.068,9.068,9.0654,9.0654,9.0707,9.0733,9.076,9.0786,9.0786,9.0786,9.0786,9.0786,9.0786,9.0786,9.0786,9.0786,9.0786,9.0786,9.0786,9.0786,9.0786,9.0786,9.0786,9.0786,9.0786,9.0786,9.0786,9.0786,9.0786,9.0786,9.0786,9.0786,9.0786,9.0786,9.0786,9.0786,9.0786,9.0786,9.0786,9.0786,9.0786,9.0786,9.0786,9.0786,9.0786,9.0786,9.0786,9.0786,9.0778,9.0725,9.0699,9.0707,9.068,8.9134,8.9134,8.9134,8.9134,8.9134,8.9134,8.9134,8.9134,8.9134,8.9134,8.9134,8.9134,8.9134,8.9134,8.9134,8.9134,8.9134,8.9134,8.9134,8.9134,8.9134,8.9134,8.9134,8.9134,8.9134,8.9134,8.9134,8.9134,8.9134,8.9134,8.9134,8.9134,8.9134,8.9134,8.9134,8.9134,8.9134,8.9134,8.9134,8.9134,8.9134,8.9134,8.9134,8.9134,8.9134,8.9134,8.9134,8.9134,8.9134,8.9134,8.9134,8.9134,8.924,8.9323,8.9434,8.971,9.0064,9.0253,9.0414,9.0627,9.0707,9.076,9.0786,9.0786,9.076,9.076,9.0786,9.0786,9.0786,9.0786,9.0786,9.0786,9.0786,9.0786,9.0786,9.0786,9.0786,9.0786,9.0786,9.0786,9.0786,9.0786,9.0786,9.0786,9.0786,9.0786,9.0786,9.0786,9.0786,9.0786,9.0786,9.0786,9.0786,9.0786,9.0786,9.0786,9.0786,9.0786,9.0786,9.0786,9.0786,9.0786,9.0786,9.0786,9.0786,9.0786,9.0786,9.0648,9.0605,9.0778,9.0743,9.0709,9.0743,9.0778,9.0786,8.9134,8.9134,8.9134,8.9134,8.9134,8.9134,8.9134,8.9134,8.9134,8.91,8.91,8.91,8.9134,8.9134,8.9134,8.9134,8.9134,8.9134,8.9134,8.9134,8.9134,8.9134,8.9134,8.9134,8.9134,8.9134,8.9134,8.9134,8.9134,8.9134,8.9134,8.9134,8.9134,8.9134,8.9134,8.9134,8.9134,8.9134,8.9134,8.9134,8.9134,8.9134,8.9134,8.9134,8.9134,8.9134,8.9134,8.9134,8.9134,8.9134,8.9134,8.9184,8.9379,8.9462,8.9737,9.0091,9.0307,9.0468,9.0627,9.0733,9.0786,9.0786,9.0786,9.0786,9.0786,9.0786,9.0786,9.0786,9.0786,9.0786,9.0786,9.0786,9.0786,9.0786,9.0786,9.0786,9.0786,9.0786,9.0786,9.0786,9.0786,9.0786,9.0786,9.0786,9.0786,9.0786,9.0786,9.0786,9.0786,9.0786,9.0786,9.0786,9.0786,9.0786,9.0786,9.0786,9.0786,9.0786,9.0786,9.0786,9.0786,9.0786,9.0786,9.0786,9.0786,9.0786,9.0614,9.0192,9.0226,9.0467,9.0467,9.0329,9.0605,9.0709,9.0778,8.9134,8.9134,8.9134,8.9134,8.9134,8.9134,8.9134,8.9066,8.8734,8.8598,8.8666,8.8931,8.91,8.91,8.9134,8.9032,8.9032,8.9134,8.9134,8.9134,8.8998,8.9134,8.91,8.8998,8.9134,8.9134,8.9134,8.9134,8.9134,8.9134,8.9134,8.9134,8.9134,8.9134,8.9134,8.9134,8.9134,8.9134,8.9134,8.9134,8.9134,8.9134,8.9134,8.9134,8.9134,8.9134,8.9134,8.9134,8.9184,8.9329,8.9468,8.9579,8.9744,8.9847,9.0064,9.0307,9.0494,9.0627,9.076,9.0786,9.0786,9.0786,9.0786,9.0786,9.0786,9.0786,9.0786,9.0786,9.0786,9.0786,9.0786,9.0786,9.0786,9.0786,9.0786,9.0786,9.0786,9.0786,9.0786,9.0786,9.0786,9.0786,9.0786,9.0786,9.0786,9.0786,9.0786,9.082,9.082,9.1019,9.095,9.0958,9.1096,9.0889,9.0786,9.0786,9.0786,9.0786,9.0786,9.0786,9.0786,9.0786,9.0786,9.0786,9.0786,9.0786,9.0536,9.0123,8.9881,9.0054,8.9985,8.9881,9.0226,9.0605,9.0709,8.9134,8.9134,8.9134,8.9134,8.9134,8.9134,8.9032,8.8835,8.8294,8.7955,8.7922,8.8463,8.8795,8.8829,8.8829,8.8829,8.8728,8.8429,8.8626,8.866,8.8632,8.8463,8.8525,8.866,8.866,8.8761,8.8863,8.8998,8.9134,8.9134,8.9134,8.9134,8.91,8.9134,8.9134,8.9134,8.9134,8.9134,8.9134,8.9134,8.9134,8.9134,8.9134,8.9134,8.9134,8.9134,8.9134,8.9184,8.9295,8.9462,8.9744,8.9908,9.0044,9.018,9.0307,9.0529,9.0654,9.0733,9.0786,9.0786,9.0786,9.0786,9.0786,9.0786,9.0786,9.0786,9.0786,9.0786,9.0786,9.0786,9.0786,9.0786,9.0786,9.0786,9.0786,9.0786,9.0786,9.0786,9.0786,9.0786,9.0786,9.0786,9.0786,9.0786,9.0812,9.0786,9.082,9.0881,9.1019,9.1295,9.1433,9.1571,9.1778,9.1502,9.0958,9.0847,9.0881,9.0786,9.0786,9.0786,9.0786,9.0786,9.0786,9.0786,9.0786,9.0786,9.0571,9.0157,8.9985,8.9881,8.9778,8.9778,8.995,9.0329,9.0571,8.9134,8.9134,8.9134,8.9134,8.91,8.91,8.8795,8.826,8.8057,8.7685,8.7245,8.7177,8.7313,8.7313,8.7313,8.7414,8.7651,8.7583,8.738,8.7313,8.7617,8.7482,8.7482,8.7786,8.7786,8.7989,8.826,8.8558,8.8592,8.8863,8.91,8.9032,8.9066,8.9066,8.9134,8.9134,8.9134,8.9134,8.9134,8.9134,8.91,8.91,8.91,8.9134,8.9134,8.9134,8.9156,8.9357,8.9407,8.9572,8.9854,9.0126,9.0288,9.0422,9.0494,9.0627,9.076,9.0786,9.0786,9.0786,9.0786,9.0786,9.0786,9.0786,9.0786,9.0786,9.0786,9.0786,9.0786,9.0786,9.0786,9.0786,9.0786,9.0786,9.0786,9.0786,9.0786,9.0786,9.0786,9.0786,9.0786,9.0786,9.0786,9.0847,9.0881,9.0916,9.0985,9.1123,9.1709,9.1847,9.195,9.2157,9.2364,9.1744,9.1088,9.1019,9.0985,9.0881,9.0751,9.0709,9.0709,9.0786,9.0751,9.0605,9.0683,9.0786,9.0502,9.0192,9.0157,9.0054,8.9847,8.9778,8.9881,9.0157,9.0536]}]]